| time (UTC) | temp C | wind direction | speed KPH | gust KPH | rain 1hr cm | rain 24hr cm | rain mn cm | humidity % | barometer mb |
| 20260507144634 | 14 | 234 | 22.5 | 29.0 | 0.00 | 0.25 | 0.00 | 55 | 1017.6 |
| 20260507144527 | 14 | 260 | 20.9 | 29.0 | 0.00 | 0.25 | 0.00 | 56 | 1017.6 |
| 20260507144424 | 14 | 238 | 19.3 | 29.0 | 0.00 | 0.25 | 0.00 | 55 | 1017.6 |
| 20260507144322 | 14 | 248 | 19.3 | 29.0 | 0.00 | 0.25 | 0.00 | 56 | 1017.6 |
| 20260507144218 | 14 | 261 | 20.9 | 29.0 | 0.00 | 0.25 | 0.00 | 55 | 1017.6 |
| 20260507144136 | 13 | 254 | 22.5 | 29.0 | 0.00 | 0.25 | 0.00 | 55 | 1017.6 |
| 20260507144049 | 13 | 252 | 22.5 | 29.0 | 0.00 | 0.25 | 0.00 | 55 | 1017.6 |
| 20260507143929 | 13 | 254 | 22.5 | 29.0 | 0.00 | 0.25 | 0.00 | 57 | 1017.6 |
| 20260507143828 | 13 | 253 | 20.9 | 29.0 | 0.00 | 0.25 | 0.00 | 58 | 1017.6 |
| 20260507143730 | 13 | 246 | 17.7 | 29.0 | 0.00 | 0.25 | 0.00 | 60 | 1017.7 |
| 20260507143627 | 13 | 257 | 17.7 | 29.0 | 0.00 | 0.25 | 0.00 | 60 | 1017.6 |
| 20260507143521 | 13 | 259 | 20.9 | 29.0 | 0.00 | 0.25 | 0.00 | 59 | 1017.6 |
| 20260507143418 | 13 | 246 | 22.5 | 29.0 | 0.00 | 0.25 | 0.00 | 59 | 1017.6 |
| 20260507143319 | 13 | 250 | 22.5 | 29.0 | 0.00 | 0.25 | 0.00 | 59 | 1017.6 |
| 20260507143222 | 13 | 244 | 24.1 | 29.0 | 0.00 | 0.25 | 0.00 | 59 | 1017.6 |
| 20260507143119 | 13 | 251 | 24.1 | 29.0 | 0.00 | 0.25 | 0.00 | 59 | 1017.5 |
| 20260507143016 | 13 | 233 | 22.5 | 29.0 | 0.00 | 0.25 | 0.00 | 61 | 1017.6 |
| 20260507142933 | 13 | 240 | 20.9 | 25.7 | 0.00 | 0.25 | 0.00 | 62 | 1017.6 |
| 20260507142834 | 13 | 230 | 20.9 | 25.7 | 0.00 | 0.25 | 0.00 | 62 | 1017.6 |
| 20260507142750 | 12 | 258 | 20.9 | 25.7 | 0.00 | 0.25 | 0.00 | 62 | 1017.6 |
| 20260507142626 | 12 | 239 | 19.3 | 24.1 | 0.00 | 0.25 | 0.00 | 63 | 1017.6 |
| 20260507142540 | 12 | 250 | 19.3 | 24.1 | 0.00 | 0.25 | 0.00 | 65 | 1017.6 |
| 20260507142419 | 12 | 251 | 19.3 | 24.1 | 0.00 | 0.25 | 0.00 | 65 | 1017.7 |
| 20260507142337 | 12 | 238 | 17.7 | 24.1 | 0.00 | 0.25 | 0.00 | 66 | 1017.7 |
| 20260507142212 | 12 | 246 | 16.1 | 24.1 | 0.00 | 0.25 | 0.00 | 67 | 1017.7 |
| 20260507142134 | 12 | 247 | 17.7 | 24.1 | 0.00 | 0.25 | 0.00 | 67 | 1017.7 |
| 20260507142028 | 12 | 255 | 19.3 | 24.1 | 0.00 | 0.25 | 0.00 | 67 | 1017.7 |
| 20260507141925 | 12 | 240 | 19.3 | 24.1 | 0.00 | 0.25 | 0.00 | 67 | 1017.8 |
| 20260507141843 | 12 | 249 | 19.3 | 24.1 | 0.00 | 0.25 | 0.00 | 67 | 1017.8 |
| 20260507141718 | 12 | 249 | 19.3 | 24.1 | 0.00 | 0.25 | 0.00 | 68 | 1017.8 |
| 20260507141615 | 12 | 255 | 16.1 | 24.1 | 0.00 | 0.25 | 0.00 | 71 | 1017.8 |
| 20260507141531 | 11 | 244 | 12.9 | 24.1 | 0.00 | 0.25 | 0.00 | 71 | 1017.9 |
| 20260507141432 | 11 | 257 | 14.5 | 24.1 | 0.00 | 0.25 | 0.00 | 71 | 1017.9 |
| 20260507141333 | 11 | 259 | 16.1 | 24.1 | 0.00 | 0.25 | 0.00 | 71 | 1017.8 |
| 20260507141229 | 11 | 250 | 19.3 | 24.1 | 0.00 | 0.30 | 0.00 | 70 | 1017.8 |
| 20260507141126 | 11 | 254 | 20.9 | 24.1 | 0.00 | 0.30 | 0.00 | 70 | 1017.9 |
| 20260507141019 | 11 | 255 | 19.3 | 24.1 | 0.00 | 0.30 | 0.00 | 72 | 1017.9 |
| 20260507140922 | 11 | 246 | 19.3 | 22.5 | 0.00 | 0.30 | 0.00 | 74 | 1017.9 |
| 20260507140818 | 11 | 246 | 17.7 | 22.5 | 0.00 | 0.30 | 0.00 | 75 | 1017.9 |
| 20260507140717 | 11 | 261 | 17.7 | 24.1 | 0.00 | 0.30 | 0.00 | 74 | 1017.9 |
| 20260507140620 | 10 | 257 | 17.7 | 24.1 | 0.00 | 0.30 | 0.00 | 75 | 1017.9 |
| 20260507140533 | 10 | 240 | 17.7 | 25.7 | 0.00 | 0.30 | 0.00 | 75 | 1017.9 |
| 20260507140430 | 10 | 261 | 17.7 | 25.7 | 0.00 | 0.30 | 0.00 | 76 | 1017.9 |
| 20260507140348 | 10 | 360 | 17.7 | 25.7 | 0.00 | 0.30 | 0.00 | 76 | 1017.9 |
| 20260507140223 | 10 | 360 | 17.7 | 25.7 | 0.00 | 0.30 | 0.00 | 76 | 1017.9 |
| 20260507140146 | 10 | 360 | 19.3 | 25.7 | 0.00 | 0.30 | 0.00 | 76 | 1017.9 |
| 20260507140019 | 10 | 360 | 19.3 | 25.7 | 0.00 | 0.30 | 0.00 | 76 | 1017.9 |
| 20260507135918 | 10 | 360 | 20.9 | 25.7 | 0.00 | 0.30 | 0.00 | 77 | 1017.9 |
| 20260507135819 | 9 | 360 | 20.9 | 25.7 | 0.00 | 0.30 | 0.00 | 77 | 1017.9 |
| 20260507135722 | 9 | 360 | 20.9 | 25.7 | 0.00 | 0.30 | 0.00 | 77 | 1018.0 |
| 20260507135619 | 9 | 360 | 20.9 | 25.7 | 0.00 | 0.30 | 0.00 | 78 | 1018.0 |
| 20260507135514 | 9 | 360 | 20.9 | 25.7 | 0.00 | 0.30 | 0.00 | 79 | 1018.0 |
| 20260507135434 | 9 | 360 | 20.9 | 25.7 | 0.00 | 0.30 | 0.00 | 79 | 1018.0 |
| 20260507135333 | 9 | 360 | 17.7 | 25.7 | 0.00 | 0.30 | 0.00 | 80 | 1018.0 |
| 20260507135229 | 8 | 360 | 17.7 | 25.7 | 0.00 | 0.30 | 0.00 | 80 | 1018.0 |
| 20260507135125 | 8 | 249 | 19.3 | 25.7 | 0.00 | 0.30 | 0.00 | 81 | 1018.0 |
| 20260507135023 | 8 | 360 | 20.9 | 25.7 | 0.00 | 0.30 | 0.00 | 80 | 1018.0 |
| 20260507134927 | 8 | 360 | 20.9 | 25.7 | 0.00 | 0.30 | 0.00 | 81 | 1018.1 |
| 20260507134828 | 8 | 260 | 20.9 | 24.1 | 0.00 | 0.30 | 0.00 | 82 | 1018.0 |
| 20260507134744 | 8 | 248 | 20.9 | 24.1 | 0.00 | 0.30 | 0.00 | 82 | 1018.0 |
| 20260507134640 | 8 | 241 | 20.9 | 24.1 | 0.00 | 0.30 | 0.00 | 82 | 1018.1 |
| 20260507134556 | 8 | 248 | 19.3 | 24.1 | 0.00 | 0.30 | 0.00 | 83 | 1018.1 |
| 20260507134430 | 8 | 250 | 17.7 | 24.1 | 0.00 | 0.30 | 0.00 | 84 | 1018.1 |
| 20260507134329 | 8 | 244 | 16.1 | 24.1 | 0.00 | 0.30 | 0.00 | 84 | 1018.1 |
| 20260507134225 | 7 | 249 | 16.1 | 24.1 | 0.00 | 0.30 | 0.00 | 84 | 1018.1 |
| 20260507134145 | 7 | 251 | 16.1 | 24.1 | 0.00 | 0.30 | 0.00 | 85 | 1018.1 |
| 20260507134021 | 7 | 261 | 16.1 | 24.1 | 0.00 | 0.30 | 0.00 | 85 | 1018.1 |
| 20260507133921 | 7 | 248 | 16.1 | 24.1 | 0.00 | 0.30 | 0.00 | 85 | 1018.2 |
| 20260507133838 | 7 | 257 | 16.1 | 24.1 | 0.00 | 0.30 | 0.00 | 86 | 1018.1 |
| 20260507133717 | 7 | 246 | 17.7 | 24.1 | 0.00 | 0.30 | 0.00 | 86 | 1018.1 |
| 20260507133634 | 7 | 249 | 19.3 | 24.1 | 0.00 | 0.30 | 0.00 | 86 | 1018.2 |
| 20260507133526 | 7 | 261 | 17.7 | 22.5 | 0.00 | 0.30 | 0.00 | 86 | 1018.2 |
| 20260507133422 | 7 | 256 | 14.5 | 20.9 | 0.00 | 0.30 | 0.00 | 87 | 1018.2 |
| 20260507133322 | 7 | 247 | 14.5 | 20.9 | 0.00 | 0.30 | 0.00 | 88 | 1018.2 |
| 20260507133221 | 6 | 251 | 14.5 | 20.9 | 0.00 | 0.30 | 0.00 | 88 | 1018.2 |
| 20260507133138 | 6 | 254 | 16.1 | 20.9 | 0.00 | 0.30 | 0.00 | 87 | 1018.1 |
| 20260507133039 | 6 | 253 | 16.1 | 20.9 | 0.00 | 0.30 | 0.00 | 88 | 1018.1 |
| 20260507132955 | 6 | 253 | 16.1 | 20.9 | 0.00 | 0.30 | 0.00 | 88 | 1018.2 |
| 20260507132834 | 6 | 259 | 16.1 | 20.9 | 0.00 | 0.30 | 0.00 | 88 | 1018.1 |
| 20260507132730 | 6 | 257 | 16.1 | 20.9 | 0.00 | 0.30 | 0.00 | 89 | 1018.1 |
| 20260507132627 | 6 | 248 | 16.1 | 20.9 | 0.00 | 0.30 | 0.00 | 89 | 1018.1 |
| 20260507132523 | 6 | 257 | 14.5 | 20.9 | 0.00 | 0.30 | 0.00 | 89 | 1018.1 |
| 20260507132420 | 6 | 269 | 14.5 | 20.9 | 0.00 | 0.30 | 0.00 | 89 | 1018.1 |
| 20260507132320 | 5 | 243 | 14.5 | 20.9 | 0.00 | 0.30 | 0.00 | 89 | 1018.0 |
| 20260507132240 | 5 | 250 | 14.5 | 20.9 | 0.00 | 0.30 | 0.00 | 89 | 1018.0 |
| 20260507132140 | 5 | 254 | 14.5 | 19.3 | 0.00 | 0.30 | 0.00 | 89 | 1018.0 |
| 20260507132053 | 5 | 248 | 14.5 | 19.3 | 0.00 | 0.30 | 0.00 | 90 | 1018.0 |
| 20260507131949 | 5 | 252 | 14.5 | 19.3 | 0.00 | 0.30 | 0.00 | 90 | 1017.9 |
| 20260507131846 | 5 | 246 | 12.9 | 19.3 | 0.00 | 0.30 | 0.00 | 90 | 1018.0 |
| 20260507131741 | 5 | 250 | 12.9 | 19.3 | 0.00 | 0.30 | 0.00 | 90 | 1018.0 |
| 20260507131701 | 5 | 245 | 14.5 | 19.3 | 0.00 | 0.30 | 0.00 | 90 | 1017.9 |
| 20260507131533 | 5 | 246 | 14.5 | 19.3 | 0.00 | 0.30 | 0.00 | 90 | 1018.0 |
| 20260507131429 | 5 | 248 | 14.5 | 19.3 | 0.00 | 0.30 | 0.00 | 90 | 1018.0 |
| 20260507131347 | 4 | 236 | 14.5 | 19.3 | 0.00 | 0.30 | 0.00 | 90 | 1018.0 |
| 20260507131225 | 4 | 240 | 14.5 | 19.3 | 0.00 | 0.33 | 0.00 | 90 | 1018.0 |
| 20260507131125 | 4 | 238 | 12.9 | 16.1 | 0.00 | 0.33 | 0.00 | 90 | 1017.9 |
| 20260507131039 | 4 | 248 | 12.9 | 16.1 | 0.00 | 0.33 | 0.00 | 90 | 1017.9 |
| 20260507130920 | 4 | 230 | 12.9 | 16.1 | 0.00 | 0.33 | 0.00 | 90 | 1017.9 |
| 20260507130817 | 4 | 247 | 12.9 | 16.1 | 0.00 | 0.33 | 0.00 | 90 | 1017.9 |
| 20260507130716 | 4 | 244 | 12.9 | 16.1 | 0.00 | 0.33 | 0.00 | 91 | 1017.9 |
| 20260507130634 | 3 | 244 | 12.9 | 19.3 | 0.00 | 0.33 | 0.00 | 90 | 1017.9 |
| 20260507130525 | 3 | 247 | 12.9 | 19.3 | 0.00 | 0.33 | 0.00 | 91 | 1017.9 |
| 20260507130422 | 3 | 232 | 12.9 | 19.3 | 0.00 | 0.33 | 0.00 | 91 | 1017.8 |
| 20260507130324 | 3 | 249 | 12.9 | 19.3 | 0.00 | 0.33 | 0.00 | 91 | 1017.8 |
| 20260507130224 | 3 | 240 | 12.9 | 19.3 | 0.00 | 0.33 | 0.00 | 91 | 1017.8 |
| 20260507130120 | 3 | 234 | 12.9 | 19.3 | 0.00 | 0.33 | 0.00 | 91 | 1017.9 |
| 20260507130015 | 3 | 240 | 12.9 | 19.3 | 0.00 | 0.33 | 0.00 | 91 | 1017.9 |
| 20260507125935 | 3 | 246 | 12.9 | 19.3 | 0.00 | 0.33 | 0.00 | 91 | 1017.9 |
| 20260507125833 | 3 | 238 | 14.5 | 19.3 | 0.00 | 0.33 | 0.00 | 91 | 1017.9 |
| 20260507125732 | 3 | 244 | 16.1 | 19.3 | 0.00 | 0.33 | 0.00 | 91 | 1017.9 |
| 20260507125633 | 3 | 237 | 16.1 | 19.3 | 0.00 | 0.33 | 0.00 | 91 | 1017.8 |
| 20260507125526 | 2 | 243 | 16.1 | 19.3 | 0.00 | 0.33 | 0.00 | 91 | 1017.9 |
| 20260507125421 | 2 | 230 | 14.5 | 17.7 | 0.00 | 0.33 | 0.00 | 91 | 1017.9 |
| 20260507125322 | 2 | 234 | 12.9 | 17.7 | 0.00 | 0.33 | 0.00 | 91 | 1017.9 |
| 20260507125238 | 2 | 360 | 12.9 | 16.1 | 0.00 | 0.33 | 0.00 | 91 | 1017.9 |
| 20260507125155 | 2 | 360 | 14.5 | 16.1 | 0.00 | 0.33 | 0.00 | 91 | 1017.9 |
| 20260507125026 | 2 | 360 | 12.9 | 16.1 | 0.00 | 0.33 | 0.00 | 91 | 1017.9 |
| 20260507124923 | 2 | 233 | 12.9 | 16.1 | 0.00 | 0.33 | 0.00 | 91 | 1017.9 |
| 20260507124824 | 2 | 242 | 12.9 | 16.1 | 0.00 | 0.33 | 0.00 | 91 | 1018.0 |
| 20260507124720 | 2 | 243 | 12.9 | 16.1 | 0.00 | 0.33 | 0.00 | 91 | 1018.0 |
| 20260507124620 | 2 | 231 | 12.9 | 16.1 | 0.00 | 0.33 | 0.00 | 91 | 1018.0 |
| 20260507124520 | 2 | 360 | 12.9 | 16.1 | 0.00 | 0.33 | 0.00 | 91 | 1018.0 |
| 20260507124417 | 2 | 360 | 11.3 | 16.1 | 0.00 | 0.33 | 0.00 | 91 | 1018.0 |
| 20260507124335 | 2 | 360 | 11.3 | 16.1 | 0.00 | 0.33 | 0.00 | 91 | 1018.0 |
| 20260507124231 | 2 | 360 | 11.3 | 16.1 | 0.00 | 0.33 | 0.00 | 91 | 1018.0 |
| 20260507124127 | 2 | 360 | 12.9 | 17.7 | 0.00 | 0.33 | 0.00 | 91 | 1018.0 |
| 20260507124020 | 2 | 360 | 12.9 | 17.7 | 0.00 | 0.33 | 0.00 | 91 | 1018.1 |
| 20260507123921 | 2 | 360 | 12.9 | 17.7 | 0.00 | 0.33 | 0.00 | 91 | 1018.0 |
| 20260507123821 | 2 | 360 | 12.9 | 17.7 | 0.00 | 0.33 | 0.00 | 91 | 1018.1 |
| 20260507123724 | 2 | 360 | 12.9 | 17.7 | 0.00 | 0.33 | 0.00 | 91 | 1018.0 |
| 20260507123621 | 1 | 360 | 12.9 | 17.7 | 0.00 | 0.33 | 0.00 | 91 | 1018.0 |
| 20260507123516 | 1 | 360 | 12.9 | 17.7 | 0.00 | 0.33 | 0.00 | 91 | 1018.0 |
| 20260507123434 | 1 | 360 | 12.9 | 17.7 | 0.00 | 0.33 | 0.00 | 91 | 1018.1 |
| 20260507123352 | 1 | 248 | 14.5 | 17.7 | 0.00 | 0.33 | 0.00 | 91 | 1018.1 |
| 20260507123227 | 1 | 244 | 14.5 | 17.7 | 0.00 | 0.33 | 0.00 | 92 | 1018.2 |
| 20260507123127 | 1 | 241 | 12.9 | 17.7 | 0.00 | 0.33 | 0.00 | 92 | 1018.2 |
| 20260507123021 | 1 | 257 | 12.9 | 17.7 | 0.00 | 0.33 | 0.00 | 92 | 1018.2 |
| 20260507122922 | 1 | 240 | 12.9 | 17.7 | 0.00 | 0.33 | 0.00 | 92 | 1018.1 |
| 20260507122822 | 1 | 258 | 12.9 | 17.7 | 0.00 | 0.33 | 0.00 | 92 | 1018.1 |
| 20260507122722 | 1 | 261 | 14.5 | 17.7 | 0.00 | 0.33 | 0.00 | 92 | 1018.1 |
| 20260507122619 | 1 | 252 | 14.5 | 17.7 | 0.00 | 0.33 | 0.00 | 92 | 1018.0 |
| 20260507122536 | 1 | 248 | 14.5 | 17.7 | 0.00 | 0.33 | 0.00 | 92 | 1018.0 |
| 20260507122433 | 1 | 244 | 14.5 | 17.7 | 0.00 | 0.33 | 0.00 | 92 | 1018.0 |
| 20260507122332 | 1 | 250 | 14.5 | 17.7 | 0.00 | 0.33 | 0.00 | 92 | 1018.1 |
| 20260507122230 | 1 | 251 | 14.5 | 17.7 | 0.00 | 0.33 | 0.00 | 92 | 1018.0 |
| 20260507122132 | 1 | 248 | 12.9 | 17.7 | 0.00 | 0.33 | 0.00 | 92 | 1018.0 |
| 20260507122025 | 1 | 261 | 12.9 | 17.7 | 0.00 | 0.33 | 0.00 | 92 | 1018.0 |
| 20260507121922 | 1 | 254 | 12.9 | 17.7 | 0.00 | 0.33 | 0.00 | 92 | 1018.0 |
| 20260507121843 | 1 | 247 | 12.9 | 17.7 | 0.00 | 0.33 | 0.00 | 92 | 1018.0 |
| 20260507121738 | 1 | 249 | 14.5 | 17.7 | 0.00 | 0.33 | 0.00 | 92 | 1018.0 |
| 20260507121656 | 1 | 244 | 12.9 | 17.7 | 0.00 | 0.33 | 0.00 | 92 | 1018.0 |
| 20260507121529 | 1 | 254 | 12.9 | 17.7 | 0.00 | 0.33 | 0.00 | 92 | 1018.0 |
| 20260507121426 | 1 | 245 | 12.9 | 16.1 | 0.00 | 0.33 | 0.00 | 92 | 1018.0 |
| 20260507121323 | 1 | 246 | 14.5 | 16.1 | 0.00 | 0.33 | 0.00 | 92 | 1018.0 |
| 20260507121240 | 1 | 250 | 12.9 | 16.1 | 0.00 | 0.33 | 0.00 | 92 | 1018.0 |
| 20260507121142 | 1 | 247 | 12.9 | 16.1 | 0.00 | 0.33 | 0.00 | 92 | 1018.1 |
| 20260507121059 | 1 | 248 | 12.9 | 16.1 | 0.00 | 0.33 | 0.00 | 92 | 1018.1 |
| 20260507120934 | 1 | 260 | 12.9 | 16.1 | 0.00 | 0.33 | 0.00 | 92 | 1018.2 |
| 20260507120854 | 1 | 257 | 12.9 | 16.1 | 0.00 | 0.33 | 0.00 | 92 | 1018.1 |
| 20260507120731 | 1 | 248 | 14.5 | 16.1 | 0.00 | 0.33 | 0.00 | 92 | 1018.2 |
| 20260507120634 | 1 | 254 | 14.5 | 16.1 | 0.00 | 0.33 | 0.00 | 92 | 1018.2 |
| 20260507120529 | 1 | 254 | 12.9 | 16.1 | 0.00 | 0.33 | 0.00 | 92 | 1018.2 |
| 20260507120426 | 0 | 261 | 12.9 | 16.1 | 0.00 | 0.33 | 0.00 | 92 | 1018.2 |
| 20260507120324 | 0 | 250 | 12.9 | 16.1 | 0.00 | 0.33 | 0.00 | 92 | 1018.2 |
| 20260507120224 | 0 | 251 | 11.3 | 14.5 | 0.00 | 0.33 | 0.00 | 92 | 1018.2 |
| 20260507120120 | 0 | 247 | 11.3 | 14.5 | 0.00 | 0.33 | 0.00 | 92 | 1018.2 |
| 20260507120014 | 0 | 252 | 11.3 | 14.5 | 0.00 | 0.33 | 0.00 | 92 | 1018.2 |
| 20260507115915 | 0 | 248 | 11.3 | 14.5 | 0.00 | 0.33 | 0.00 | 92 | 1018.3 |
| 20260507115836 | 0 | 247 | 11.3 | 14.5 | 0.00 | 0.33 | 0.00 | 92 | 1018.2 |
| 20260507115752 | 0 | 249 | 11.3 | 14.5 | 0.00 | 0.33 | 0.00 | 92 | 1018.2 |
| 20260507115628 | 0 | 259 | 11.3 | 14.5 | 0.00 | 0.33 | 0.00 | 92 | 1018.2 |
| 20260507115545 | 0 | 252 | 11.3 | 14.5 | 0.00 | 0.33 | 0.00 | 92 | 1018.2 |
| 20260507115422 | 0 | 248 | 11.3 | 14.5 | 0.00 | 0.33 | 0.00 | 92 | 1018.3 |
| 20260507115327 | 0 | 251 | 11.3 | 14.5 | 0.00 | 0.33 | 0.00 | 92 | 1018.3 |
| 20260507115223 | 0 | 244 | 11.3 | 14.5 | 0.00 | 0.33 | 0.00 | 92 | 1018.3 |
| 20260507115119 | 0 | 250 | 11.3 | 14.5 | 0.00 | 0.33 | 0.00 | 92 | 1018.2 |
| 20260507115033 | 0 | 247 | 11.3 | 16.1 | 0.00 | 0.33 | 0.00 | 92 | 1018.2 |
| 20260507114953 | 0 | 244 | 11.3 | 17.7 | 0.00 | 0.33 | 0.00 | 92 | 1018.2 |
| 20260507114830 | 0 | 246 | 11.3 | 17.7 | 0.00 | 0.33 | 0.00 | 92 | 1018.3 |
| 20260507114728 | 0 | 245 | 11.3 | 17.7 | 0.00 | 0.33 | 0.00 | 92 | 1018.3 |
| 20260507114625 | 0 | 248 | 12.9 | 17.7 | 0.00 | 0.33 | 0.00 | 92 | 1018.2 |
| 20260507114521 | 0 | 248 | 12.9 | 17.7 | 0.00 | 0.33 | 0.00 | 92 | 1018.2 |
| 20260507114424 | 0 | 241 | 12.9 | 17.7 | 0.00 | 0.33 | 0.00 | 92 | 1018.3 |
| 20260507114325 | 0 | 252 | 12.9 | 17.7 | 0.00 | 0.33 | 0.00 | 92 | 1018.3 |
| 20260507114221 | 0 | 255 | 12.9 | 17.7 | 0.00 | 0.33 | 0.00 | 92 | 1018.3 |
| 20260507114117 | 0 | 241 | 12.9 | 17.7 | 0.00 | 0.33 | 0.00 | 92 | 1018.3 |
| 20260507114030 | 0 | 246 | 12.9 | 17.7 | 0.00 | 0.33 | 0.00 | 92 | 1018.4 |
| 20260507113927 | 0 | 240 | 12.9 | 16.1 | 0.00 | 0.33 | 0.00 | 92 | 1018.3 |
| 20260507113845 | 0 | 237 | 12.9 | 16.1 | 0.00 | 0.33 | 0.00 | 92 | 1018.4 |
| 20260507113720 | 0 | 239 | 12.9 | 16.1 | 0.00 | 0.33 | 0.00 | 92 | 1018.3 |
| 20260507113617 | 0 | 246 | 12.9 | 14.5 | 0.00 | 0.33 | 0.00 | 92 | 1018.3 |
| 20260507113538 | 0 | 245 | 12.9 | 14.5 | 0.00 | 0.33 | 0.00 | 92 | 1018.4 |
| 20260507113434 | 0 | 247 | 12.9 | 14.5 | 0.00 | 0.33 | 0.00 | 92 | 1018.3 |
| 20260507113352 | 0 | 244 | 12.9 | 14.5 | 0.00 | 0.33 | 0.00 | 92 | 1018.4 |
| 20260507113227 | 0 | 247 | 12.9 | 14.5 | 0.00 | 0.33 | 0.00 | 92 | 1018.4 |
| 20260507113128 | 0 | 239 | 12.9 | 16.1 | 0.00 | 0.33 | 0.00 | 92 | 1018.4 |
| 20260507113020 | 0 | 238 | 12.9 | 16.1 | 0.00 | 0.33 | 0.00 | 92 | 1018.4 |
| 20260507112917 | 0 | 241 | 12.9 | 16.1 | 0.00 | 0.33 | 0.00 | 92 | 1018.4 |
| 20260507112840 | 0 | 243 | 11.3 | 17.7 | 0.00 | 0.33 | 0.00 | 92 | 1018.4 |
| 20260507112718 | 0 | 244 | 12.9 | 17.7 | 0.00 | 0.33 | 0.00 | 93 | 1018.4 |
| 20260507112618 | 0 | 244 | 12.9 | 17.7 | 0.00 | 0.33 | 0.00 | 93 | 1018.5 |
| 20260507112535 | 0 | 246 | 12.9 | 17.7 | 0.00 | 0.33 | 0.00 | 93 | 1018.4 |
| 20260507112434 | 0 | 250 | 12.9 | 17.7 | 0.00 | 0.33 | 0.00 | 93 | 1018.4 |
| 20260507112334 | 0 | 248 | 12.9 | 17.7 | 0.00 | 0.33 | 0.00 | 93 | 1018.4 |
| 20260507112230 | 0 | 250 | 12.9 | 17.7 | 0.00 | 0.33 | 0.00 | 92 | 1018.4 |
| 20260507112127 | 0 | 245 | 12.9 | 17.7 | 0.00 | 0.33 | 0.00 | 92 | 1018.5 |
| 20260507112044 | 0 | 251 | 12.9 | 17.7 | 0.00 | 0.33 | 0.00 | 92 | 1018.5 |
| 20260507111920 | 0 | 238 | 12.9 | 17.7 | 0.00 | 0.33 | 0.00 | 92 | 1018.5 |
| 20260507111820 | 0 | 241 | 12.9 | 16.1 | 0.00 | 0.33 | 0.00 | 92 | 1018.5 |
| 20260507111740 | 0 | 252 | 12.9 | 16.1 | 0.00 | 0.33 | 0.00 | 92 | 1018.5 |
| 20260507111617 | 0 | 251 | 12.9 | 16.1 | 0.00 | 0.33 | 0.00 | 92 | 1018.6 |
| 20260507111531 | 0 | 248 | 12.9 | 16.1 | 0.00 | 0.33 | 0.00 | 92 | 1018.6 |
| 20260507111449 | 0 | 242 | 11.3 | 14.5 | 0.00 | 0.33 | 0.00 | 92 | 1018.5 |
| 20260507111325 | 0 | 246 | 11.3 | 16.1 | 0.00 | 0.33 | 0.00 | 92 | 1018.5 |
| 20260507111222 | 0 | 244 | 11.3 | 16.1 | 0.00 | 0.36 | 0.00 | 92 | 1018.5 |
| 20260507111120 | 0 | 236 | 11.3 | 16.1 | 0.00 | 0.36 | 0.00 | 92 | 1018.5 |
| 20260507111033 | 0 | 244 | 11.3 | 16.1 | 0.00 | 0.36 | 0.00 | 92 | 1018.5 |
| 20260507110931 | 0 | 242 | 11.3 | 16.1 | 0.00 | 0.36 | 0.00 | 92 | 1018.5 |
| 20260507110836 | 0 | 257 | 12.9 | 16.1 | 0.00 | 0.36 | 0.00 | 92 | 1018.5 |
| 20260507110732 | 0 | 238 | 12.9 | 16.1 | 0.00 | 0.36 | 0.00 | 92 | 1018.5 |
| 20260507110630 | 0 | 248 | 12.9 | 16.1 | 0.00 | 0.36 | 0.00 | 92 | 1018.5 |
| 20260507110524 | 0 | 246 | 12.9 | 17.7 | 0.00 | 0.36 | 0.00 | 92 | 1018.6 |
| 20260507110424 | 0 | 236 | 14.5 | 17.7 | 0.00 | 0.36 | 0.00 | 92 | 1018.4 |
| 20260507110323 | 0 | 246 | 12.9 | 17.7 | 0.00 | 0.36 | 0.00 | 92 | 1018.5 |
| 20260507110240 | 0 | 244 | 12.9 | 17.7 | 0.00 | 0.36 | 0.00 | 92 | 1018.5 |
| 20260507110140 | 0 | 252 | 12.9 | 17.7 | 0.00 | 0.36 | 0.00 | 92 | 1018.4 |
| 20260507110032 | 0 | 250 | 12.9 | 17.7 | 0.00 | 0.36 | 0.00 | 92 | 1018.4 |
| 20260507105929 | 0 | 250 | 12.9 | 17.7 | 0.00 | 0.36 | 0.00 | 92 | 1018.5 |
| 20260507105827 | 0 | 246 | 12.9 | 17.7 | 0.00 | 0.36 | 0.00 | 92 | 1018.5 |
| 20260507105725 | 0 | 260 | 12.9 | 17.7 | 0.00 | 0.36 | 0.00 | 92 | 1018.5 |
| 20260507105626 | 0 | 250 | 12.9 | 17.7 | 0.00 | 0.36 | 0.00 | 92 | 1018.5 |
| 20260507105522 | 0 | 251 | 12.9 | 16.1 | 0.00 | 0.36 | 0.00 | 92 | 1018.5 |
| 20260507105424 | 0 | 248 | 12.9 | 16.1 | 0.00 | 0.36 | 0.00 | 92 | 1018.5 |
| 20260507105323 | 0 | 246 | 12.9 | 16.1 | 0.00 | 0.36 | 0.00 | 92 | 1018.5 |
| 20260507105221 | 0 | 245 | 12.9 | 16.1 | 0.00 | 0.36 | 0.00 | 92 | 1018.5 |
| 20260507105118 | 0 | 242 | 12.9 | 16.1 | 0.00 | 0.36 | 0.00 | 92 | 1018.4 |
| 20260507105032 | 0 | 246 | 12.9 | 16.1 | 0.00 | 0.36 | 0.00 | 92 | 1018.4 |
| 20260507104934 | 0 | 244 | 12.9 | 16.1 | 0.00 | 0.36 | 0.00 | 92 | 1018.5 |
| 20260507104855 | 0 | 236 | 12.9 | 16.1 | 0.00 | 0.36 | 0.00 | 92 | 1018.5 |
| 20260507104753 | 0 | 244 | 12.9 | 16.1 | 0.00 | 0.36 | 0.00 | 92 | 1018.5 |
| 20260507104617 | 0 | 241 | 12.9 | 16.1 | 0.00 | 0.36 | 0.00 | 92 | 1018.5 |
| 20260507104530 | 0 | 243 | 12.9 | 17.7 | 0.00 | 0.36 | 0.00 | 92 | 1018.6 |
| 20260507104427 | 0 | 241 | 12.9 | 19.3 | 0.00 | 0.36 | 0.00 | 92 | 1018.6 |
| 20260507104327 | 0 | 242 | 11.3 | 19.3 | 0.00 | 0.36 | 0.00 | 92 | 1018.6 |
| 20260507104223 | 0 | 233 | 11.3 | 19.3 | 0.00 | 0.36 | 0.00 | 92 | 1018.6 |
| 20260507104119 | 0 | 248 | 11.3 | 19.3 | 0.00 | 0.36 | 0.00 | 92 | 1018.6 |
| 20260507104033 | 0 | 242 | 12.9 | 19.3 | 0.00 | 0.36 | 0.00 | 92 | 1018.6 |
| 20260507103932 | 0 | 236 | 12.9 | 19.3 | 0.00 | 0.36 | 0.00 | 92 | 1018.6 |
| 20260507103854 | 0 | 240 | 14.5 | 19.3 | 0.00 | 0.36 | 0.00 | 92 | 1018.5 |
| 20260507103733 | 1 | 234 | 14.5 | 19.3 | 0.00 | 0.36 | 0.00 | 92 | 1018.5 |
| 20260507103631 | 1 | 239 | 14.5 | 19.3 | 0.00 | 0.36 | 0.00 | 92 | 1018.5 |
| 20260507103523 | 1 | 232 | 16.1 | 19.3 | 0.00 | 0.36 | 0.00 | 92 | 1018.5 |
| 20260507103425 | 1 | 240 | 16.1 | 19.3 | 0.00 | 0.36 | 0.00 | 92 | 1018.5 |
| 20260507103326 | 1 | 250 | 16.1 | 17.7 | 0.00 | 0.36 | 0.00 | 92 | 1018.5 |
| 20260507103222 | 1 | 249 | 16.1 | 17.7 | 0.00 | 0.36 | 0.00 | 92 | 1018.5 |
| 20260507103119 | 1 | 246 | 14.5 | 17.7 | 0.00 | 0.36 | 0.00 | 92 | 1018.5 |
| 20260507103037 | 1 | 244 | 14.5 | 17.7 | 0.00 | 0.36 | 0.00 | 92 | 1018.6 |
| 20260507102920 | 1 | 246 | 14.5 | 17.7 | 0.00 | 0.36 | 0.00 | 92 | 1018.6 |
| 20260507102818 | 1 | 246 | 14.5 | 17.7 | 0.00 | 0.36 | 0.00 | 92 | 1018.6 |
| 20260507102735 | 1 | 244 | 12.9 | 17.7 | 0.00 | 0.36 | 0.00 | 92 | 1018.6 |
| 20260507102631 | 1 | 243 | 14.5 | 17.7 | 0.00 | 0.36 | 0.00 | 92 | 1018.7 |
| 20260507102523 | 1 | 247 | 14.5 | 17.7 | 0.00 | 0.36 | 0.00 | 92 | 1018.7 |
| 20260507102419 | 1 | 245 | 12.9 | 16.1 | 0.00 | 0.36 | 0.00 | 92 | 1018.6 |
| 20260507102320 | 1 | 253 | 12.9 | 16.1 | 0.00 | 0.36 | 0.00 | 92 | 1018.7 |
| 20260507102216 | 1 | 253 | 12.9 | 16.1 | 0.00 | 0.36 | 0.00 | 92 | 1018.7 |
| 20260507102117 | 1 | 248 | 12.9 | 16.1 | 0.00 | 0.36 | 0.00 | 92 | 1018.7 |
| 20260507102031 | 1 | 242 | 12.9 | 16.1 | 0.00 | 0.36 | 0.00 | 92 | 1018.7 |
| 20260507101927 | 1 | 257 | 12.9 | 16.1 | 0.00 | 0.36 | 0.00 | 92 | 1018.7 |
| 20260507101828 | 1 | 257 | 14.5 | 19.3 | 0.00 | 0.36 | 0.00 | 92 | 1018.7 |
| 20260507101723 | 1 | 246 | 12.9 | 19.3 | 0.00 | 0.36 | 0.00 | 92 | 1018.7 |
| 20260507101640 | 1 | 247 | 12.9 | 19.3 | 0.00 | 0.36 | 0.00 | 92 | 1018.7 |
| 20260507101513 | 1 | 248 | 14.5 | 19.3 | 0.00 | 0.36 | 0.00 | 92 | 1018.7 |
| 20260507101436 | 1 | 252 | 14.5 | 19.3 | 0.00 | 0.36 | 0.00 | 92 | 1018.7 |
| 20260507101356 | 1 | 248 | 14.5 | 19.3 | 0.00 | 0.36 | 0.00 | 92 | 1018.8 |
| 20260507101230 | 1 | 253 | 14.5 | 19.3 | 0.00 | 0.36 | 0.00 | 92 | 1018.7 |
| 20260507101154 | 1 | 245 | 14.5 | 19.3 | 0.00 | 0.36 | 0.00 | 92 | 1018.7 |
| 20260507101027 | 1 | 250 | 14.5 | 19.3 | 0.00 | 0.36 | 0.00 | 92 | 1018.7 |
| 20260507100928 | 1 | 257 | 14.5 | 19.3 | 0.00 | 0.36 | 0.00 | 92 | 1018.7 |
| 20260507100826 | 1 | 250 | 14.5 | 19.3 | 0.00 | 0.36 | 0.00 | 92 | 1018.7 |
| 20260507100721 | 1 | 244 | 14.5 | 17.7 | 0.00 | 0.36 | 0.00 | 92 | 1018.7 |
| 20260507100619 | 1 | 242 | 14.5 | 17.7 | 0.00 | 0.36 | 0.00 | 92 | 1018.7 |
| 20260507100533 | 1 | 246 | 14.5 | 17.7 | 0.00 | 0.36 | 0.00 | 92 | 1018.7 |
| 20260507100429 | 1 | 245 | 14.5 | 17.7 | 0.00 | 0.36 | 0.00 | 92 | 1018.7 |
| 20260507100349 | 1 | 244 | 14.5 | 17.7 | 0.00 | 0.36 | 0.00 | 92 | 1018.7 |
| 20260507100231 | 1 | 244 | 14.5 | 17.7 | 0.00 | 0.36 | 0.00 | 92 | 1018.6 |
| 20260507100128 | 1 | 234 | 14.5 | 17.7 | 0.00 | 0.36 | 0.00 | 92 | 1018.7 |
| 20260507100020 | 1 | 259 | 14.5 | 17.7 | 0.00 | 0.36 | 0.00 | 92 | 1018.7 |
| 20260507095922 | 1 | 250 | 14.5 | 17.7 | 0.00 | 0.36 | 0.00 | 92 | 1018.7 |
| 20260507095819 | 1 | 244 | 14.5 | 17.7 | 0.00 | 0.36 | 0.00 | 92 | 1018.7 |
| 20260507095716 | 1 | 248 | 14.5 | 17.7 | 0.00 | 0.36 | 0.00 | 92 | 1018.7 |
| 20260507095633 | 1 | 239 | 14.5 | 19.3 | 0.00 | 0.36 | 0.00 | 93 | 1018.7 |
| 20260507095530 | 1 | 243 | 14.5 | 19.3 | 0.00 | 0.36 | 0.00 | 93 | 1018.7 |
| 20260507095430 | 1 | 248 | 14.5 | 19.3 | 0.00 | 0.36 | 0.00 | 93 | 1018.7 |
| 20260507095328 | 1 | 248 | 14.5 | 20.9 | 0.00 | 0.36 | 0.00 | 93 | 1018.7 |
| 20260507095224 | 1 | 250 | 14.5 | 20.9 | 0.00 | 0.36 | 0.00 | 93 | 1018.7 |
| 20260507095122 | 1 | 248 | 14.5 | 20.9 | 0.00 | 0.36 | 0.00 | 93 | 1018.6 |
| 20260507095015 | 1 | 253 | 14.5 | 20.9 | 0.00 | 0.36 | 0.00 | 93 | 1018.6 |
| 20260507094935 | 1 | 243 | 14.5 | 20.9 | 0.00 | 0.36 | 0.00 | 93 | 1018.7 |
| 20260507094818 | 1 | 232 | 14.5 | 20.9 | 0.00 | 0.36 | 0.00 | 93 | 1018.7 |
| 20260507094715 | 1 | 247 | 14.5 | 20.9 | 0.00 | 0.36 | 0.00 | 93 | 1018.7 |
| 20260507094638 | 1 | 234 | 14.5 | 20.9 | 0.00 | 0.36 | 0.00 | 93 | 1018.7 |
| 20260507094555 | 1 | 242 | 16.1 | 20.9 | 0.00 | 0.36 | 0.00 | 93 | 1018.7 |
| 20260507094509 | 1 | 248 | 16.1 | 20.9 | 0.00 | 0.36 | 0.00 | 93 | 1018.8 |
| 20260507094240 | 1 | 236 | 14.5 | 20.9 | 0.00 | 0.36 | 0.00 | 93 | 1018.7 |
| 20260507094116 | 1 | 244 | 14.5 | 20.9 | 0.00 | 0.36 | 0.00 | 93 | 1018.7 |
| 20260507094030 | 1 | 238 | 16.1 | 20.9 | 0.00 | 0.36 | 0.00 | 93 | 1018.8 |
| 20260507093946 | 1 | 231 | 16.1 | 20.9 | 0.00 | 0.36 | 0.00 | 93 | 1018.8 |
| 20260507093830 | 1 | 226 | 16.1 | 20.9 | 0.00 | 0.36 | 0.00 | 93 | 1018.9 |
| 20260507093729 | 1 | 229 | 16.1 | 20.9 | 0.00 | 0.36 | 0.00 | 93 | 1018.9 |
| 20260507093626 | 1 | 234 | 14.5 | 17.7 | 0.00 | 0.36 | 0.00 | 93 | 1018.9 |
| 20260507093522 | 1 | 231 | 12.9 | 17.7 | 0.00 | 0.36 | 0.00 | 93 | 1018.9 |
| 20260507093419 | 1 | 222 | 12.9 | 16.1 | 0.00 | 0.36 | 0.00 | 93 | 1019.0 |
| 20260507093319 | 1 | 239 | 12.9 | 16.1 | 0.00 | 0.36 | 0.00 | 93 | 1019.0 |
| 20260507093235 | 1 | 237 | 12.9 | 16.1 | 0.00 | 0.36 | 0.00 | 93 | 1019.0 |
| 20260507093119 | 1 | 217 | 12.9 | 16.1 | 0.00 | 0.36 | 0.00 | 93 | 1019.0 |
| 20260507093033 | 1 | 232 | 12.9 | 16.1 | 0.00 | 0.36 | 0.00 | 93 | 1019.1 |
| 20260507092930 | 1 | 227 | 12.9 | 16.1 | 0.00 | 0.36 | 0.00 | 93 | 1019.1 |
| 20260507092828 | 1 | 229 | 12.9 | 16.1 | 0.00 | 0.36 | 0.00 | 93 | 1019.1 |
| 20260507092734 | 1 | 234 | 12.9 | 16.1 | 0.00 | 0.36 | 0.00 | 93 | 1019.0 |
| 20260507092622 | 1 | 234 | 12.9 | 16.1 | 0.00 | 0.36 | 0.00 | 93 | 1019.1 |
| 20260507092535 | 1 | 234 | 12.9 | 16.1 | 0.00 | 0.36 | 0.00 | 93 | 1019.1 |
| 20260507092432 | 0 | 230 | 12.9 | 16.1 | 0.00 | 0.36 | 0.00 | 93 | 1019.1 |
| 20260507092334 | 0 | 234 | 12.9 | 16.1 | 0.00 | 0.36 | 0.00 | 93 | 1019.1 |
| 20260507092229 | 0 | 230 | 11.3 | 16.1 | 0.00 | 0.36 | 0.00 | 93 | 1019.2 |
| 20260507092129 | 0 | 234 | 11.3 | 16.1 | 0.00 | 0.36 | 0.00 | 93 | 1019.2 |
| 20260507092022 | 0 | 228 | 11.3 | 16.1 | 0.00 | 0.36 | 0.00 | 93 | 1019.2 |
| 20260507091918 | 0 | 228 | 11.3 | 16.1 | 0.00 | 0.36 | 0.00 | 93 | 1019.2 |
| 20260507091819 | 0 | 229 | 12.9 | 16.1 | 0.00 | 0.36 | 0.00 | 93 | 1019.2 |
| 20260507091716 | 0 | 229 | 12.9 | 14.5 | 0.00 | 0.36 | 0.00 | 92 | 1019.2 |
| 20260507091633 | 0 | 222 | 12.9 | 14.5 | 0.00 | 0.36 | 0.00 | 92 | 1019.2 |
| 20260507091530 | 0 | 230 | 12.9 | 14.5 | 0.00 | 0.36 | 0.00 | 92 | 1019.2 |
| 20260507091448 | 0 | 239 | 11.3 | 14.5 | 0.00 | 0.36 | 0.00 | 92 | 1019.2 |
| 20260507091325 | 0 | 232 | 11.3 | 14.5 | 0.00 | 0.36 | 0.00 | 92 | 1019.2 |
| 20260507091220 | 0 | 233 | 11.3 | 14.5 | 0.00 | 0.36 | 0.00 | 92 | 1019.3 |
| 20260507091137 | 0 | 238 | 11.3 | 14.5 | 0.00 | 0.36 | 0.00 | 92 | 1019.3 |
| 20260507091032 | 0 | 236 | 11.3 | 14.5 | 0.00 | 0.36 | 0.00 | 92 | 1019.3 |
| 20260507090930 | 0 | 235 | 11.3 | 14.5 | 0.00 | 0.36 | 0.00 | 92 | 1019.3 |
| 20260507090828 | 0 | 239 | 11.3 | 14.5 | 0.00 | 0.36 | 0.00 | 92 | 1019.4 |
| 20260507090728 | 0 | 233 | 11.3 | 14.5 | 0.00 | 0.36 | 0.00 | 92 | 1019.3 |
| 20260507090653 | 0 | 234 | 11.3 | 14.5 | 0.00 | 0.36 | 0.00 | 92 | 1019.3 |
| 20260507090529 | 0 | 236 | 11.3 | 14.5 | 0.00 | 0.36 | 0.00 | 92 | 1019.4 |
| 20260507090433 | 0 | 241 | 11.3 | 14.5 | 0.00 | 0.36 | 0.00 | 92 | 1019.3 |
| 20260507090331 | 0 | 246 | 11.3 | 14.5 | 0.00 | 0.36 | 0.00 | 92 | 1019.3 |
| 20260507090228 | 0 | 241 | 11.3 | 14.5 | 0.00 | 0.36 | 0.00 | 92 | 1019.3 |
| 20260507090128 | 0 | 240 | 11.3 | 14.5 | 0.00 | 0.36 | 0.00 | 92 | 1019.3 |
| 20260507090022 | 0 | 234 | 11.3 | 14.5 | 0.00 | 0.36 | 0.00 | 92 | 1019.3 |
| 20260507085923 | 0 | 228 | 11.3 | 14.5 | 0.00 | 0.36 | 0.00 | 92 | 1019.3 |
| 20260507085823 | 0 | 240 | 11.3 | 14.5 | 0.00 | 0.36 | 0.00 | 93 | 1019.3 |
| 20260507085738 | 0 | 238 | 11.3 | 14.5 | 0.00 | 0.36 | 0.00 | 92 | 1019.3 |
| 20260507085656 | 0 | 238 | 11.3 | 14.5 | 0.00 | 0.36 | 0.00 | 92 | 1019.3 |
| 20260507085554 | 0 | 234 | 11.3 | 14.5 | 0.00 | 0.36 | 0.00 | 92 | 1019.3 |
| 20260507085447 | 0 | 246 | 11.3 | 14.5 | 0.00 | 0.36 | 0.00 | 92 | 1019.3 |
| 20260507085408 | 0 | 232 | 11.3 | 14.5 | 0.00 | 0.36 | 0.00 | 92 | 1019.3 |
| 20260507085306 | 0 | 243 | 11.3 | 14.5 | 0.00 | 0.36 | 0.00 | 92 | 1019.3 |
| 20260507085159 | 0 | 243 | 11.3 | 12.9 | 0.00 | 0.36 | 0.00 | 92 | 1019.4 |
| 20260507085055 | 0 | 236 | 11.3 | 12.9 | 0.00 | 0.36 | 0.00 | 92 | 1019.4 |
| 20260507084931 | 0 | 242 | 11.3 | 12.9 | 0.00 | 0.36 | 0.00 | 92 | 1019.5 |
| 20260507084851 | 0 | 242 | 11.3 | 12.9 | 0.00 | 0.36 | 0.00 | 92 | 1019.5 |
| 20260507084750 | 0 | 244 | 11.3 | 12.9 | 0.00 | 0.36 | 0.00 | 92 | 1019.5 |
| 20260507084707 | 0 | 243 | 11.3 | 12.9 | 0.00 | 0.36 | 0.00 | 92 | 1019.5 |
| 20260507084603 | 0 | 240 | 11.3 | 12.9 | 0.00 | 0.36 | 0.00 | 92 | 1019.6 |
| 20260507084438 | 0 | 238 | 11.3 | 12.9 | 0.00 | 0.36 | 0.00 | 92 | 1019.6 |
| 20260507084336 | 0 | 254 | 11.3 | 12.9 | 0.00 | 0.36 | 0.00 | 92 | 1019.6 |
| 20260507084233 | 0 | 243 | 11.3 | 12.9 | 0.00 | 0.36 | 0.00 | 92 | 1019.6 |
| 20260507084130 | 0 | 239 | 9.7 | 12.9 | 0.00 | 0.36 | 0.00 | 92 | 1019.6 |
| 20260507084024 | 0 | 240 | 9.7 | 12.9 | 0.00 | 0.36 | 0.00 | 92 | 1019.6 |
| 20260507083922 | 0 | 244 | 9.7 | 12.9 | 0.00 | 0.36 | 0.00 | 92 | 1019.7 |
| 20260507083826 | 0 | 246 | 9.7 | 12.9 | 0.00 | 0.36 | 0.00 | 92 | 1019.7 |
| 20260507083743 | 0 | 240 | 9.7 | 12.9 | 0.00 | 0.36 | 0.00 | 92 | 1019.7 |
| 20260507083639 | 0 | 243 | 9.7 | 12.9 | 0.00 | 0.36 | 0.00 | 92 | 1019.7 |
| 20260507083531 | 0 | 247 | 11.3 | 12.9 | 0.00 | 0.36 | 0.00 | 92 | 1019.7 |
| 20260507083432 | 0 | 244 | 11.3 | 12.9 | 0.00 | 0.36 | 0.00 | 92 | 1019.7 |
| 20260507083331 | 0 | 249 | 9.7 | 12.9 | 0.00 | 0.36 | 0.00 | 92 | 1019.7 |
| 20260507083227 | 0 | 243 | 11.3 | 12.9 | 0.00 | 0.36 | 0.00 | 92 | 1019.7 |
| 20260507083127 | 0 | 240 | 11.3 | 12.9 | 0.00 | 0.36 | 0.00 | 92 | 1019.7 |
| 20260507083025 | 0 | 240 | 11.3 | 12.9 | 0.00 | 0.36 | 0.00 | 92 | 1019.8 |
| 20260507082921 | 0 | 238 | 11.3 | 12.9 | 0.00 | 0.36 | 0.00 | 92 | 1019.8 |
| 20260507082821 | 0 | 240 | 11.3 | 12.9 | 0.00 | 0.36 | 0.00 | 92 | 1019.8 |
| 20260507082720 | 0 | 240 | 9.7 | 12.9 | 0.00 | 0.36 | 0.00 | 92 | 1019.8 |
| 20260507082617 | 0 | 236 | 9.7 | 12.9 | 0.00 | 0.36 | 0.00 | 92 | 1019.8 |
| 20260507082534 | 0 | 243 | 9.7 | 12.9 | 0.00 | 0.36 | 0.00 | 92 | 1019.8 |
| 20260507082431 | 0 | 242 | 9.7 | 12.9 | 0.00 | 0.36 | 0.00 | 92 | 1019.8 |
| 20260507082332 | 0 | 237 | 9.7 | 12.9 | 0.00 | 0.36 | 0.00 | 92 | 1019.8 |
| 20260507082228 | 0 | 238 | 9.7 | 12.9 | 0.00 | 0.36 | 0.00 | 92 | 1019.8 |
| 20260507082132 | 0 | 241 | 9.7 | 12.9 | 0.00 | 0.36 | 0.00 | 92 | 1019.9 |
| 20260507082029 | 0 | 238 | 9.7 | 12.9 | 0.00 | 0.36 | 0.00 | 92 | 1019.9 |
| 20260507081926 | 0 | 238 | 9.7 | 12.9 | 0.00 | 0.36 | 0.00 | 92 | 1019.9 |
| 20260507081826 | 0 | 240 | 9.7 | 12.9 | 0.00 | 0.36 | 0.00 | 92 | 1019.9 |
| 20260507081725 | 0 | 238 | 11.3 | 12.9 | 0.00 | 0.36 | 0.00 | 92 | 1019.9 |
| 20260507081622 | 0 | 241 | 9.7 | 12.9 | 0.00 | 0.36 | 0.00 | 92 | 1019.9 |
| 20260507081520 | 0 | 243 | 11.3 | 12.9 | 0.00 | 0.36 | 0.00 | 92 | 1019.9 |
| 20260507081437 | 0 | 243 | 11.3 | 12.9 | 0.00 | 0.36 | 0.00 | 92 | 1019.9 |
| 20260507081335 | 0 | 236 | 11.3 | 12.9 | 0.00 | 0.36 | 0.00 | 92 | 1019.9 |
| 20260507081232 | 0 | 244 | 9.7 | 12.9 | 0.00 | 0.36 | 0.00 | 92 | 1019.9 |
| 20260507081132 | 0 | 238 | 9.7 | 11.3 | 0.00 | 0.36 | 0.00 | 92 | 1020.0 |
| 20260507081029 | 0 | 239 | 9.7 | 11.3 | 0.00 | 0.36 | 0.00 | 92 | 1019.9 |
| 20260507080926 | 0 | 241 | 9.7 | 11.3 | 0.00 | 0.36 | 0.00 | 92 | 1020.0 |
| 20260507080831 | 0 | 243 | 9.7 | 11.3 | 0.00 | 0.36 | 0.00 | 91 | 1020.0 |
| 20260507080733 | 0 | 243 | 9.7 | 11.3 | 0.00 | 0.36 | 0.00 | 91 | 1020.1 |
| 20260507080630 | 0 | 243 | 9.7 | 11.3 | 0.00 | 0.36 | 0.00 | 91 | 1020.1 |
| 20260507080544 | 0 | 244 | 9.7 | 11.3 | 0.00 | 0.36 | 0.00 | 91 | 1020.1 |
| 20260507080442 | 0 | 244 | 9.7 | 11.3 | 0.00 | 0.36 | 0.00 | 91 | 1020.1 |
| 20260507080320 | 0 | 250 | 9.7 | 11.3 | 0.00 | 0.36 | 0.00 | 91 | 1020.1 |
| 20260507080217 | 0 | 246 | 8.0 | 11.3 | 0.00 | 0.36 | 0.00 | 91 | 1020.2 |
| 20260507080120 | 0 | 248 | 9.7 | 11.3 | 0.00 | 0.36 | 0.00 | 91 | 1020.1 |
| 20260507080014 | 0 | 248 | 9.7 | 11.3 | 0.00 | 0.36 | 0.00 | 91 | 1020.1 |
| 20260507075938 | 0 | 245 | 8.0 | 11.3 | 0.00 | 0.36 | 0.00 | 91 | 1020.1 |
| 20260507075836 | 0 | 246 | 8.0 | 11.3 | 0.00 | 0.36 | 0.00 | 92 | 1020.2 |
| 20260507075733 | 0 | 245 | 8.0 | 11.3 | 0.00 | 0.36 | 0.00 | 92 | 1020.1 |
| 20260507075629 | 0 | 248 | 9.7 | 11.3 | 0.00 | 0.36 | 0.00 | 92 | 1020.2 |
| 20260507075523 | 0 | 244 | 9.7 | 11.3 | 0.00 | 0.36 | 0.00 | 92 | 1020.2 |
| 20260507075425 | 0 | 247 | 9.7 | 11.3 | 0.00 | 0.36 | 0.00 | 92 | 1020.2 |
| 20260507075344 | 0 | 244 | 9.7 | 11.3 | 0.00 | 0.36 | 0.00 | 92 | 1020.2 |
| 20260507075222 | 0 | 239 | 9.7 | 11.3 | 0.00 | 0.36 | 0.00 | 92 | 1020.2 |
| 20260507075139 | 0 | 240 | 9.7 | 11.3 | 0.00 | 0.36 | 0.00 | 92 | 1020.2 |
| 20260507075031 | 0 | 242 | 9.7 | 11.3 | 0.00 | 0.36 | 0.00 | 92 | 1020.2 |
| 20260507074935 | 0 | 242 | 9.7 | 11.3 | 0.00 | 0.36 | 0.00 | 92 | 1020.3 |
| 20260507074834 | 0 | 241 | 9.7 | 11.3 | 0.00 | 0.36 | 0.00 | 92 | 1020.3 |
| 20260507074731 | 0 | 246 | 9.7 | 11.3 | 0.00 | 0.36 | 0.00 | 92 | 1020.3 |
| 20260507074648 | 0 | 244 | 9.7 | 11.3 | 0.00 | 0.36 | 0.00 | 91 | 1020.4 |
| 20260507074520 | 0 | 247 | 9.7 | 11.3 | 0.00 | 0.36 | 0.00 | 91 | 1020.4 |
| 20260507074437 | 0 | 248 | 9.7 | 11.3 | 0.00 | 0.36 | 0.00 | 91 | 1020.3 |
| 20260507074334 | 0 | 248 | 9.7 | 11.3 | 0.00 | 0.36 | 0.00 | 91 | 1020.4 |
| 20260507074230 | 0 | 257 | 9.7 | 11.3 | 0.00 | 0.36 | 0.00 | 91 | 1020.4 |
| 20260507074126 | 0 | 246 | 9.7 | 11.3 | 0.00 | 0.36 | 0.00 | 91 | 1020.4 |
| 20260507074027 | 0 | 252 | 8.0 | 11.3 | 0.00 | 0.36 | 0.00 | 91 | 1020.5 |
| 20260507073923 | 0 | 255 | 8.0 | 11.3 | 0.00 | 0.36 | 0.00 | 91 | 1020.5 |
| 20260507073841 | 0 | 256 | 8.0 | 11.3 | 0.00 | 0.36 | 0.00 | 91 | 1020.5 |
| 20260507073716 | 0 | 246 | 8.0 | 11.3 | 0.00 | 0.36 | 0.00 | 91 | 1020.5 |
| 20260507073633 | 0 | 240 | 8.0 | 11.3 | 0.00 | 0.36 | 0.00 | 91 | 1020.4 |
| 20260507073527 | 1 | 238 | 8.0 | 11.3 | 0.00 | 0.36 | 0.00 | 91 | 1020.5 |
| 20260507073424 | 1 | 237 | 9.7 | 11.3 | 0.00 | 0.36 | 0.00 | 91 | 1020.5 |
| 20260507073324 | 0 | 234 | 9.7 | 11.3 | 0.00 | 0.36 | 0.00 | 91 | 1020.4 |
| 20260507073224 | 0 | 234 | 9.7 | 11.3 | 0.00 | 0.36 | 0.00 | 91 | 1020.4 |
| 20260507073120 | 0 | 229 | 9.7 | 11.3 | 0.00 | 0.36 | 0.00 | 91 | 1020.5 |
| 20260507073033 | 0 | 232 | 9.7 | 11.3 | 0.00 | 0.36 | 0.00 | 92 | 1020.5 |
| 20260507072951 | 0 | 227 | 11.3 | 11.3 | 0.00 | 0.36 | 0.00 | 92 | 1020.5 |
| 20260507072828 | 0 | 231 | 9.7 | 11.3 | 0.00 | 0.36 | 0.00 | 91 | 1020.5 |
| 20260507072744 | 0 | 227 | 9.7 | 11.3 | 0.00 | 0.36 | 0.00 | 91 | 1020.5 |
| 20260507072621 | 0 | 232 | 9.7 | 11.3 | 0.00 | 0.36 | 0.00 | 91 | 1020.5 |
| 20260507072534 | 0 | 224 | 9.7 | 11.3 | 0.00 | 0.36 | 0.00 | 91 | 1020.6 |
| 20260507072431 | 0 | 223 | 9.7 | 11.3 | 0.00 | 0.36 | 0.00 | 91 | 1020.6 |
| 20260507072332 | 0 | 229 | 9.7 | 11.3 | 0.00 | 0.36 | 0.00 | 91 | 1020.6 |
| 20260507072231 | 0 | 360 | 8.0 | 11.3 | 0.00 | 0.36 | 0.00 | 91 | 1020.6 |
| 20260507072128 | 0 | 228 | 9.7 | 11.3 | 0.00 | 0.36 | 0.00 | 91 | 1020.6 |
| 20260507072022 | 0 | 360 | 9.7 | 9.7 | 0.00 | 0.36 | 0.00 | 91 | 1020.6 |
| 20260507071920 | 0 | 360 | 9.7 | 9.7 | 0.00 | 0.36 | 0.00 | 90 | 1020.6 |
| 20260507071837 | 0 | 360 | 9.7 | 9.7 | 0.00 | 0.36 | 0.00 | 90 | 1020.6 |
| 20260507071735 | 0 | 360 | 9.7 | 9.7 | 0.00 | 0.36 | 0.00 | 90 | 1020.6 |
| 20260507071635 | 0 | 360 | 8.0 | 9.7 | 0.00 | 0.36 | 0.00 | 91 | 1020.6 |
| 20260507071551 | 0 | 360 | 8.0 | 9.7 | 0.00 | 0.36 | 0.00 | 91 | 1020.6 |
| 20260507071427 | 0 | 360 | 8.0 | 9.7 | 0.00 | 0.36 | 0.00 | 91 | 1020.6 |
| 20260507071328 | 0 | 360 | 6.4 | 8.0 | 0.00 | 0.36 | 0.00 | 91 | 1020.7 |
| 20260507071226 | 0 | 360 | 6.4 | 8.0 | 0.00 | 0.36 | 0.00 | 91 | 1020.7 |
| 20260507071143 | 0 | 360 | 6.4 | 8.0 | 0.00 | 0.36 | 0.00 | 91 | 1020.7 |
| 20260507071039 | 0 | 360 | 6.4 | 8.0 | 0.00 | 0.36 | 0.00 | 91 | 1020.8 |
| 20260507070935 | 0 | 360 | 6.4 | 8.0 | 0.00 | 0.36 | 0.00 | 91 | 1020.7 |
| 20260507070836 | 1 | 360 | 6.4 | 8.0 | 0.00 | 0.36 | 0.00 | 91 | 1020.8 |
| 20260507070733 | 1 | 360 | 6.4 | 8.0 | 0.00 | 0.36 | 0.00 | 91 | 1020.8 |
| 20260507070635 | 1 | 360 | 6.4 | 8.0 | 0.00 | 0.36 | 0.00 | 91 | 1020.8 |
| 20260507070530 | 1 | 360 | 8.0 | 8.0 | 0.00 | 0.36 | 0.00 | 91 | 1020.8 |
| 20260507070428 | 1 | 360 | 6.4 | 8.0 | 0.00 | 0.36 | 0.00 | 91 | 1020.8 |
| 20260507070330 | 1 | 360 | 6.4 | 8.0 | 0.00 | 0.36 | 0.00 | 91 | 1020.8 |
| 20260507070247 | 1 | 360 | 6.4 | 8.0 | 0.00 | 0.36 | 0.00 | 91 | 1020.8 |
| 20260507070122 | 1 | 360 | 6.4 | 8.0 | 0.00 | 0.36 | 0.00 | 91 | 1020.8 |
| 20260507070035 | 1 | 220 | 6.4 | 8.0 | 0.00 | 0.36 | 0.00 | 91 | 1020.8 |
| 20260507065932 | 1 | 220 | 6.4 | 6.4 | 0.00 | 0.36 | 0.00 | 91 | 1020.8 |
| 20260507065834 | 1 | 360 | 6.4 | 6.4 | 0.00 | 0.36 | 0.00 | 91 | 1020.8 |
| 20260507065733 | 1 | 220 | 6.4 | 6.4 | 0.00 | 0.36 | 0.00 | 91 | 1020.8 |
| 20260507065630 | 1 | 360 | 6.4 | 6.4 | 0.00 | 0.36 | 0.00 | 91 | 1020.8 |
| 20260507065527 | 1 | 360 | 6.4 | 8.0 | 0.00 | 0.36 | 0.00 | 91 | 1020.8 |
| 20260507065425 | 1 | 360 | 4.8 | 8.0 | 0.00 | 0.36 | 0.00 | 90 | 1020.8 |
| 20260507065324 | 1 | 360 | 6.4 | 8.0 | 0.00 | 0.36 | 0.00 | 90 | 1020.9 |
| 20260507065220 | 1 | 221 | 6.4 | 8.0 | 0.00 | 0.36 | 0.00 | 90 | 1020.9 |
| 20260507065140 | 1 | 221 | 6.4 | 8.0 | 0.00 | 0.36 | 0.00 | 90 | 1020.9 |
| 20260507065054 | 1 | 221 | 6.4 | 8.0 | 0.00 | 0.36 | 0.00 | 90 | 1020.9 |
| 20260507064929 | 1 | 221 | 6.4 | 8.0 | 0.00 | 0.36 | 0.00 | 90 | 1021.0 |
| 20260507064830 | 1 | 221 | 6.4 | 8.0 | 0.00 | 0.36 | 0.00 | 90 | 1021.0 |
| 20260507064730 | 1 | 221 | 6.4 | 8.0 | 0.00 | 0.36 | 0.00 | 90 | 1021.0 |
| 20260507064627 | 1 | 221 | 6.4 | 9.7 | 0.00 | 0.36 | 0.00 | 90 | 1021.0 |
| 20260507064521 | 1 | 221 | 6.4 | 9.7 | 0.00 | 0.36 | 0.00 | 90 | 1021.0 |
| 20260507064418 | 1 | 221 | 8.0 | 9.7 | 0.00 | 0.36 | 0.00 | 90 | 1021.0 |
| 20260507064319 | 1 | 221 | 8.0 | 9.7 | 0.00 | 0.36 | 0.00 | 90 | 1020.9 |
| 20260507064219 | 1 | 221 | 8.0 | 9.7 | 0.00 | 0.36 | 0.00 | 90 | 1020.9 |
| 20260507064136 | 1 | 221 | 8.0 | 9.7 | 0.00 | 0.36 | 0.00 | 90 | 1021.0 |
| 20260507064052 | 1 | 221 | 8.0 | 9.7 | 0.00 | 0.36 | 0.00 | 90 | 1020.9 |
| 20260507063931 | 1 | 221 | 8.0 | 9.7 | 0.00 | 0.36 | 0.00 | 90 | 1020.9 |
| 20260507063829 | 1 | 221 | 8.0 | 9.7 | 0.00 | 0.36 | 0.00 | 90 | 1020.9 |
| 20260507063725 | 1 | 221 | 6.4 | 9.7 | 0.00 | 0.36 | 0.00 | 90 | 1020.9 |
| 20260507063642 | 1 | 221 | 6.4 | 9.7 | 0.00 | 0.36 | 0.00 | 90 | 1020.9 |
| 20260507063535 | 1 | 221 | 6.4 | 8.0 | 0.00 | 0.36 | 0.00 | 90 | 1020.9 |
| 20260507063434 | 1 | 221 | 6.4 | 8.0 | 0.00 | 0.36 | 0.00 | 90 | 1020.9 |
| 20260507063332 | 1 | 221 | 6.4 | 8.0 | 0.00 | 0.36 | 0.00 | 90 | 1020.9 |
| 20260507063230 | 1 | 221 | 6.4 | 8.0 | 0.00 | 0.36 | 0.00 | 90 | 1020.9 |
| 20260507063131 | 1 | 221 | 6.4 | 8.0 | 0.00 | 0.36 | 0.00 | 90 | 1020.9 |
| 20260507063025 | 1 | 221 | 6.4 | 8.0 | 0.00 | 0.36 | 0.00 | 90 | 1020.9 |
| 20260507062922 | 1 | 221 | 6.4 | 8.0 | 0.00 | 0.36 | 0.00 | 90 | 1020.9 |
| 20260507062824 | 1 | 221 | 6.4 | 8.0 | 0.00 | 0.36 | 0.00 | 90 | 1021.0 |
| 20260507062722 | 1 | 221 | 6.4 | 8.0 | 0.00 | 0.36 | 0.00 | 90 | 1021.0 |
| 20260507062620 | 1 | 221 | 6.4 | 8.0 | 0.00 | 0.36 | 0.00 | 90 | 1021.0 |
| 20260507062535 | 1 | 221 | 6.4 | 8.0 | 0.00 | 0.36 | 0.00 | 90 | 1021.1 |
| 20260507062416 | 1 | 221 | 6.4 | 9.7 | 0.00 | 0.36 | 0.00 | 89 | 1021.0 |
| 20260507062339 | 1 | 221 | 4.8 | 9.7 | 0.00 | 0.36 | 0.00 | 90 | 1021.0 |
| 20260507062234 | 1 | 221 | 4.8 | 9.7 | 0.00 | 0.36 | 0.00 | 90 | 1021.0 |
| 20260507062151 | 1 | 221 | 4.8 | 9.7 | 0.00 | 0.36 | 0.00 | 89 | 1021.1 |
| 20260507062023 | 1 | 221 | 4.8 | 9.7 | 0.00 | 0.36 | 0.00 | 89 | 1021.1 |
| 20260507061920 | 1 | 221 | 6.4 | 9.7 | 0.00 | 0.36 | 0.00 | 89 | 1021.0 |
| 20260507061817 | 1 | 221 | 6.4 | 9.7 | 0.00 | 0.36 | 0.00 | 89 | 1021.1 |
| 20260507061733 | 1 | 214 | 8.0 | 9.7 | 0.00 | 0.36 | 0.00 | 89 | 1021.0 |
| 20260507061630 | 1 | 214 | 8.0 | 9.7 | 0.00 | 0.36 | 0.00 | 90 | 1021.0 |
| 20260507061531 | 1 | 214 | 8.0 | 9.7 | 0.00 | 0.36 | 0.00 | 90 | 1021.0 |
| 20260507061428 | 1 | 214 | 9.7 | 9.7 | 0.00 | 0.36 | 0.00 | 90 | 1020.9 |
| 20260507061326 | 1 | 214 | 9.7 | 9.7 | 0.00 | 0.36 | 0.00 | 90 | 1021.0 |
| 20260507061223 | 1 | 213 | 9.7 | 9.7 | 0.00 | 0.36 | 0.36 | 90 | 1021.0 |
| 20260507061141 | 1 | 213 | 8.0 | 9.7 | 0.00 | 0.36 | 0.36 | 90 | 1021.0 |
| 20260507061017 | 1 | 212 | 8.0 | 9.7 | 0.00 | 0.36 | 0.36 | 89 | 1021.0 |
| 20260507060935 | 1 | 212 | 8.0 | 9.7 | 0.00 | 0.36 | 0.36 | 89 | 1021.0 |
| 20260507060817 | 2 | 212 | 8.0 | 9.7 | 0.00 | 0.36 | 0.36 | 89 | 1021.0 |
| 20260507060717 | 2 | 215 | 8.0 | 9.7 | 0.00 | 0.36 | 0.36 | 89 | 1021.0 |
| 20260507060619 | 2 | 215 | 8.0 | 9.7 | 0.00 | 0.36 | 0.36 | 89 | 1020.9 |
| 20260507060532 | 2 | 215 | 8.0 | 9.7 | 0.00 | 0.36 | 0.36 | 90 | 1021.0 |
| 20260507060429 | 2 | 215 | 8.0 | 9.7 | 0.00 | 0.36 | 0.36 | 90 | 1021.0 |
| 20260507060327 | 2 | 215 | 8.0 | 9.7 | 0.00 | 0.36 | 0.36 | 90 | 1021.0 |
| 20260507060223 | 2 | 215 | 8.0 | 9.7 | 0.00 | 0.36 | 0.36 | 89 | 1020.9 |
| 20260507060123 | 2 | 209 | 8.0 | 9.7 | 0.00 | 0.36 | 0.36 | 89 | 1021.0 |
| 20260507060036 | 2 | 211 | 8.0 | 9.7 | 0.00 | 0.36 | 0.36 | 89 | 1021.0 |
| 20260507055927 | 2 | 211 | 8.0 | 9.7 | 0.00 | 0.36 | 0.36 | 89 | 1021.1 |
| 20260507055827 | 2 | 211 | 8.0 | 9.7 | 0.00 | 0.36 | 0.36 | 89 | 1021.1 |
| 20260507055724 | 2 | 213 | 8.0 | 9.7 | 0.00 | 0.36 | 0.36 | 89 | 1021.1 |
| 20260507055624 | 2 | 217 | 8.0 | 9.7 | 0.00 | 0.36 | 0.36 | 89 | 1021.0 |
| 20260507055517 | 2 | 217 | 8.0 | 9.7 | 0.00 | 0.36 | 0.36 | 89 | 1021.0 |
| 20260507055434 | 2 | 217 | 8.0 | 9.7 | 0.00 | 0.36 | 0.36 | 89 | 1021.1 |
| 20260507055316 | 2 | 217 | 8.0 | 9.7 | 0.00 | 0.36 | 0.36 | 89 | 1021.1 |
| 20260507055232 | 2 | 217 | 8.0 | 9.7 | 0.00 | 0.36 | 0.36 | 89 | 1021.1 |
| 20260507055132 | 2 | 217 | 8.0 | 9.7 | 0.00 | 0.36 | 0.36 | 89 | 1021.1 |
| 20260507055026 | 2 | 217 | 8.0 | 9.7 | 0.00 | 0.36 | 0.36 | 89 | 1021.1 |
| 20260507054923 | 2 | 217 | 8.0 | 9.7 | 0.00 | 0.36 | 0.36 | 89 | 1021.0 |
| 20260507054822 | 2 | 217 | 8.0 | 9.7 | 0.00 | 0.36 | 0.36 | 89 | 1020.9 |
| 20260507054719 | 2 | 217 | 8.0 | 9.7 | 0.00 | 0.36 | 0.36 | 89 | 1021.0 |
| 20260507054638 | 2 | 217 | 8.0 | 9.7 | 0.00 | 0.36 | 0.36 | 89 | 1021.0 |
| 20260507054552 | 2 | 217 | 8.0 | 9.7 | 0.00 | 0.36 | 0.36 | 89 | 1020.9 |
| 20260507054435 | 2 | 217 | 8.0 | 9.7 | 0.00 | 0.36 | 0.36 | 89 | 1021.0 |
| 20260507054334 | 2 | 217 | 8.0 | 9.7 | 0.00 | 0.36 | 0.36 | 89 | 1021.0 |
| 20260507054231 | 2 | 217 | 8.0 | 8.0 | 0.00 | 0.36 | 0.36 | 89 | 1021.0 |
| 20260507054128 | 2 | 225 | 6.4 | 8.0 | 0.00 | 0.36 | 0.36 | 89 | 1021.1 |
| 20260507054021 | 2 | 229 | 6.4 | 8.0 | 0.00 | 0.36 | 0.36 | 89 | 1021.0 |
| 20260507053921 | 2 | 236 | 6.4 | 8.0 | 0.00 | 0.36 | 0.36 | 89 | 1021.0 |
| 20260507053823 | 2 | 236 | 6.4 | 8.0 | 0.00 | 0.36 | 0.36 | 89 | 1021.0 |
| 20260507053719 | 2 | 236 | 4.8 | 9.7 | 0.00 | 0.36 | 0.36 | 89 | 1021.0 |
| 20260507053634 | 2 | 236 | 4.8 | 9.7 | 0.00 | 0.36 | 0.36 | 89 | 1021.0 |
| 20260507053550 | 3 | 236 | 4.8 | 9.7 | 0.00 | 0.36 | 0.36 | 89 | 1021.0 |
| 20260507053430 | 3 | 236 | 4.8 | 9.7 | 0.00 | 0.36 | 0.36 | 89 | 1021.0 |
| 20260507053331 | 3 | 236 | 6.4 | 9.7 | 0.00 | 0.36 | 0.36 | 89 | 1021.1 |
| 20260507053227 | 3 | 236 | 6.4 | 9.7 | 0.00 | 0.36 | 0.36 | 88 | 1021.0 |
| 20260507053124 | 3 | 236 | 6.4 | 9.7 | 0.00 | 0.36 | 0.36 | 88 | 1021.0 |
| 20260507053018 | 3 | 236 | 6.4 | 9.7 | 0.00 | 0.36 | 0.36 | 88 | 1021.0 |
| 20260507052939 | 3 | 242 | 6.4 | 9.7 | 0.00 | 0.36 | 0.36 | 88 | 1021.0 |
| 20260507052817 | 3 | 242 | 8.0 | 9.7 | 0.00 | 0.36 | 0.36 | 88 | 1021.0 |
| 20260507052734 | 3 | 242 | 8.0 | 9.7 | 0.00 | 0.36 | 0.36 | 88 | 1021.1 |
| 20260507052634 | 3 | 242 | 8.0 | 9.7 | 0.00 | 0.36 | 0.36 | 88 | 1021.0 |
| 20260507052548 | 3 | 242 | 8.0 | 9.7 | 0.00 | 0.36 | 0.36 | 88 | 1021.0 |
| 20260507052425 | 3 | 240 | 6.4 | 11.3 | 0.00 | 0.36 | 0.36 | 88 | 1021.0 |
| 20260507052324 | 3 | 240 | 6.4 | 11.3 | 0.00 | 0.36 | 0.36 | 89 | 1021.0 |
| 20260507052221 | 3 | 240 | 8.0 | 11.3 | 0.00 | 0.36 | 0.36 | 89 | 1021.0 |
| 20260507052125 | 3 | 246 | 8.0 | 11.3 | 0.00 | 0.36 | 0.36 | 89 | 1021.1 |
| 20260507052019 | 3 | 245 | 6.4 | 11.3 | 0.00 | 0.36 | 0.36 | 89 | 1021.0 |
| 20260507051917 | 4 | 242 | 6.4 | 11.3 | 0.00 | 0.36 | 0.36 | 89 | 1020.9 |
| 20260507051835 | 4 | 242 | 6.4 | 11.3 | 0.00 | 0.36 | 0.36 | 89 | 1020.9 |
| 20260507051754 | 4 | 242 | 8.0 | 14.5 | 0.00 | 0.36 | 0.36 | 89 | 1021.0 |
| 20260507051653 | 4 | 242 | 8.0 | 14.5 | 0.00 | 0.36 | 0.36 | 89 | 1021.0 |
| 20260507051526 | 4 | 246 | 9.7 | 14.5 | 0.00 | 0.36 | 0.36 | 89 | 1021.1 |
| 20260507051426 | 4 | 246 | 9.7 | 14.5 | 0.00 | 0.36 | 0.36 | 89 | 1021.1 |
| 20260507051347 | 4 | 252 | 9.7 | 14.5 | 0.00 | 0.36 | 0.36 | 89 | 1021.1 |
| 20260507051247 | 4 | 249 | 9.7 | 16.1 | 0.00 | 0.36 | 0.36 | 89 | 1021.1 |
| 20260507051123 | 5 | 245 | 9.7 | 16.1 | 0.00 | 0.36 | 0.36 | 89 | 1021.1 |
| 20260507051036 | 5 | 247 | 9.7 | 16.1 | 0.00 | 0.36 | 0.36 | 89 | 1021.1 |
| 20260507050933 | 5 | 240 | 9.7 | 16.1 | 0.00 | 0.36 | 0.36 | 90 | 1021.1 |
| 20260507050832 | 5 | 229 | 9.7 | 16.1 | 0.00 | 0.36 | 0.36 | 90 | 1021.2 |
| 20260507050729 | 5 | 234 | 9.7 | 16.1 | 0.00 | 0.36 | 0.36 | 90 | 1021.2 |
| 20260507050627 | 5 | 250 | 9.7 | 16.1 | 0.00 | 0.36 | 0.36 | 90 | 1021.2 |
| 20260507050521 | 5 | 241 | 11.3 | 16.1 | 0.00 | 0.36 | 0.36 | 90 | 1021.2 |
| 20260507050421 | 5 | 252 | 11.3 | 16.1 | 0.00 | 0.36 | 0.36 | 90 | 1021.2 |
| 20260507050339 | 5 | 245 | 11.3 | 16.1 | 0.00 | 0.36 | 0.36 | 90 | 1021.2 |
| 20260507050238 | 5 | 250 | 9.7 | 14.5 | 0.00 | 0.36 | 0.36 | 90 | 1021.2 |
| 20260507050134 | 5 | 259 | 8.0 | 11.3 | 0.00 | 0.36 | 0.36 | 90 | 1021.2 |
| 20260507050028 | 5 | 271 | 9.7 | 11.3 | 0.00 | 0.36 | 0.36 | 91 | 1021.3 |
| 20260507045928 | 5 | 273 | 9.7 | 11.3 | 0.00 | 0.36 | 0.36 | 91 | 1021.3 |
| 20260507045851 | 5 | 274 | 9.7 | 11.3 | 0.00 | 0.36 | 0.36 | 91 | 1021.3 |
| 20260507045729 | 5 | 283 | 8.0 | 11.3 | 0.00 | 0.36 | 0.36 | 91 | 1021.4 |
| 20260507045633 | 5 | 277 | 6.4 | 11.3 | 0.00 | 0.36 | 0.36 | 91 | 1021.4 |
| 20260507045547 | 5 | 281 | 6.4 | 11.3 | 0.00 | 0.36 | 0.36 | 91 | 1021.4 |
| 20260507045427 | 5 | 288 | 8.0 | 11.3 | 0.00 | 0.36 | 0.36 | 91 | 1021.4 |
| 20260507045345 | 5 | 293 | 8.0 | 11.3 | 0.00 | 0.36 | 0.36 | 91 | 1021.4 |
| 20260507045247 | 5 | 294 | 8.0 | 11.3 | 0.00 | 0.36 | 0.36 | 91 | 1021.4 |
| 20260507045144 | 5 | 289 | 9.7 | 11.3 | 0.00 | 0.36 | 0.36 | 91 | 1021.4 |
| 20260507045046 | 5 | 291 | 9.7 | 11.3 | 0.00 | 0.36 | 0.36 | 91 | 1021.5 |
| 20260507045000 | 5 | 292 | 6.4 | 11.3 | 0.00 | 0.36 | 0.36 | 91 | 1021.4 |
| 20260507044836 | 5 | 275 | 4.8 | 8.0 | 0.00 | 0.36 | 0.36 | 91 | 1021.5 |
| 20260507044734 | 5 | 273 | 4.8 | 6.4 | 0.00 | 0.36 | 0.36 | 91 | 1021.4 |
| 20260507044616 | 5 | 273 | 4.8 | 8.0 | 0.00 | 0.36 | 0.36 | 91 | 1021.4 |
| 20260507044531 | 5 | 273 | 4.8 | 8.0 | 0.00 | 0.36 | 0.36 | 91 | 1021.4 |
| 20260507044431 | 5 | 273 | 3.2 | 8.0 | 0.00 | 0.36 | 0.36 | 91 | 1021.4 |
| 20260507044332 | 5 | 273 | 3.2 | 8.0 | 0.00 | 0.36 | 0.36 | 91 | 1021.4 |
| 20260507044227 | 5 | 273 | 4.8 | 8.0 | 0.00 | 0.36 | 0.36 | 91 | 1021.4 |
| 20260507044124 | 5 | 273 | 4.8 | 8.0 | 0.00 | 0.36 | 0.36 | 91 | 1021.4 |
| 20260507044044 | 5 | 273 | 4.8 | 9.7 | 0.00 | 0.36 | 0.36 | 91 | 1021.4 |
| 20260507043919 | 5 | 273 | 6.4 | 9.7 | 0.00 | 0.36 | 0.36 | 91 | 1021.4 |
| 20260507043822 | 5 | 273 | 4.8 | 9.7 | 0.00 | 0.36 | 0.36 | 91 | 1021.4 |
| 20260507043738 | 5 | 270 | 4.8 | 9.7 | 0.00 | 0.36 | 0.36 | 91 | 1021.4 |
| 20260507043638 | 5 | 270 | 6.4 | 9.7 | 0.00 | 0.36 | 0.36 | 91 | 1021.4 |
| 20260507043530 | 5 | 270 | 6.4 | 9.7 | 0.00 | 0.36 | 0.36 | 91 | 1021.4 |
| 20260507043429 | 5 | 271 | 6.4 | 9.7 | 0.00 | 0.36 | 0.36 | 91 | 1021.5 |
| 20260507043327 | 5 | 268 | 6.4 | 9.7 | 0.00 | 0.36 | 0.36 | 91 | 1021.5 |
| 20260507043223 | 5 | 268 | 8.0 | 9.7 | 0.00 | 0.36 | 0.36 | 91 | 1021.5 |
| 20260507043140 | 5 | 271 | 6.4 | 9.7 | 0.00 | 0.36 | 0.36 | 91 | 1021.5 |
| 20260507043036 | 5 | 283 | 6.4 | 8.0 | 0.00 | 0.36 | 0.36 | 91 | 1021.4 |
| 20260507042916 | 5 | 286 | 6.4 | 8.0 | 0.00 | 0.36 | 0.36 | 91 | 1021.5 |
| 20260507042818 | 5 | 286 | 6.4 | 8.0 | 0.00 | 0.36 | 0.36 | 91 | 1021.5 |
| 20260507042734 | 5 | 275 | 6.4 | 8.0 | 0.00 | 0.36 | 0.36 | 91 | 1021.5 |
| 20260507042632 | 5 | 284 | 6.4 | 8.0 | 0.00 | 0.36 | 0.36 | 91 | 1021.4 |
| 20260507042546 | 5 | 273 | 4.8 | 8.0 | 0.00 | 0.36 | 0.36 | 91 | 1021.5 |
| 20260507042423 | 5 | 273 | 4.8 | 8.0 | 0.00 | 0.36 | 0.36 | 91 | 1021.5 |
| 20260507042346 | 5 | 273 | 4.8 | 8.0 | 0.00 | 0.36 | 0.36 | 91 | 1021.4 |
| 20260507042243 | 5 | 273 | 4.8 | 8.0 | 0.00 | 0.36 | 0.36 | 91 | 1021.4 |
| 20260507042123 | 5 | 273 | 3.2 | 8.0 | 0.00 | 0.36 | 0.36 | 91 | 1021.4 |
| 20260507042042 | 5 | 273 | 3.2 | 9.7 | 0.00 | 0.36 | 0.36 | 91 | 1021.4 |
| 20260507041959 | 5 | 273 | 4.8 | 9.7 | 0.00 | 0.36 | 0.36 | 91 | 1021.5 |
| 20260507041835 | 5 | 273 | 4.8 | 9.7 | 0.00 | 0.36 | 0.36 | 91 | 1021.5 |
| 20260507041751 | 5 | 273 | 4.8 | 9.7 | 0.00 | 0.36 | 0.36 | 91 | 1021.5 |
| 20260507041626 | 5 | 285 | 4.8 | 9.7 | 0.00 | 0.36 | 0.36 | 91 | 1021.5 |
| 20260507041522 | 5 | 285 | 4.8 | 9.7 | 0.00 | 0.36 | 0.36 | 91 | 1021.5 |
| 20260507041419 | 5 | 285 | 6.4 | 9.7 | 0.00 | 0.36 | 0.36 | 91 | 1021.5 |
| 20260507041340 | 5 | 287 | 6.4 | 9.7 | 0.00 | 0.36 | 0.36 | 91 | 1021.5 |
| 20260507041216 | 5 | 288 | 6.4 | 9.7 | 0.00 | 0.36 | 0.36 | 91 | 1021.5 |
| 20260507041116 | 5 | 282 | 6.4 | 9.7 | 0.00 | 0.36 | 0.36 | 91 | 1021.5 |
| 20260507041037 | 5 | 273 | 6.4 | 8.0 | 0.00 | 0.36 | 0.36 | 91 | 1021.5 |
| 20260507040934 | 5 | 279 | 6.4 | 9.7 | 0.00 | 0.36 | 0.36 | 91 | 1021.5 |
| 20260507040832 | 5 | 288 | 4.8 | 9.7 | 0.00 | 0.36 | 0.36 | 91 | 1021.6 |
| 20260507040749 | 5 | 295 | 6.4 | 9.7 | 0.00 | 0.36 | 0.36 | 91 | 1021.5 |
| 20260507040629 | 5 | 295 | 6.4 | 9.7 | 0.00 | 0.36 | 0.36 | 91 | 1021.6 |
| 20260507040524 | 5 | 295 | 6.4 | 9.7 | 0.00 | 0.36 | 0.36 | 91 | 1021.5 |
| 20260507040425 | 5 | 302 | 4.8 | 9.7 | 0.00 | 0.36 | 0.36 | 91 | 1021.6 |
| 20260507040327 | 5 | 308 | 6.4 | 9.7 | 0.00 | 0.36 | 0.36 | 91 | 1021.6 |
| 20260507040226 | 5 | 308 | 6.4 | 9.7 | 0.00 | 0.36 | 0.36 | 91 | 1021.6 |
| 20260507040124 | 5 | 308 | 8.0 | 9.7 | 0.00 | 0.36 | 0.36 | 91 | 1021.6 |
| 20260507040016 | 5 | 303 | 8.0 | 9.7 | 0.00 | 0.36 | 0.36 | 91 | 1021.6 |
| 20260507035912 | 5 | 300 | 6.4 | 9.7 | 0.00 | 0.36 | 0.36 | 91 | 1021.5 |
| 20260507035833 | 5 | 307 | 6.4 | 9.7 | 0.00 | 0.36 | 0.36 | 91 | 1021.5 |
| 20260507035730 | 5 | 303 | 6.4 | 9.7 | 0.00 | 0.36 | 0.36 | 91 | 1021.6 |
| 20260507035648 | 5 | 304 | 6.4 | 9.7 | 0.00 | 0.36 | 0.36 | 91 | 1021.6 |
| 20260507035524 | 5 | 294 | 8.0 | 9.7 | 0.00 | 0.36 | 0.36 | 91 | 1021.6 |
| 20260507035424 | 5 | 297 | 8.0 | 9.7 | 0.00 | 0.36 | 0.36 | 91 | 1021.6 |
| 20260507035326 | 5 | 288 | 6.4 | 8.0 | 0.00 | 0.36 | 0.36 | 91 | 1021.6 |
| 20260507035246 | 5 | 309 | 6.4 | 8.0 | 0.00 | 0.36 | 0.36 | 91 | 1021.6 |
| 20260507035142 | 5 | 296 | 6.4 | 8.0 | 0.00 | 0.36 | 0.36 | 91 | 1021.5 |
| 20260507035035 | 5 | 296 | 4.8 | 8.0 | 0.00 | 0.36 | 0.36 | 91 | 1021.5 |
| 20260507034934 | 5 | 297 | 4.8 | 8.0 | 0.00 | 0.36 | 0.36 | 91 | 1021.5 |
| 20260507034832 | 5 | 297 | 4.8 | 8.0 | 0.00 | 0.36 | 0.36 | 91 | 1021.6 |
| 20260507034734 | 5 | 296 | 4.8 | 8.0 | 0.00 | 0.36 | 0.36 | 91 | 1021.5 |
| 20260507034633 | 5 | 296 | 4.8 | 8.0 | 0.00 | 0.36 | 0.36 | 91 | 1021.5 |
| 20260507034550 | 5 | 296 | 6.4 | 8.0 | 0.00 | 0.36 | 0.36 | 91 | 1021.5 |
| 20260507034430 | 5 | 297 | 4.8 | 8.0 | 0.00 | 0.36 | 0.36 | 91 | 1021.5 |
| 20260507034331 | 5 | 297 | 4.8 | 8.0 | 0.00 | 0.36 | 0.36 | 91 | 1021.6 |
| 20260507034227 | 5 | 305 | 4.8 | 8.0 | 0.00 | 0.36 | 0.36 | 91 | 1021.5 |
| 20260507034124 | 5 | 305 | 6.4 | 8.0 | 0.00 | 0.36 | 0.36 | 91 | 1021.5 |
| 20260507034038 | 5 | 301 | 6.4 | 8.0 | 0.00 | 0.36 | 0.36 | 91 | 1021.5 |
| 20260507033914 | 5 | 313 | 4.8 | 8.0 | 0.00 | 0.36 | 0.36 | 91 | 1021.5 |
| 20260507033835 | 5 | 319 | 4.8 | 6.4 | 0.00 | 0.36 | 0.36 | 91 | 1021.4 |
| 20260507033731 | 5 | 319 | 4.8 | 6.4 | 0.00 | 0.36 | 0.36 | 91 | 1021.4 |
| 20260507033634 | 5 | 319 | 3.2 | 6.4 | 0.00 | 0.36 | 0.36 | 91 | 1021.4 |
| 20260507033526 | 5 | 319 | 3.2 | 6.4 | 0.00 | 0.36 | 0.36 | 91 | 1021.4 |
| 20260507033423 | 5 | 319 | 3.2 | 6.4 | 0.00 | 0.36 | 0.36 | 91 | 1021.5 |
| 20260507033324 | 5 | 319 | 3.2 | 6.4 | 0.00 | 0.36 | 0.36 | 91 | 1021.5 |
| 20260507033220 | 5 | 319 | 3.2 | 6.4 | 0.00 | 0.36 | 0.36 | 91 | 1021.4 |
| 20260507033143 | 5 | 319 | 3.2 | 6.4 | 0.00 | 0.36 | 0.36 | 91 | 1021.4 |
| 20260507033016 | 5 | 319 | 3.2 | 6.4 | 0.00 | 0.36 | 0.36 | 91 | 1021.4 |
| 20260507032933 | 5 | 330 | 3.2 | 6.4 | 0.00 | 0.36 | 0.36 | 91 | 1021.4 |
| 20260507032835 | 5 | 330 | 3.2 | 6.4 | 0.00 | 0.36 | 0.36 | 91 | 1021.4 |
| 20260507032732 | 5 | 330 | 3.2 | 6.4 | 0.00 | 0.36 | 0.36 | 91 | 1021.4 |
| 20260507032632 | 5 | 330 | 3.2 | 6.4 | 0.00 | 0.36 | 0.36 | 91 | 1021.4 |
| 20260507032525 | 5 | 330 | 3.2 | 6.4 | 0.00 | 0.36 | 0.36 | 91 | 1021.4 |
| 20260507032422 | 5 | 330 | 4.8 | 6.4 | 0.00 | 0.36 | 0.36 | 91 | 1021.4 |
| 20260507032341 | 5 | 344 | 4.8 | 6.4 | 0.00 | 0.36 | 0.36 | 91 | 1021.4 |
| 20260507032217 | 5 | 344 | 4.8 | 6.4 | 0.00 | 0.36 | 0.36 | 91 | 1021.4 |
| 20260507032118 | 5 | 344 | 4.8 | 6.4 | 0.00 | 0.36 | 0.36 | 91 | 1021.4 |
| 20260507032017 | 5 | 344 | 4.8 | 6.4 | 0.00 | 0.36 | 0.36 | 91 | 1021.4 |
| 20260507031916 | 5 | 344 | 3.2 | 6.4 | 0.00 | 0.36 | 0.36 | 91 | 1021.4 |
| 20260507031835 | 5 | 344 | 3.2 | 6.4 | 0.00 | 0.36 | 0.36 | 91 | 1021.4 |
| 20260507031734 | 5 | 344 | 3.2 | 6.4 | 0.00 | 0.36 | 0.36 | 91 | 1021.3 |
| 20260507031631 | 5 | 344 | 3.2 | 6.4 | 0.00 | 0.36 | 0.36 | 91 | 1021.4 |
| 20260507031525 | 5 | 344 | 4.8 | 6.4 | 0.00 | 0.36 | 0.36 | 91 | 1021.4 |
| 20260507031426 | 5 | 344 | 4.8 | 6.4 | 0.00 | 0.36 | 0.36 | 91 | 1021.3 |
| 20260507031326 | 5 | 344 | 4.8 | 6.4 | 0.00 | 0.36 | 0.36 | 91 | 1021.3 |
| 20260507031224 | 5 | 344 | 4.8 | 6.4 | 0.00 | 0.36 | 0.36 | 91 | 1021.2 |
| 20260507031120 | 5 | 344 | 4.8 | 8.0 | 0.00 | 0.36 | 0.36 | 91 | 1021.3 |
| 20260507031035 | 5 | 344 | 4.8 | 8.0 | 0.00 | 0.36 | 0.36 | 91 | 1021.2 |
| 20260507030932 | 5 | 344 | 3.2 | 8.0 | 0.00 | 0.36 | 0.36 | 91 | 1021.2 |
| 20260507030833 | 5 | 344 | 3.2 | 8.0 | 0.00 | 0.36 | 0.36 | 91 | 1021.2 |
| 20260507030728 | 5 | 344 | 3.2 | 8.0 | 0.00 | 0.36 | 0.36 | 91 | 1021.2 |
| 20260507030625 | 5 | 330 | 3.2 | 8.0 | 0.00 | 0.36 | 0.36 | 91 | 1021.2 |
| 20260507030527 | 5 | 330 | 4.8 | 8.0 | 0.00 | 0.36 | 0.36 | 91 | 1021.2 |
| 20260507030424 | 5 | 330 | 4.8 | 8.0 | 0.00 | 0.36 | 0.36 | 91 | 1021.2 |
| 20260507030324 | 5 | 330 | 4.8 | 8.0 | 0.00 | 0.36 | 0.36 | 91 | 1021.2 |
| 20260507030221 | 5 | 331 | 4.8 | 8.0 | 0.00 | 0.36 | 0.36 | 91 | 1021.2 |
| 20260507030142 | 5 | 344 | 4.8 | 8.0 | 0.00 | 0.36 | 0.36 | 91 | 1021.3 |
| 20260507030035 | 5 | 344 | 4.8 | 8.0 | 0.00 | 0.36 | 0.36 | 91 | 1021.2 |
| 20260507025931 | 5 | 344 | 4.8 | 8.0 | 0.00 | 0.36 | 0.36 | 91 | 1021.2 |
| 20260507025831 | 5 | 350 | 4.8 | 8.0 | 0.00 | 0.36 | 0.36 | 91 | 1021.2 |
| 20260507025735 | 5 | 344 | 4.8 | 8.0 | 0.00 | 0.36 | 0.36 | 91 | 1021.3 |
| 20260507025631 | 5 | 344 | 4.8 | 8.0 | 0.00 | 0.36 | 0.36 | 91 | 1021.3 |
| 20260507025525 | 5 | 323 | 4.8 | 8.0 | 0.00 | 0.36 | 0.36 | 90 | 1021.2 |
| 20260507025423 | 5 | 319 | 4.8 | 8.0 | 0.00 | 0.36 | 0.36 | 90 | 1021.2 |
| 20260507025324 | 5 | 319 | 6.4 | 8.0 | 0.00 | 0.36 | 0.36 | 90 | 1021.2 |
| 20260507025223 | 5 | 319 | 6.4 | 8.0 | 0.00 | 0.36 | 0.36 | 90 | 1021.2 |
| 20260507025120 | 5 | 323 | 4.8 | 8.0 | 0.00 | 0.36 | 0.36 | 91 | 1021.2 |
| 20260507025034 | 5 | 313 | 4.8 | 8.0 | 0.00 | 0.36 | 0.36 | 90 | 1021.3 |
| 20260507024917 | 5 | 313 | 4.8 | 8.0 | 0.00 | 0.36 | 0.36 | 91 | 1021.3 |
| 20260507024818 | 5 | 313 | 6.4 | 8.0 | 0.00 | 0.36 | 0.36 | 91 | 1021.3 |
| 20260507024714 | 5 | 313 | 6.4 | 9.7 | 0.00 | 0.36 | 0.36 | 91 | 1021.3 |
| 20260507024634 | 5 | 313 | 6.4 | 9.7 | 0.00 | 0.36 | 0.36 | 90 | 1021.3 |
| 20260507024551 | 5 | 321 | 6.4 | 11.3 | 0.00 | 0.36 | 0.36 | 90 | 1021.3 |
| 20260507024427 | 5 | 315 | 6.4 | 11.3 | 0.00 | 0.36 | 0.36 | 90 | 1021.3 |
| 20260507024325 | 5 | 316 | 6.4 | 11.3 | 0.00 | 0.36 | 0.36 | 90 | 1021.2 |
| 20260507024241 | 5 | 327 | 6.4 | 11.3 | 0.00 | 0.36 | 0.36 | 90 | 1021.2 |
| 20260507024121 | 5 | 329 | 6.4 | 11.3 | 0.00 | 0.36 | 0.36 | 90 | 1021.2 |
| 20260507024018 | 5 | 313 | 6.4 | 11.3 | 0.00 | 0.36 | 0.36 | 90 | 1021.2 |
| 20260507023935 | 5 | 313 | 6.4 | 11.3 | 0.00 | 0.36 | 0.36 | 90 | 1021.1 |
| 20260507023836 | 5 | 320 | 8.0 | 11.3 | 0.00 | 0.36 | 0.36 | 90 | 1021.1 |
| 20260507023733 | 5 | 313 | 8.0 | 11.3 | 0.00 | 0.36 | 0.36 | 90 | 1021.1 |
| 20260507023631 | 5 | 317 | 8.0 | 11.3 | 0.00 | 0.36 | 0.36 | 90 | 1021.1 |
| 20260507023527 | 5 | 303 | 8.0 | 11.3 | 0.00 | 0.36 | 0.36 | 90 | 1021.1 |
| 20260507023432 | 5 | 296 | 8.0 | 11.3 | 0.00 | 0.36 | 0.36 | 90 | 1021.1 |
| 20260507023332 | 5 | 269 | 8.0 | 11.3 | 0.00 | 0.36 | 0.36 | 90 | 1021.1 |
| 20260507023232 | 5 | 299 | 8.0 | 11.3 | 0.00 | 0.36 | 0.36 | 90 | 1021.1 |
| 20260507023129 | 5 | 294 | 6.4 | 9.7 | 0.00 | 0.36 | 0.36 | 90 | 1021.1 |
| 20260507023043 | 5 | 290 | 6.4 | 9.7 | 0.00 | 0.36 | 0.36 | 90 | 1021.1 |
| 20260507022919 | 5 | 292 | 6.4 | 9.7 | 0.00 | 0.36 | 0.36 | 90 | 1021.0 |
| 20260507022837 | 5 | 293 | 6.4 | 9.7 | 0.00 | 0.36 | 0.36 | 90 | 1020.9 |
| 20260507022732 | 5 | 286 | 4.8 | 8.0 | 0.00 | 0.36 | 0.36 | 90 | 1020.9 |
| 20260507022649 | 5 | 290 | 4.8 | 8.0 | 0.00 | 0.36 | 0.36 | 90 | 1020.9 |
| 20260507022526 | 5 | 294 | 4.8 | 8.0 | 0.00 | 0.36 | 0.36 | 90 | 1020.9 |
| 20260507022423 | 5 | 286 | 6.4 | 8.0 | 0.00 | 0.36 | 0.36 | 90 | 1020.9 |
| 20260507022343 | 5 | 273 | 6.4 | 8.0 | 0.00 | 0.36 | 0.36 | 90 | 1020.9 |
| 20260507022219 | 5 | 275 | 6.4 | 8.0 | 0.00 | 0.36 | 0.36 | 90 | 1020.9 |
| 20260507022116 | 5 | 282 | 6.4 | 8.0 | 0.00 | 0.36 | 0.36 | 90 | 1020.9 |
| 20260507022030 | 5 | 281 | 6.4 | 8.0 | 0.00 | 0.36 | 0.36 | 90 | 1020.8 |
| 20260507021927 | 5 | 281 | 6.4 | 8.0 | 0.00 | 0.36 | 0.36 | 90 | 1020.8 |
| 20260507021826 | 5 | 286 | 6.4 | 8.0 | 0.00 | 0.36 | 0.36 | 90 | 1020.8 |
| 20260507021725 | 5 | 286 | 6.4 | 8.0 | 0.00 | 0.36 | 0.36 | 90 | 1020.8 |
| 20260507021624 | 5 | 286 | 6.4 | 8.0 | 0.00 | 0.36 | 0.36 | 90 | 1020.8 |
| 20260507021517 | 5 | 286 | 4.8 | 6.4 | 0.00 | 0.36 | 0.36 | 90 | 1020.8 |
| 20260507021434 | 5 | 286 | 4.8 | 6.4 | 0.00 | 0.36 | 0.36 | 90 | 1020.7 |
| 20260507021332 | 5 | 309 | 3.2 | 6.4 | 0.00 | 0.36 | 0.36 | 90 | 1020.7 |
| 20260507021227 | 5 | 309 | 3.2 | 6.4 | 0.00 | 0.36 | 0.36 | 90 | 1020.6 |
| 20260507021124 | 5 | 309 | 3.2 | 6.4 | 0.00 | 0.36 | 0.36 | 90 | 1020.6 |
| 20260507021022 | 5 | 309 | 3.2 | 6.4 | 0.00 | 0.36 | 0.36 | 90 | 1020.5 |
| 20260507020922 | 5 | 309 | 3.2 | 6.4 | 0.00 | 0.36 | 0.36 | 90 | 1020.5 |
| 20260507020822 | 5 | 309 | 4.8 | 6.4 | 0.00 | 0.36 | 0.36 | 90 | 1020.5 |
| 20260507020718 | 5 | 309 | 4.8 | 8.0 | 0.00 | 0.36 | 0.36 | 90 | 1020.4 |
| 20260507020638 | 5 | 309 | 4.8 | 9.7 | 0.00 | 0.36 | 0.36 | 90 | 1020.5 |
| 20260507020531 | 5 | 309 | 3.2 | 9.7 | 0.00 | 0.36 | 0.36 | 90 | 1020.5 |
| 20260507020432 | 5 | 309 | 3.2 | 9.7 | 0.00 | 0.36 | 0.36 | 90 | 1020.5 |
| 20260507020328 | 5 | 309 | 4.8 | 9.7 | 0.00 | 0.36 | 0.36 | 90 | 1020.5 |
| 20260507020232 | 5 | 309 | 3.2 | 9.7 | 0.00 | 0.36 | 0.36 | 90 | 1020.5 |
| 20260507020133 | 5 | 308 | 3.2 | 9.7 | 0.00 | 0.36 | 0.36 | 90 | 1020.5 |
| 20260507020047 | 5 | 308 | 3.2 | 9.7 | 0.00 | 0.36 | 0.36 | 90 | 1020.4 |
| 20260507015926 | 5 | 309 | 4.8 | 9.7 | 0.00 | 0.36 | 0.36 | 90 | 1020.5 |
| 20260507015825 | 5 | 309 | 6.4 | 9.7 | 0.00 | 0.36 | 0.36 | 90 | 1020.5 |
| 20260507015721 | 5 | 309 | 6.4 | 9.7 | 0.00 | 0.36 | 0.36 | 90 | 1020.4 |
| 20260507015641 | 5 | 309 | 6.4 | 11.3 | 0.00 | 0.36 | 0.36 | 90 | 1020.4 |
| 20260507015555 | 5 | 360 | 6.4 | 11.3 | 0.00 | 0.36 | 0.36 | 90 | 1020.4 |
| 20260507015454 | 5 | 360 | 6.4 | 11.3 | 0.00 | 0.36 | 0.36 | 90 | 1020.4 |
| 20260507015356 | 5 | 360 | 4.8 | 12.9 | 0.00 | 0.36 | 0.36 | 90 | 1020.4 |
| 20260507015231 | 5 | 360 | 4.8 | 12.9 | 0.00 | 0.36 | 0.36 | 90 | 1020.4 |
| 20260507015128 | 5 | 319 | 6.4 | 12.9 | 0.00 | 0.36 | 0.36 | 90 | 1020.4 |
| 20260507015022 | 5 | 305 | 6.4 | 16.1 | 0.00 | 0.36 | 0.36 | 90 | 1020.5 |
| 20260507014939 | 5 | 316 | 6.4 | 16.1 | 0.00 | 0.36 | 0.36 | 90 | 1020.4 |
| 20260507014836 | 5 | 296 | 8.0 | 16.1 | 0.00 | 0.36 | 0.36 | 90 | 1020.5 |
| 20260507014732 | 5 | 300 | 8.0 | 16.1 | 0.00 | 0.36 | 0.36 | 90 | 1020.5 |
| 20260507014629 | 5 | 319 | 8.0 | 16.1 | 0.00 | 0.36 | 0.36 | 90 | 1020.5 |
| 20260507014525 | 5 | 319 | 9.7 | 16.1 | 0.00 | 0.36 | 0.36 | 90 | 1020.6 |
| 20260507014442 | 5 | 302 | 9.7 | 16.1 | 0.00 | 0.36 | 0.36 | 90 | 1020.6 |
| 20260507014320 | 5 | 304 | 9.7 | 16.1 | 0.00 | 0.36 | 0.36 | 90 | 1020.6 |
| 20260507014216 | 5 | 298 | 11.3 | 16.1 | 0.00 | 0.36 | 0.36 | 90 | 1020.6 |
| 20260507014116 | 5 | 315 | 11.3 | 16.1 | 0.00 | 0.36 | 0.36 | 90 | 1020.6 |
| 20260507014030 | 5 | 313 | 11.3 | 16.1 | 0.00 | 0.36 | 0.36 | 90 | 1020.6 |
| 20260507013925 | 5 | 309 | 11.3 | 16.1 | 0.00 | 0.36 | 0.36 | 90 | 1020.6 |
| 20260507013826 | 5 | 323 | 11.3 | 14.5 | 0.00 | 0.36 | 0.36 | 90 | 1020.7 |
| 20260507013726 | 5 | 319 | 12.9 | 14.5 | 0.00 | 0.36 | 0.36 | 90 | 1020.6 |
| 20260507013643 | 5 | 322 | 12.9 | 14.5 | 0.00 | 0.36 | 0.36 | 90 | 1020.6 |
| 20260507013535 | 5 | 322 | 12.9 | 14.5 | 0.00 | 0.36 | 0.36 | 90 | 1020.5 |
| 20260507013432 | 5 | 308 | 12.9 | 14.5 | 0.00 | 0.36 | 0.36 | 90 | 1020.4 |
| 20260507013333 | 5 | 331 | 11.3 | 14.5 | 0.00 | 0.36 | 0.36 | 90 | 1020.3 |
| 20260507013229 | 5 | 321 | 9.7 | 14.5 | 0.00 | 0.36 | 0.36 | 90 | 1020.3 |
| 20260507013129 | 5 | 319 | 9.7 | 12.9 | 0.00 | 0.36 | 0.36 | 90 | 1020.2 |
| 20260507013023 | 5 | 346 | 9.7 | 12.9 | 0.00 | 0.36 | 0.36 | 90 | 1020.2 |
| 20260507012944 | 5 | 349 | 9.7 | 12.9 | 0.00 | 0.36 | 0.36 | 90 | 1020.2 |
| 20260507012823 | 5 | 346 | 8.0 | 12.9 | 0.00 | 0.36 | 0.36 | 90 | 1020.1 |
| 20260507012722 | 5 | 355 | 9.7 | 12.9 | 0.00 | 0.36 | 0.36 | 90 | 1020.1 |
| 20260507012618 | 5 | 345 | 9.7 | 12.9 | 0.00 | 0.36 | 0.36 | 90 | 1020.1 |
| 20260507012516 | 5 | 335 | 9.7 | 12.9 | 0.00 | 0.36 | 0.36 | 90 | 1020.2 |
| 20260507012433 | 5 | 332 | 9.7 | 12.9 | 0.00 | 0.36 | 0.36 | 90 | 1020.1 |
| 20260507012332 | 5 | 328 | 9.7 | 12.9 | 0.00 | 0.36 | 0.36 | 90 | 1020.1 |
| 20260507012232 | 5 | 325 | 9.7 | 12.9 | 0.00 | 0.36 | 0.36 | 90 | 1020.1 |
| 20260507012129 | 5 | 336 | 9.7 | 12.9 | 0.00 | 0.36 | 0.36 | 90 | 1020.1 |
| 20260507012023 | 5 | 321 | 9.7 | 12.9 | 0.00 | 0.36 | 0.36 | 90 | 1020.2 |
| 20260507011920 | 5 | 360 | 9.7 | 14.5 | 0.00 | 0.36 | 0.36 | 90 | 1020.1 |
| 20260507011820 | 5 | 360 | 9.7 | 14.5 | 0.00 | 0.36 | 0.36 | 90 | 1020.1 |
| 20260507011715 | 5 | 342 | 9.7 | 14.5 | 0.00 | 0.36 | 0.36 | 90 | 1020.1 |
| 20260507011634 | 5 | 333 | 9.7 | 14.5 | 0.00 | 0.36 | 0.36 | 90 | 1020.0 |
| 20260507011548 | 5 | 329 | 9.7 | 14.5 | 0.00 | 0.36 | 0.36 | 90 | 1020.0 |
| 20260507011429 | 5 | 338 | 9.7 | 14.5 | 0.00 | 0.36 | 0.36 | 90 | 1020.0 |
| 20260507011326 | 5 | 333 | 9.7 | 14.5 | 0.00 | 0.36 | 0.36 | 90 | 1019.9 |
| 20260507011226 | 5 | 355 | 9.7 | 14.5 | 0.00 | 0.36 | 0.36 | 90 | 1019.9 |
| 20260507011123 | 5 | 355 | 11.3 | 14.5 | 0.00 | 0.36 | 0.36 | 89 | 1019.9 |
| 20260507010915 | 5 | 348 | 11.3 | 14.5 | 0.00 | 0.36 | 0.36 | 89 | 1019.9 |
| 20260507010836 | 5 | 343 | 11.3 | 14.5 | 0.00 | 0.36 | 0.36 | 89 | 1019.8 |
| 20260507010753 | 5 | 338 | 9.7 | 14.5 | 0.00 | 0.36 | 0.36 | 89 | 1019.8 |
| 20260507010653 | 5 | 345 | 9.7 | 14.5 | 0.00 | 0.36 | 0.36 | 89 | 1019.8 |
| 20260507010526 | 5 | 348 | 9.7 | 14.5 | 0.00 | 0.36 | 0.36 | 89 | 1019.8 |
| 20260507010423 | 5 | 355 | 9.7 | 14.5 | 0.00 | 0.36 | 0.36 | 89 | 1019.8 |
| 20260507010321 | 5 | 360 | 11.3 | 14.5 | 0.00 | 0.36 | 0.36 | 89 | 1019.7 |
| 20260507010220 | 5 | 360 | 11.3 | 14.5 | 0.00 | 0.36 | 0.36 | 89 | 1019.8 |
| 20260507010137 | 5 | 5 | 11.3 | 14.5 | 0.00 | 0.36 | 0.36 | 89 | 1019.8 |
| 20260507010052 | 5 | 355 | 11.3 | 12.9 | 0.00 | 0.36 | 0.36 | 89 | 1019.7 |
| 20260507005928 | 5 | 11 | 11.3 | 12.9 | 0.00 | 0.36 | 0.36 | 89 | 1019.7 |
| 20260507005854 | 5 | 346 | 9.7 | 12.9 | 0.00 | 0.36 | 0.36 | 89 | 1019.8 |
| 20260507005730 | 5 | 5 | 9.7 | 12.9 | 0.00 | 0.36 | 0.36 | 89 | 1019.8 |
| 20260507005626 | 5 | 351 | 8.0 | 12.9 | 0.00 | 0.36 | 0.36 | 89 | 1019.6 |
| 20260507005539 | 5 | 18 | 9.7 | 12.9 | 0.00 | 0.36 | 0.36 | 89 | 1019.6 |
| 20260507005415 | 5 | 9 | 9.7 | 12.9 | 0.00 | 0.36 | 0.36 | 89 | 1019.6 |
| 20260507005333 | 5 | 5 | 9.7 | 14.5 | 0.00 | 0.36 | 0.36 | 89 | 1019.5 |
| 20260507005232 | 5 | 360 | 9.7 | 14.5 | 0.00 | 0.36 | 0.36 | 89 | 1019.5 |
| 20260507005149 | 5 | 360 | 8.0 | 14.5 | 0.00 | 0.36 | 0.36 | 89 | 1019.5 |
| 20260507005029 | 5 | 19 | 9.7 | 14.5 | 0.00 | 0.36 | 0.36 | 89 | 1019.5 |
| 20260507004946 | 5 | 14 | 9.7 | 14.5 | 0.00 | 0.36 | 0.36 | 89 | 1019.5 |
| 20260507004824 | 5 | 19 | 8.0 | 16.1 | 0.00 | 0.36 | 0.36 | 89 | 1019.5 |
| 20260507004740 | 5 | 9 | 9.7 | 16.1 | 0.00 | 0.36 | 0.36 | 89 | 1019.6 |
| 20260507004620 | 5 | 5 | 9.7 | 17.7 | 0.00 | 0.36 | 0.36 | 89 | 1019.7 |
| 20260507004514 | 5 | 9 | 9.7 | 17.7 | 0.00 | 0.36 | 0.36 | 89 | 1019.7 |
| 20260507004434 | 5 | 17 | 9.7 | 17.7 | 0.00 | 0.36 | 0.36 | 89 | 1019.8 |
| 20260507004332 | 5 | 360 | 9.7 | 17.7 | 0.00 | 0.36 | 0.36 | 89 | 1019.9 |
| 20260507004248 | 5 | 355 | 11.3 | 17.7 | 0.00 | 0.36 | 0.36 | 88 | 1019.8 |
| 20260507004128 | 5 | 355 | 11.3 | 17.7 | 0.00 | 0.36 | 0.36 | 88 | 1019.9 |
| 20260507004025 | 5 | 355 | 12.9 | 17.7 | 0.00 | 0.36 | 0.36 | 88 | 1020.0 |
| 20260507003923 | 5 | 355 | 12.9 | 17.7 | 0.00 | 0.36 | 0.36 | 88 | 1019.9 |
| 20260507003842 | 5 | 349 | 14.5 | 17.7 | 0.00 | 0.36 | 0.36 | 88 | 1020.0 |
| 20260507003719 | 5 | 351 | 14.5 | 17.7 | 0.00 | 0.36 | 0.36 | 88 | 1019.9 |
| 20260507003617 | 5 | 339 | 12.9 | 17.7 | 0.00 | 0.36 | 0.36 | 88 | 1019.9 |
| 20260507003531 | 5 | 348 | 12.9 | 17.7 | 0.00 | 0.36 | 0.36 | 88 | 1019.9 |
| 20260507003448 | 5 | 360 | 12.9 | 17.7 | 0.00 | 0.36 | 0.36 | 88 | 1019.9 |
| 20260507003354 | 5 | 360 | 12.9 | 19.3 | 0.00 | 0.36 | 0.36 | 88 | 1019.9 |
| 20260507003231 | 5 | 360 | 12.9 | 19.3 | 0.00 | 0.36 | 0.36 | 88 | 1019.9 |
| 20260507003128 | 5 | 360 | 12.9 | 19.3 | 0.00 | 0.36 | 0.36 | 88 | 1019.9 |
| 20260507003025 | 5 | 360 | 11.3 | 19.3 | 0.00 | 0.36 | 0.36 | 87 | 1019.9 |
| 20260507002922 | 5 | 360 | 12.9 | 19.3 | 0.00 | 0.36 | 0.36 | 87 | 1019.9 |
| 20260507002820 | 5 | 360 | 12.9 | 19.3 | 0.00 | 0.36 | 0.36 | 87 | 1019.9 |
| 20260507002723 | 5 | 360 | 12.9 | 22.5 | 0.00 | 0.36 | 0.36 | 87 | 1019.9 |
| 20260507002620 | 5 | 360 | 14.5 | 22.5 | 0.00 | 0.36 | 0.36 | 87 | 1019.9 |
| 20260507002518 | 5 | 360 | 14.5 | 22.5 | 0.00 | 0.36 | 0.36 | 87 | 1019.9 |
| 20260507002418 | 5 | 360 | 14.5 | 22.5 | 0.00 | 0.36 | 0.36 | 87 | 1019.9 |
| 20260507002318 | 5 | 343 | 14.5 | 22.5 | 0.00 | 0.36 | 0.36 | 86 | 1019.8 |
| 20260507002213 | 5 | 348 | 14.5 | 22.5 | 0.00 | 0.36 | 0.36 | 86 | 1019.9 |
| 20260507002134 | 6 | 360 | 14.5 | 22.5 | 0.00 | 0.36 | 0.36 | 86 | 1019.9 |
| 20260507002031 | 6 | 360 | 14.5 | 22.5 | 0.00 | 0.36 | 0.36 | 86 | 1020.0 |
| 20260507001929 | 6 | 344 | 16.1 | 22.5 | 0.00 | 0.36 | 0.36 | 85 | 1020.1 |
| 20260507001834 | 6 | 335 | 17.7 | 22.5 | 0.00 | 0.36 | 0.36 | 85 | 1020.2 |
| 20260507001730 | 6 | 329 | 19.3 | 22.5 | 0.00 | 0.36 | 0.36 | 85 | 1020.2 |
| 20260507001648 | 6 | 327 | 19.3 | 22.5 | 0.00 | 0.36 | 0.36 | 85 | 1020.1 |
| 20260507001521 | 6 | 323 | 19.3 | 22.5 | 0.00 | 0.36 | 0.36 | 85 | 1020.2 |
| 20260507001442 | 6 | 319 | 17.7 | 22.5 | 0.00 | 0.36 | 0.36 | 84 | 1020.2 |
| 20260507001402 | 6 | 323 | 17.7 | 20.9 | 0.00 | 0.36 | 0.36 | 84 | 1020.2 |
| 20260507001235 | 6 | 337 | 14.5 | 20.9 | 0.00 | 0.36 | 0.36 | 84 | 1020.2 |
| 20260507001155 | 6 | 314 | 9.7 | 16.1 | 0.00 | 0.36 | 0.36 | 84 | 1020.2 |
| 20260507001051 | 6 | 315 | 6.4 | 9.7 | 0.00 | 0.36 | 0.36 | 84 | 1020.2 |
| 20260507000948 | 6 | 309 | 6.4 | 8.0 | 0.00 | 0.36 | 0.36 | 84 | 1020.1 |
| 20260507000831 | 6 | 296 | 6.4 | 8.0 | 0.00 | 0.36 | 0.36 | 84 | 1020.2 |
| 20260507000731 | 6 | 360 | 4.8 | 8.0 | 0.00 | 0.36 | 0.36 | 84 | 1020.2 |
| 20260507000627 | 6 | 360 | 6.4 | 8.0 | 0.00 | 0.36 | 0.36 | 84 | 1020.2 |
| 20260507000519 | 6 | 296 | 6.4 | 8.0 | 0.00 | 0.36 | 0.36 | 84 | 1020.1 |
| 20260507000416 | 6 | 302 | 4.8 | 8.0 | 0.00 | 0.36 | 0.36 | 85 | 1020.1 |
| 20260507000336 | 6 | 310 | 3.2 | 8.0 | 0.00 | 0.36 | 0.36 | 85 | 1020.1 |
| 20260507000230 | 6 | 309 | 3.2 | 9.7 | 0.00 | 0.36 | 0.36 | 84 | 1019.9 |
| 20260507000131 | 6 | 331 | 3.2 | 9.7 | 0.00 | 0.36 | 0.36 | 84 | 1019.9 |
| 20260507000029 | 6 | 331 | 6.4 | 9.7 | 0.00 | 0.36 | 0.36 | 84 | 1019.8 |
| 20260506235931 | 6 | 321 | 6.4 | 9.7 | 0.00 | 0.36 | 0.36 | 85 | 1019.8 |
| 20260506235828 | 6 | 329 | 6.4 | 9.7 | 0.00 | 0.36 | 0.36 | 85 | 1019.8 |
| 20260506235724 | 6 | 339 | 4.8 | 9.7 | 0.00 | 0.36 | 0.36 | 85 | 1019.8 |
| 20260506235645 | 6 | 9 | 4.8 | 9.7 | 0.00 | 0.36 | 0.36 | 85 | 1019.7 |
| 20260506235516 | 6 | 328 | 6.4 | 9.7 | 0.00 | 0.36 | 0.36 | 85 | 1019.6 |
| 20260506235413 | 6 | 327 | 6.4 | 9.7 | 0.00 | 0.36 | 0.36 | 85 | 1019.7 |
| 20260506235317 | 6 | 326 | 4.8 | 9.7 | 0.00 | 0.36 | 0.36 | 86 | 1019.7 |
| 20260506235234 | 6 | 348 | 4.8 | 8.0 | 0.00 | 0.36 | 0.36 | 85 | 1019.6 |
| 20260506235130 | 6 | 342 | 3.2 | 8.0 | 0.00 | 0.36 | 0.36 | 85 | 1019.7 |
| 20260506235023 | 6 | 326 | 4.8 | 8.0 | 0.00 | 0.36 | 0.36 | 86 | 1019.7 |
| 20260506234920 | 6 | 326 | 4.8 | 8.0 | 0.00 | 0.36 | 0.36 | 86 | 1019.6 |
| 20260506234817 | 6 | 315 | 6.4 | 8.0 | 0.00 | 0.36 | 0.36 | 85 | 1019.6 |
| 20260506234736 | 6 | 320 | 6.4 | 8.0 | 0.00 | 0.36 | 0.36 | 86 | 1019.6 |
| 20260506234619 | 6 | 314 | 6.4 | 8.0 | 0.00 | 0.36 | 0.36 | 86 | 1019.5 |
| 20260506234517 | 6 | 355 | 6.4 | 8.0 | 0.00 | 0.36 | 0.36 | 86 | 1019.4 |
| 20260506234434 | 6 | 360 | 6.4 | 8.0 | 0.00 | 0.36 | 0.36 | 86 | 1019.4 |
| 20260506234333 | 6 | 360 | 4.8 | 8.0 | 0.00 | 0.36 | 0.36 | 86 | 1019.4 |
| 20260506234232 | 6 | 17 | 4.8 | 8.0 | 0.00 | 0.36 | 0.36 | 86 | 1019.4 |
| 20260506234133 | 6 | 13 | 4.8 | 8.0 | 0.00 | 0.36 | 0.36 | 86 | 1019.4 |
| 20260506234027 | 6 | 13 | 6.4 | 8.0 | 0.00 | 0.36 | 0.36 | 86 | 1019.3 |
| 20260506233928 | 6 | 12 | 6.4 | 8.0 | 0.00 | 0.36 | 0.36 | 86 | 1019.3 |
| 20260506233831 | 6 | 12 | 6.4 | 8.0 | 0.00 | 0.36 | 0.36 | 86 | 1019.3 |
| 20260506233729 | 6 | 12 | 6.4 | 8.0 | 0.00 | 0.36 | 0.36 | 86 | 1019.4 |
| 20260506233629 | 6 | 360 | 6.4 | 8.0 | 0.00 | 0.36 | 0.36 | 86 | 1019.4 |
| 20260506233524 | 6 | 360 | 4.8 | 8.0 | 0.00 | 0.36 | 0.36 | 86 | 1019.4 |
| 20260506233440 | 6 | 360 | 4.8 | 8.0 | 0.00 | 0.36 | 0.36 | 86 | 1019.4 |
| 20260506233318 | 6 | 349 | 4.8 | 9.7 | 0.00 | 0.36 | 0.36 | 86 | 1019.3 |
| 20260506233218 | 6 | 350 | 4.8 | 9.7 | 0.00 | 0.36 | 0.36 | 86 | 1019.3 |
| 20260506233116 | 6 | 350 | 4.8 | 9.7 | 0.00 | 0.36 | 0.36 | 86 | 1019.3 |
| 20260506233017 | 6 | 347 | 6.4 | 9.7 | 0.00 | 0.36 | 0.36 | 86 | 1019.3 |
| 20260506232916 | 6 | 360 | 6.4 | 9.7 | 0.00 | 0.36 | 0.36 | 86 | 1019.3 |
| 20260506232834 | 6 | 360 | 6.4 | 9.7 | 0.00 | 0.36 | 0.36 | 86 | 1019.3 |
| 20260506232730 | 6 | 360 | 6.4 | 9.7 | 0.00 | 0.36 | 0.36 | 86 | 1019.2 |
| 20260506232648 | 6 | 360 | 6.4 | 9.7 | 0.00 | 0.36 | 0.36 | 86 | 1019.2 |
| 20260506232547 | 6 | 360 | 6.4 | 9.7 | 0.00 | 0.36 | 0.36 | 86 | 1019.2 |
| 20260506232425 | 6 | 360 | 8.0 | 9.7 | 0.00 | 0.36 | 0.36 | 86 | 1019.2 |
| 20260506232323 | 6 | 360 | 6.4 | 9.7 | 0.00 | 0.36 | 0.36 | 86 | 1019.2 |
| 20260506232224 | 6 | 360 | 6.4 | 8.0 | 0.00 | 0.36 | 0.36 | 86 | 1019.2 |
| 20260506232120 | 6 | 360 | 6.4 | 8.0 | 0.00 | 0.36 | 0.36 | 86 | 1019.2 |
| 20260506232034 | 6 | 360 | 6.4 | 8.0 | 0.00 | 0.36 | 0.36 | 86 | 1019.2 |
| 20260506231931 | 6 | 360 | 6.4 | 9.7 | 0.00 | 0.36 | 0.36 | 86 | 1019.2 |
| 20260506231828 | 6 | 360 | 6.4 | 9.7 | 0.00 | 0.36 | 0.36 | 86 | 1019.2 |
| 20260506231744 | 6 | 360 | 4.8 | 9.7 | 0.00 | 0.36 | 0.36 | 86 | 1019.1 |
| 20260506231640 | 6 | 360 | 4.8 | 9.7 | 0.00 | 0.36 | 0.36 | 86 | 1019.1 |
| 20260506231532 | 6 | 360 | 6.4 | 9.7 | 0.00 | 0.36 | 0.36 | 86 | 1019.1 |
| 20260506231431 | 6 | 360 | 6.4 | 9.7 | 0.00 | 0.36 | 0.36 | 86 | 1019.0 |
| 20260506231332 | 6 | 360 | 6.4 | 9.7 | 0.00 | 0.36 | 0.36 | 86 | 1019.0 |
| 20260506231232 | 6 | 360 | 6.4 | 9.7 | 0.00 | 0.36 | 0.36 | 87 | 1019.0 |
| 20260506231150 | 6 | 360 | 8.0 | 9.7 | 0.00 | 0.36 | 0.36 | 87 | 1019.0 |
| 20260506231025 | 6 | 360 | 8.0 | 9.7 | 0.00 | 0.36 | 0.36 | 86 | 1019.0 |
| 20260506230921 | 6 | 360 | 6.4 | 9.7 | 0.00 | 0.36 | 0.36 | 86 | 1018.9 |
| 20260506230817 | 6 | 360 | 6.4 | 9.7 | 0.00 | 0.36 | 0.36 | 87 | 1019.0 |
| 20260506230734 | 6 | 360 | 6.4 | 9.7 | 0.00 | 0.36 | 0.36 | 87 | 1019.0 |
| 20260506230652 | 6 | 360 | 6.4 | 9.7 | 0.00 | 0.36 | 0.36 | 87 | 1019.0 |
| 20260506230548 | 6 | 360 | 6.4 | 9.7 | 0.00 | 0.36 | 0.36 | 87 | 1019.1 |
| 20260506230424 | 6 | 360 | 6.4 | 9.7 | 0.00 | 0.36 | 0.36 | 87 | 1019.1 |
| 20260506230323 | 6 | 360 | 6.4 | 9.7 | 0.00 | 0.36 | 0.36 | 87 | 1019.1 |
| 20260506230244 | 6 | 360 | 4.8 | 6.4 | 0.00 | 0.36 | 0.36 | 87 | 1019.1 |
| 20260506230142 | 6 | 360 | 3.2 | 6.4 | 0.00 | 0.36 | 0.36 | 87 | 1019.1 |
| 20260506230015 | 6 | 360 | 4.8 | 6.4 | 0.00 | 0.36 | 0.36 | 87 | 1019.1 |
| 20260506225918 | 6 | 360 | 3.2 | 6.4 | 0.00 | 0.36 | 0.36 | 87 | 1019.0 |
| 20260506225817 | 6 | 360 | 3.2 | 8.0 | 0.00 | 0.36 | 0.36 | 87 | 1019.0 |
| 20260506225734 | 6 | 360 | 1.6 | 9.7 | 0.00 | 0.36 | 0.36 | 87 | 1019.0 |
| 20260506225631 | 6 | 360 | 3.2 | 9.7 | 0.00 | 0.36 | 0.36 | 87 | 1019.0 |
| 20260506225525 | 6 | 360 | 3.2 | 9.7 | 0.00 | 0.36 | 0.36 | 87 | 1019.0 |
| 20260506225426 | 6 | 360 | 3.2 | 9.7 | 0.00 | 0.36 | 0.36 | 87 | 1019.0 |
| 20260506225344 | 6 | 360 | 4.8 | 9.7 | 0.00 | 0.36 | 0.36 | 87 | 1019.0 |
| 20260506225221 | 6 | 360 | 4.8 | 9.7 | 0.00 | 0.36 | 0.36 | 87 | 1018.9 |
| 20260506225116 | 6 | 360 | 4.8 | 9.7 | 0.00 | 0.36 | 0.36 | 87 | 1018.9 |
| 20260506225030 | 6 | 360 | 6.4 | 9.7 | 0.00 | 0.36 | 0.36 | 87 | 1018.9 |
| 20260506224931 | 6 | 360 | 6.4 | 9.7 | 0.00 | 0.36 | 0.36 | 87 | 1018.9 |
| 20260506224830 | 6 | 360 | 6.4 | 9.7 | 0.00 | 0.36 | 0.36 | 87 | 1018.9 |
| 20260506224726 | 6 | 360 | 4.8 | 9.7 | 0.00 | 0.36 | 0.36 | 87 | 1018.9 |
| 20260506224630 | 6 | 360 | 3.2 | 6.4 | 0.00 | 0.36 | 0.36 | 88 | 1018.9 |
| 20260506224527 | 6 | 360 | 1.6 | 6.4 | 0.00 | 0.36 | 0.36 | 88 | 1018.9 |
| 20260506224423 | 6 | 360 | 0.0 | 6.4 | 0.00 | 0.36 | 0.36 | 88 | 1018.9 |
| 20260506224323 | 6 | 360 | 0.0 | 6.4 | 0.00 | 0.36 | 0.36 | 88 | 1019.0 |
| 20260506224239 | 6 | 360 | 0.0 | 6.4 | 0.00 | 0.36 | 0.36 | 88 | 1019.0 |
| 20260506224135 | 6 | 360 | 1.6 | 6.4 | 0.00 | 0.36 | 0.36 | 88 | 1019.0 |
| 20260506224029 | 6 | 360 | 1.6 | 6.4 | 0.00 | 0.36 | 0.36 | 88 | 1019.0 |
| 20260506223930 | 6 | 360 | 3.2 | 6.4 | 0.00 | 0.36 | 0.36 | 88 | 1019.1 |
| 20260506223834 | 6 | 360 | 3.2 | 6.4 | 0.00 | 0.36 | 0.36 | 88 | 1019.1 |
| 20260506223730 | 6 | 360 | 4.8 | 6.4 | 0.00 | 0.36 | 0.36 | 88 | 1019.1 |
| 20260506223631 | 6 | 360 | 3.2 | 6.4 | 0.00 | 0.36 | 0.36 | 88 | 1019.0 |
| 20260506223528 | 6 | 360 | 3.2 | 6.4 | 0.00 | 0.36 | 0.36 | 88 | 1019.0 |
| 20260506223424 | 6 | 360 | 3.2 | 6.4 | 0.00 | 0.36 | 0.36 | 88 | 1019.0 |
| 20260506223323 | 6 | 360 | 3.2 | 6.4 | 0.00 | 0.36 | 0.36 | 88 | 1019.0 |
| 20260506223223 | 6 | 360 | 1.6 | 6.4 | 0.00 | 0.36 | 0.36 | 88 | 1019.0 |
| 20260506223127 | 6 | 360 | 1.6 | 6.4 | 0.00 | 0.36 | 0.36 | 88 | 1019.0 |
| 20260506223020 | 6 | 360 | 3.2 | 6.4 | 0.00 | 0.36 | 0.36 | 88 | 1019.0 |
| 20260506222916 | 6 | 360 | 3.2 | 6.4 | 0.00 | 0.36 | 0.36 | 88 | 1018.9 |
| 20260506222815 | 6 | 360 | 1.6 | 6.4 | 0.00 | 0.36 | 0.36 | 88 | 1018.9 |
| 20260506222734 | 6 | 360 | 0.0 | 6.4 | 0.00 | 0.36 | 0.36 | 88 | 1018.9 |
| 20260506222631 | 5 | 360 | 0.0 | 6.4 | 0.00 | 0.36 | 0.36 | 88 | 1019.0 |
| 20260506222524 | 5 | 360 | 1.6 | 6.4 | 0.00 | 0.36 | 0.36 | 88 | 1019.0 |
| 20260506222421 | 5 | 360 | 3.2 | 6.4 | 0.00 | 0.36 | 0.36 | 88 | 1019.0 |
| 20260506222324 | 5 | 360 | 1.6 | 6.4 | 0.00 | 0.36 | 0.36 | 88 | 1019.0 |
| 20260506222224 | 5 | 360 | 1.6 | 6.4 | 0.00 | 0.36 | 0.36 | 88 | 1019.0 |
| 20260506222122 | 5 | 360 | 1.6 | 6.4 | 0.00 | 0.36 | 0.36 | 88 | 1019.0 |
| 20260506222016 | 5 | 360 | 3.2 | 6.4 | 0.00 | 0.36 | 0.36 | 88 | 1019.1 |
| 20260506221917 | 5 | 360 | 4.8 | 6.4 | 0.00 | 0.36 | 0.36 | 89 | 1019.0 |
| 20260506221840 | 6 | 360 | 3.2 | 6.4 | 0.00 | 0.36 | 0.36 | 89 | 1019.0 |
| 20260506221714 | 5 | 360 | 3.2 | 6.4 | 0.00 | 0.36 | 0.36 | 89 | 1019.0 |
| 20260506221635 | 5 | 360 | 3.2 | 6.4 | 0.00 | 0.36 | 0.36 | 89 | 1019.0 |
| 20260506221533 | 5 | 360 | 3.2 | 8.0 | 0.00 | 0.36 | 0.36 | 89 | 1019.0 |
| 20260506221434 | 5 | 360 | 4.8 | 9.7 | 0.00 | 0.36 | 0.36 | 89 | 1019.0 |
| 20260506221353 | 5 | 360 | 3.2 | 9.7 | 0.00 | 0.36 | 0.36 | 89 | 1019.0 |
| 20260506221229 | 5 | 360 | 3.2 | 9.7 | 0.00 | 0.36 | 0.36 | 89 | 1019.0 |
| 20260506221131 | 5 | 360 | 3.2 | 9.7 | 0.00 | 0.36 | 0.36 | 88 | 1019.0 |
| 20260506221029 | 5 | 360 | 4.8 | 9.7 | 0.00 | 0.36 | 0.36 | 89 | 1019.0 |
| 20260506220926 | 5 | 360 | 4.8 | 9.7 | 0.00 | 0.36 | 0.36 | 89 | 1019.0 |
| 20260506220825 | 5 | 360 | 4.8 | 9.7 | 0.00 | 0.36 | 0.36 | 89 | 1019.0 |
| 20260506220726 | 5 | 360 | 4.8 | 9.7 | 0.00 | 0.36 | 0.36 | 89 | 1019.0 |
| 20260506220626 | 5 | 360 | 6.4 | 9.7 | 0.00 | 0.36 | 0.36 | 89 | 1019.1 |
| 20260506220520 | 5 | 360 | 4.8 | 9.7 | 0.00 | 0.36 | 0.36 | 89 | 1019.1 |
| 20260506220423 | 5 | 360 | 3.2 | 6.4 | 0.00 | 0.36 | 0.36 | 89 | 1019.1 |
| 20260506220322 | 5 | 360 | 3.2 | 8.0 | 0.00 | 0.36 | 0.36 | 89 | 1019.1 |
| 20260506220239 | 5 | 360 | 3.2 | 11.3 | 0.00 | 0.36 | 0.36 | 89 | 1019.0 |
| 20260506220138 | 5 | 360 | 3.2 | 11.3 | 0.00 | 0.36 | 0.36 | 89 | 1019.0 |
| 20260506220031 | 5 | 360 | 4.8 | 11.3 | 0.00 | 0.36 | 0.36 | 89 | 1019.1 |
| 20260506215934 | 5 | 360 | 4.8 | 11.3 | 0.00 | 0.36 | 0.36 | 89 | 1019.0 |
| 20260506215831 | 5 | 360 | 3.2 | 11.3 | 0.00 | 0.36 | 0.36 | 89 | 1019.0 |
| 20260506215728 | 5 | 360 | 3.2 | 11.3 | 0.00 | 0.36 | 0.36 | 89 | 1019.0 |
| 20260506215647 | 5 | 360 | 3.2 | 11.3 | 0.00 | 0.36 | 0.36 | 89 | 1018.9 |
| 20260506215520 | 5 | 360 | 4.8 | 11.3 | 0.00 | 0.36 | 0.36 | 89 | 1018.9 |
| 20260506215437 | 5 | 360 | 6.4 | 11.3 | 0.00 | 0.36 | 0.36 | 89 | 1018.9 |
| 20260506215356 | 5 | 360 | 6.4 | 12.9 | 0.00 | 0.36 | 0.36 | 89 | 1018.9 |
| 20260506215254 | 5 | 360 | 6.4 | 12.9 | 0.00 | 0.36 | 0.36 | 89 | 1018.9 |
| 20260506215154 | 5 | 360 | 6.4 | 12.9 | 0.00 | 0.36 | 0.36 | 89 | 1018.9 |
| 20260506215047 | 5 | 360 | 6.4 | 12.9 | 0.00 | 0.36 | 0.36 | 90 | 1018.9 |
| 20260506214928 | 5 | 360 | 4.8 | 12.9 | 0.00 | 0.36 | 0.36 | 89 | 1018.9 |
| 20260506214828 | 5 | 360 | 6.4 | 12.9 | 0.00 | 0.36 | 0.36 | 89 | 1018.9 |
| 20260506214744 | 5 | 360 | 6.4 | 12.9 | 0.00 | 0.36 | 0.36 | 89 | 1018.8 |
| 20260506214641 | 5 | 360 | 6.4 | 12.9 | 0.00 | 0.36 | 0.36 | 89 | 1018.7 |
| 20260506214555 | 5 | 360 | 8.0 | 12.9 | 0.00 | 0.36 | 0.36 | 89 | 1018.7 |
| 20260506214432 | 5 | 360 | 6.4 | 12.9 | 0.00 | 0.36 | 0.36 | 89 | 1018.7 |
| 20260506214354 | 5 | 360 | 6.4 | 12.9 | 0.00 | 0.36 | 0.36 | 89 | 1018.8 |
| 20260506214230 | 5 | 360 | 8.0 | 12.9 | 0.00 | 0.36 | 0.36 | 90 | 1018.8 |
| 20260506214132 | 5 | 360 | 8.0 | 12.9 | 0.00 | 0.36 | 0.36 | 90 | 1018.9 |
| 20260506214029 | 5 | 360 | 8.0 | 12.9 | 0.00 | 0.36 | 0.36 | 90 | 1019.0 |
| 20260506213946 | 5 | 360 | 8.0 | 12.9 | 0.00 | 0.36 | 0.36 | 90 | 1019.0 |
| 20260506213825 | 5 | 360 | 9.7 | 12.9 | 0.00 | 0.36 | 0.36 | 90 | 1019.0 |
| 20260506213744 | 5 | 360 | 8.0 | 11.3 | 0.00 | 0.36 | 0.36 | 90 | 1019.0 |
| 20260506213620 | 5 | 360 | 8.0 | 14.5 | 0.00 | 0.36 | 0.36 | 90 | 1019.0 |
| 20260506213535 | 5 | 360 | 8.0 | 14.5 | 0.00 | 0.36 | 0.36 | 90 | 1019.0 |
| 20260506213453 | 5 | 360 | 6.4 | 14.5 | 0.00 | 0.36 | 0.36 | 90 | 1019.0 |
| 20260506213317 | 5 | 360 | 8.0 | 14.5 | 0.00 | 0.36 | 0.36 | 90 | 1019.0 |
| 20260506213234 | 5 | 360 | 8.0 | 14.5 | 0.00 | 0.36 | 0.36 | 90 | 1019.0 |
| 20260506213151 | 5 | 360 | 8.0 | 14.5 | 0.00 | 0.36 | 0.36 | 90 | 1019.0 |
| 20260506213027 | 5 | 360 | 8.0 | 14.5 | 0.00 | 0.36 | 0.36 | 90 | 1019.0 |
| 20260506212924 | 5 | 360 | 8.0 | 14.5 | 0.00 | 0.36 | 0.36 | 90 | 1019.0 |
| 20260506212826 | 5 | 360 | 8.0 | 14.5 | 0.00 | 0.36 | 0.36 | 90 | 1019.0 |
| 20260506212722 | 5 | 360 | 8.0 | 14.5 | 0.00 | 0.36 | 0.36 | 90 | 1019.0 |
| 20260506212618 | 5 | 360 | 8.0 | 12.9 | 0.00 | 0.36 | 0.36 | 90 | 1019.0 |
| 20260506212516 | 5 | 360 | 8.0 | 12.9 | 0.00 | 0.36 | 0.36 | 90 | 1019.0 |
| 20260506212434 | 5 | 360 | 8.0 | 12.9 | 0.00 | 0.36 | 0.36 | 90 | 1019.0 |
| 20260506212352 | 5 | 360 | 8.0 | 12.9 | 0.00 | 0.36 | 0.36 | 90 | 1019.1 |
| 20260506212229 | 5 | 360 | 8.0 | 14.5 | 0.00 | 0.36 | 0.36 | 90 | 1019.1 |
| 20260506212127 | 5 | 360 | 8.0 | 14.5 | 0.00 | 0.36 | 0.36 | 90 | 1019.1 |
| 20260506212022 | 5 | 360 | 8.0 | 14.5 | 0.00 | 0.36 | 0.36 | 90 | 1019.0 |
| 20260506211919 | 5 | 360 | 9.7 | 14.5 | 0.00 | 0.36 | 0.36 | 90 | 1019.0 |
| 20260506211841 | 5 | 360 | 8.0 | 14.5 | 0.00 | 0.36 | 0.36 | 90 | 1019.0 |
| 20260506211719 | 5 | 360 | 8.0 | 14.5 | 0.00 | 0.36 | 0.36 | 90 | 1019.0 |
| 20260506211641 | 5 | 360 | 6.4 | 14.5 | 0.00 | 0.36 | 0.36 | 90 | 1019.0 |
| 20260506211534 | 5 | 360 | 8.0 | 14.5 | 0.00 | 0.36 | 0.36 | 90 | 1019.0 |
| 20260506211431 | 5 | 360 | 9.7 | 14.5 | 0.00 | 0.36 | 0.36 | 90 | 1019.0 |
| 20260506211331 | 5 | 360 | 9.7 | 14.5 | 0.00 | 0.36 | 0.36 | 90 | 1018.9 |
| 20260506211227 | 5 | 360 | 9.7 | 12.9 | 0.00 | 0.36 | 0.36 | 90 | 1019.0 |
| 20260506211144 | 5 | 360 | 9.7 | 12.9 | 0.00 | 0.36 | 0.36 | 90 | 1019.0 |
| 20260506211022 | 5 | 360 | 6.4 | 12.9 | 0.00 | 0.36 | 0.36 | 90 | 1019.0 |
| 20260506210919 | 5 | 360 | 6.4 | 12.9 | 0.00 | 0.36 | 0.36 | 90 | 1019.0 |
| 20260506210821 | 5 | 360 | 8.0 | 12.9 | 0.00 | 0.36 | 0.36 | 90 | 1019.1 |
| 20260506210719 | 5 | 360 | 8.0 | 12.9 | 0.00 | 0.36 | 0.36 | 90 | 1019.2 |
| 20260506210618 | 5 | 360 | 6.4 | 12.9 | 0.00 | 0.36 | 0.36 | 91 | 1019.2 |
| 20260506210512 | 5 | 360 | 6.4 | 12.9 | 0.00 | 0.36 | 0.36 | 91 | 1019.2 |
| 20260506210433 | 5 | 360 | 6.4 | 12.9 | 0.00 | 0.36 | 0.36 | 91 | 1019.2 |
| 20260506210330 | 5 | 360 | 4.8 | 12.9 | 0.00 | 0.36 | 0.36 | 91 | 1019.2 |
| 20260506210230 | 5 | 360 | 4.8 | 12.9 | 0.00 | 0.36 | 0.36 | 91 | 1019.2 |
| 20260506210147 | 5 | 360 | 8.0 | 12.9 | 0.00 | 0.36 | 0.36 | 91 | 1019.2 |
| 20260506210024 | 5 | 360 | 9.7 | 12.9 | 0.00 | 0.36 | 0.36 | 91 | 1019.2 |
| 20260506205924 | 5 | 360 | 9.7 | 12.9 | 0.00 | 0.36 | 0.36 | 91 | 1019.2 |
| 20260506205846 | 5 | 360 | 9.7 | 14.5 | 0.00 | 0.36 | 0.36 | 91 | 1019.2 |
| 20260506205803 | 5 | 360 | 9.7 | 17.7 | 0.00 | 0.36 | 0.36 | 91 | 1019.2 |
| 20260506205659 | 5 | 360 | 8.0 | 17.7 | 0.00 | 0.36 | 0.36 | 91 | 1019.2 |
| 20260506205555 | 5 | 121 | 8.0 | 17.7 | 0.00 | 0.36 | 0.36 | 91 | 1019.1 |
| 20260506205433 | 5 | 360 | 8.0 | 17.7 | 0.00 | 0.36 | 0.36 | 91 | 1019.1 |
| 20260506205353 | 5 | 360 | 8.0 | 17.7 | 0.00 | 0.36 | 0.36 | 91 | 1019.1 |
| 20260506205228 | 5 | 360 | 8.0 | 17.7 | 0.00 | 0.36 | 0.36 | 91 | 1019.2 |
| 20260506205146 | 5 | 360 | 8.0 | 17.7 | 0.00 | 0.36 | 0.36 | 91 | 1019.2 |
| 20260506205025 | 5 | 360 | 9.7 | 17.7 | 0.00 | 0.36 | 0.36 | 91 | 1019.2 |
| 20260506204928 | 5 | 360 | 11.3 | 17.7 | 0.00 | 0.36 | 0.36 | 91 | 1019.2 |
| 20260506204826 | 5 | 360 | 11.3 | 17.7 | 0.00 | 0.36 | 0.36 | 91 | 1019.2 |
| 20260506204743 | 5 | 360 | 9.7 | 16.1 | 0.00 | 0.36 | 0.36 | 91 | 1019.2 |
| 20260506204619 | 5 | 360 | 11.3 | 16.1 | 0.00 | 0.36 | 0.36 | 91 | 1019.2 |
| 20260506204535 | 5 | 360 | 11.3 | 16.1 | 0.00 | 0.36 | 0.36 | 91 | 1019.2 |
| 20260506204432 | 5 | 360 | 12.9 | 16.1 | 0.00 | 0.36 | 0.36 | 91 | 1019.2 |
| 20260506204330 | 5 | 360 | 11.3 | 16.1 | 0.00 | 0.36 | 0.36 | 91 | 1019.2 |
| 20260506204227 | 5 | 360 | 8.0 | 14.5 | 0.00 | 0.36 | 0.36 | 91 | 1019.2 |
| 20260506204144 | 5 | 360 | 8.0 | 14.5 | 0.00 | 0.36 | 0.36 | 91 | 1019.3 |
| 20260506204024 | 5 | 360 | 9.7 | 14.5 | 0.00 | 0.36 | 0.36 | 91 | 1019.3 |
| 20260506203941 | 5 | 360 | 9.7 | 14.5 | 0.00 | 0.36 | 0.36 | 91 | 1019.3 |
| 20260506203818 | 5 | 360 | 9.7 | 14.5 | 0.00 | 0.36 | 0.36 | 91 | 1019.3 |
| 20260506203737 | 5 | 360 | 9.7 | 14.5 | 0.00 | 0.36 | 0.36 | 91 | 1019.3 |
| 20260506203658 | 5 | 360 | 8.0 | 17.7 | 0.00 | 0.36 | 0.36 | 91 | 1019.4 |
| 20260506203540 | 5 | 360 | 8.0 | 17.7 | 0.00 | 0.36 | 0.36 | 91 | 1019.3 |
| 20260506203456 | 5 | 360 | 9.7 | 17.7 | 0.00 | 0.36 | 0.36 | 91 | 1019.4 |
| 20260506203336 | 5 | 360 | 11.3 | 19.3 | 0.00 | 0.36 | 0.36 | 91 | 1019.3 |
| 20260506203255 | 5 | 360 | 9.7 | 19.3 | 0.00 | 0.36 | 0.36 | 91 | 1019.3 |
| 20260506203151 | 5 | 360 | 9.7 | 19.3 | 0.00 | 0.36 | 0.36 | 91 | 1019.3 |
| 20260506203028 | 5 | 360 | 8.0 | 19.3 | 0.00 | 0.36 | 0.36 | 91 | 1019.2 |
| 20260506202926 | 5 | 360 | 9.7 | 19.3 | 0.00 | 0.36 | 0.36 | 91 | 1019.2 |
| 20260506202826 | 5 | 360 | 12.9 | 19.3 | 0.00 | 0.36 | 0.36 | 91 | 1019.3 |
| 20260506202726 | 5 | 360 | 12.9 | 19.3 | 0.00 | 0.36 | 0.36 | 91 | 1019.2 |
| 20260506202627 | 5 | 360 | 12.9 | 19.3 | 0.00 | 0.36 | 0.36 | 91 | 1019.2 |
| 20260506202541 | 5 | 360 | 14.5 | 19.3 | 0.00 | 0.36 | 0.36 | 91 | 1019.2 |
| 20260506202416 | 5 | 360 | 11.3 | 19.3 | 0.00 | 0.36 | 0.36 | 92 | 1019.2 |
| 20260506202320 | 5 | 360 | 11.3 | 17.7 | 0.00 | 0.36 | 0.36 | 92 | 1019.2 |
| 20260506202218 | 5 | 360 | 9.7 | 17.7 | 0.00 | 0.36 | 0.36 | 92 | 1019.1 |
| 20260506202137 | 5 | 360 | 9.7 | 14.5 | 0.00 | 0.36 | 0.36 | 92 | 1019.1 |
| 20260506202031 | 5 | 360 | 9.7 | 14.5 | 0.00 | 0.36 | 0.36 | 92 | 1019.1 |
| 20260506201933 | 5 | 360 | 9.7 | 14.5 | 0.00 | 0.36 | 0.36 | 92 | 1019.0 |
| 20260506201831 | 5 | 360 | 9.7 | 17.7 | 0.00 | 0.36 | 0.36 | 92 | 1019.0 |
| 20260506201750 | 5 | 360 | 11.3 | 17.7 | 0.00 | 0.36 | 0.36 | 92 | 1019.0 |
| 20260506201626 | 5 | 360 | 9.7 | 17.7 | 0.00 | 0.36 | 0.36 | 92 | 1019.0 |
| 20260506201524 | 5 | 360 | 9.7 | 17.7 | 0.00 | 0.36 | 0.36 | 92 | 1018.9 |
| 20260506201441 | 5 | 360 | 8.0 | 17.7 | 0.00 | 0.36 | 0.36 | 92 | 1018.9 |
| 20260506201322 | 5 | 360 | 8.0 | 17.7 | 0.00 | 0.36 | 0.36 | 92 | 1018.8 |
| 20260506201218 | 5 | 360 | 9.7 | 17.7 | 0.00 | 0.36 | 0.36 | 92 | 1018.9 |
| 20260506201135 | 5 | 360 | 11.3 | 17.7 | 0.00 | 0.36 | 0.36 | 92 | 1018.9 |
| 20260506201029 | 5 | 360 | 11.3 | 17.7 | 0.00 | 0.36 | 0.36 | 92 | 1018.9 |
| 20260506200926 | 5 | 360 | 11.3 | 17.7 | 0.00 | 0.36 | 0.36 | 92 | 1019.0 |
| 20260506200826 | 5 | 360 | 11.3 | 17.7 | 0.00 | 0.36 | 0.36 | 92 | 1019.0 |
| 20260506200746 | 5 | 360 | 11.3 | 17.7 | 0.00 | 0.36 | 0.36 | 92 | 1019.0 |
| 20260506200642 | 5 | 360 | 11.3 | 17.7 | 0.00 | 0.36 | 0.36 | 92 | 1019.0 |
| 20260506200535 | 5 | 360 | 12.9 | 17.7 | 0.00 | 0.36 | 0.36 | 92 | 1019.0 |
| 20260506200432 | 5 | 360 | 12.9 | 17.7 | 0.00 | 0.36 | 0.36 | 92 | 1019.0 |
| 20260506200331 | 5 | 360 | 11.3 | 17.7 | 0.00 | 0.36 | 0.36 | 92 | 1019.0 |
| 20260506200227 | 5 | 360 | 9.7 | 17.7 | 0.00 | 0.36 | 0.36 | 92 | 1019.0 |
| 20260506200125 | 5 | 360 | 8.0 | 17.7 | 0.00 | 0.36 | 0.36 | 92 | 1018.9 |
| 20260506200022 | 5 | 360 | 9.7 | 17.7 | 0.00 | 0.36 | 0.36 | 92 | 1018.9 |
| 20260506195924 | 5 | 360 | 9.7 | 17.7 | 0.00 | 0.36 | 0.36 | 92 | 1018.9 |
| 20260506195824 | 5 | 360 | 9.7 | 17.7 | 0.00 | 0.36 | 0.36 | 92 | 1018.9 |
| 20260506195721 | 5 | 360 | 11.3 | 17.7 | 0.00 | 0.36 | 0.36 | 92 | 1018.9 |
| 20260506195622 | 5 | 360 | 9.7 | 17.7 | 0.00 | 0.36 | 0.36 | 92 | 1018.8 |
| 20260506195516 | 5 | 360 | 8.0 | 17.7 | 0.00 | 0.36 | 0.36 | 92 | 1018.9 |
| 20260506195434 | 5 | 360 | 8.0 | 17.7 | 0.00 | 0.36 | 0.36 | 92 | 1018.8 |
| 20260506195317 | 5 | 360 | 8.0 | 17.7 | 0.00 | 0.36 | 0.36 | 92 | 1018.9 |
| 20260506195234 | 5 | 360 | 9.7 | 17.7 | 0.00 | 0.36 | 0.36 | 92 | 1018.9 |
| 20260506195132 | 5 | 360 | 9.7 | 17.7 | 0.00 | 0.36 | 0.36 | 92 | 1019.0 |
| 20260506195026 | 5 | 360 | 11.3 | 17.7 | 0.00 | 0.36 | 0.36 | 92 | 1019.0 |
| 20260506194927 | 5 | 360 | 11.3 | 17.7 | 0.00 | 0.36 | 0.36 | 92 | 1019.0 |
| 20260506194828 | 5 | 360 | 11.3 | 16.1 | 0.00 | 0.36 | 0.36 | 92 | 1019.0 |
| 20260506194725 | 5 | 360 | 11.3 | 16.1 | 0.03 | 0.36 | 0.36 | 92 | 1019.0 |
| 20260506194646 | 5 | 360 | 9.7 | 14.5 | 0.03 | 0.36 | 0.36 | 92 | 1019.0 |
| 20260506194522 | 5 | 360 | 8.0 | 14.5 | 0.03 | 0.36 | 0.36 | 92 | 1019.0 |
| 20260506194420 | 5 | 360 | 8.0 | 14.5 | 0.03 | 0.36 | 0.36 | 92 | 1019.0 |
| 20260506194322 | 5 | 360 | 8.0 | 16.1 | 0.03 | 0.36 | 0.36 | 92 | 1019.0 |
| 20260506194219 | 5 | 360 | 9.7 | 16.1 | 0.03 | 0.36 | 0.36 | 92 | 1019.0 |
| 20260506194117 | 5 | 360 | 9.7 | 16.1 | 0.03 | 0.36 | 0.36 | 92 | 1019.0 |
| 20260506194031 | 5 | 360 | 8.0 | 16.1 | 0.03 | 0.36 | 0.36 | 92 | 1019.0 |
| 20260506193932 | 5 | 360 | 8.0 | 17.7 | 0.03 | 0.36 | 0.36 | 92 | 1019.0 |
| 20260506193835 | 5 | 360 | 9.7 | 19.3 | 0.03 | 0.36 | 0.36 | 92 | 1018.9 |
| 20260506193733 | 5 | 360 | 9.7 | 19.3 | 0.03 | 0.36 | 0.36 | 92 | 1018.9 |
| 20260506193630 | 5 | 360 | 11.3 | 19.3 | 0.03 | 0.36 | 0.36 | 92 | 1018.9 |
| 20260506193526 | 5 | 360 | 11.3 | 19.3 | 0.03 | 0.36 | 0.36 | 92 | 1018.9 |
| 20260506193424 | 5 | 360 | 12.9 | 19.3 | 0.03 | 0.36 | 0.36 | 92 | 1018.9 |
| 20260506193345 | 5 | 360 | 11.3 | 20.9 | 0.03 | 0.36 | 0.36 | 92 | 1018.9 |
| 20260506193223 | 5 | 360 | 9.7 | 20.9 | 0.03 | 0.36 | 0.36 | 92 | 1018.9 |
| 20260506193121 | 5 | 360 | 11.3 | 20.9 | 0.03 | 0.36 | 0.36 | 92 | 1018.9 |
| 20260506193019 | 5 | 360 | 14.5 | 20.9 | 0.03 | 0.36 | 0.36 | 92 | 1018.9 |
| 20260506192920 | 5 | 360 | 14.5 | 20.9 | 0.03 | 0.36 | 0.36 | 92 | 1018.9 |
| 20260506192819 | 5 | 360 | 14.5 | 20.9 | 0.03 | 0.36 | 0.36 | 92 | 1018.9 |
| 20260506192736 | 5 | 130 | 12.9 | 20.9 | 0.03 | 0.36 | 0.36 | 92 | 1018.9 |
| 20260506192617 | 5 | 360 | 14.5 | 20.9 | 0.03 | 0.36 | 0.36 | 92 | 1018.9 |
| 20260506192531 | 5 | 360 | 12.9 | 20.9 | 0.03 | 0.36 | 0.36 | 92 | 1018.9 |
| 20260506192431 | 5 | 360 | 14.5 | 20.9 | 0.03 | 0.36 | 0.36 | 92 | 1018.9 |
| 20260506192331 | 5 | 360 | 12.9 | 17.7 | 0.03 | 0.36 | 0.36 | 92 | 1018.9 |
| 20260506192248 | 5 | 360 | 11.3 | 17.7 | 0.03 | 0.36 | 0.36 | 93 | 1018.8 |
| 20260506192132 | 5 | 360 | 9.7 | 16.1 | 0.03 | 0.36 | 0.36 | 93 | 1018.9 |
| 20260506192047 | 5 | 360 | 8.0 | 16.1 | 0.03 | 0.36 | 0.36 | 93 | 1018.9 |
| 20260506191926 | 5 | 360 | 9.7 | 17.7 | 0.03 | 0.36 | 0.36 | 93 | 1018.9 |
| 20260506191824 | 5 | 360 | 11.3 | 17.7 | 0.03 | 0.36 | 0.36 | 93 | 1018.9 |
| 20260506191740 | 5 | 360 | 11.3 | 17.7 | 0.03 | 0.36 | 0.36 | 93 | 1018.9 |
| 20260506191657 | 5 | 360 | 11.3 | 17.7 | 0.03 | 0.36 | 0.36 | 93 | 1018.9 |
| 20260506191550 | 5 | 360 | 11.3 | 17.7 | 0.03 | 0.36 | 0.36 | 92 | 1018.9 |
| 20260506191425 | 5 | 360 | 11.3 | 17.7 | 0.03 | 0.36 | 0.36 | 93 | 1019.0 |
| 20260506191331 | 5 | 360 | 11.3 | 24.1 | 0.03 | 0.36 | 0.36 | 92 | 1019.0 |
| 20260506191227 | 5 | 360 | 11.3 | 25.7 | 0.03 | 0.36 | 0.36 | 92 | 1018.9 |
| 20260506191123 | 5 | 360 | 12.9 | 25.7 | 0.03 | 0.36 | 0.36 | 92 | 1018.9 |
| 20260506191017 | 5 | 360 | 12.9 | 25.7 | 0.03 | 0.36 | 0.36 | 92 | 1019.0 |
| 20260506190934 | 5 | 360 | 12.9 | 25.7 | 0.03 | 0.36 | 0.36 | 92 | 1018.9 |
| 20260506190831 | 5 | 360 | 14.5 | 25.7 | 0.03 | 0.36 | 0.36 | 92 | 1019.0 |
| 20260506190727 | 5 | 360 | 12.9 | 25.7 | 0.03 | 0.36 | 0.36 | 92 | 1018.9 |
| 20260506190624 | 5 | 360 | 12.9 | 25.7 | 0.03 | 0.36 | 0.36 | 92 | 1018.9 |
| 20260506190525 | 5 | 360 | 16.1 | 25.7 | 0.03 | 0.36 | 0.36 | 92 | 1018.9 |
| 20260506190443 | 5 | 360 | 19.3 | 25.7 | 0.03 | 0.36 | 0.36 | 93 | 1018.9 |
| 20260506190341 | 5 | 360 | 14.5 | 25.7 | 0.03 | 0.36 | 0.36 | 93 | 1018.9 |
| 20260506190217 | 5 | 360 | 12.9 | 20.9 | 0.03 | 0.36 | 0.36 | 93 | 1018.9 |
| 20260506190114 | 5 | 360 | 14.5 | 20.9 | 0.03 | 0.36 | 0.36 | 92 | 1018.9 |
| 20260506190034 | 5 | 360 | 14.5 | 20.9 | 0.03 | 0.36 | 0.36 | 92 | 1018.8 |
| 20260506185931 | 5 | 360 | 12.9 | 19.3 | 0.03 | 0.36 | 0.36 | 92 | 1018.9 |
| 20260506185829 | 5 | 360 | 12.9 | 19.3 | 0.03 | 0.36 | 0.36 | 92 | 1018.9 |
| 20260506185726 | 5 | 360 | 14.5 | 19.3 | 0.03 | 0.36 | 0.36 | 92 | 1018.9 |
| 20260506185626 | 5 | 360 | 12.9 | 19.3 | 0.03 | 0.36 | 0.36 | 92 | 1018.9 |
| 20260506185520 | 5 | 360 | 11.3 | 20.9 | 0.03 | 0.36 | 0.36 | 93 | 1018.9 |
| 20260506185436 | 5 | 360 | 9.7 | 20.9 | 0.03 | 0.36 | 0.36 | 92 | 1018.9 |
| 20260506185334 | 5 | 360 | 11.3 | 20.9 | 0.03 | 0.36 | 0.36 | 92 | 1018.9 |
| 20260506185250 | 5 | 360 | 11.3 | 20.9 | 0.03 | 0.36 | 0.36 | 92 | 1018.9 |
| 20260506185126 | 5 | 360 | 11.3 | 20.9 | 0.03 | 0.36 | 0.36 | 92 | 1019.0 |
| 20260506185023 | 5 | 360 | 11.3 | 20.9 | 0.03 | 0.36 | 0.36 | 92 | 1019.0 |
| 20260506184920 | 5 | 360 | 9.7 | 20.9 | 0.03 | 0.36 | 0.36 | 92 | 1019.0 |
| 20260506184843 | 5 | 360 | 9.7 | 20.9 | 0.00 | 0.33 | 0.33 | 92 | 1019.0 |
| 20260506184722 | 5 | 360 | 11.3 | 20.9 | 0.00 | 0.33 | 0.33 | 92 | 1019.0 |
| 20260506184619 | 5 | 360 | 11.3 | 20.9 | 0.00 | 0.33 | 0.33 | 92 | 1019.0 |
| 20260506184533 | 5 | 360 | 12.9 | 20.9 | 0.00 | 0.33 | 0.33 | 93 | 1019.0 |
| 20260506184429 | 5 | 360 | 11.3 | 20.9 | 0.00 | 0.33 | 0.33 | 93 | 1019.0 |
| 20260506184327 | 5 | 360 | 11.3 | 20.9 | 0.00 | 0.33 | 0.33 | 93 | 1019.0 |
| 20260506184223 | 5 | 360 | 11.3 | 20.9 | 0.00 | 0.33 | 0.33 | 93 | 1019.0 |
| 20260506184121 | 5 | 360 | 11.3 | 20.9 | 0.00 | 0.33 | 0.33 | 93 | 1019.0 |
| 20260506184018 | 5 | 360 | 12.9 | 20.9 | 0.00 | 0.33 | 0.33 | 93 | 1019.0 |
| 20260506183914 | 5 | 360 | 12.9 | 20.9 | 0.00 | 0.33 | 0.33 | 93 | 1019.0 |
| 20260506183835 | 5 | 360 | 14.5 | 20.9 | 0.00 | 0.33 | 0.33 | 93 | 1018.9 |
| 20260506183754 | 5 | 360 | 14.5 | 20.9 | 0.00 | 0.33 | 0.33 | 93 | 1018.9 |
| 20260506183635 | 5 | 360 | 14.5 | 19.3 | 0.00 | 0.33 | 0.33 | 93 | 1018.9 |
| 20260506183549 | 5 | 360 | 12.9 | 20.9 | 0.00 | 0.33 | 0.33 | 93 | 1019.0 |
| 20260506183425 | 5 | 360 | 12.9 | 22.5 | 0.00 | 0.33 | 0.33 | 93 | 1019.0 |
| 20260506183325 | 5 | 360 | 11.3 | 22.5 | 0.00 | 0.33 | 0.33 | 93 | 1019.0 |
| 20260506183222 | 5 | 360 | 12.9 | 22.5 | 0.00 | 0.33 | 0.33 | 93 | 1019.0 |
| 20260506183119 | 5 | 360 | 14.5 | 24.1 | 0.00 | 0.33 | 0.33 | 93 | 1019.0 |
| 20260506183017 | 5 | 360 | 14.5 | 24.1 | 0.03 | 0.33 | 0.33 | 93 | 1019.0 |
| 20260506182935 | 5 | 360 | 12.9 | 24.1 | 0.03 | 0.33 | 0.33 | 93 | 1019.0 |
| 20260506182833 | 5 | 360 | 12.9 | 24.1 | 0.03 | 0.33 | 0.33 | 93 | 1019.0 |
| 20260506182732 | 5 | 360 | 12.9 | 24.1 | 0.03 | 0.33 | 0.33 | 93 | 1019.1 |
| 20260506182630 | 5 | 360 | 14.5 | 24.1 | 0.03 | 0.33 | 0.33 | 93 | 1019.1 |
| 20260506182524 | 5 | 360 | 14.5 | 24.1 | 0.03 | 0.33 | 0.33 | 93 | 1019.2 |
| 20260506182424 | 5 | 360 | 16.1 | 24.1 | 0.03 | 0.33 | 0.33 | 93 | 1019.2 |
| 20260506182347 | 5 | 360 | 16.1 | 24.1 | 0.03 | 0.33 | 0.33 | 93 | 1019.1 |
| 20260506182223 | 5 | 360 | 17.7 | 24.1 | 0.03 | 0.33 | 0.33 | 93 | 1019.1 |
| 20260506182122 | 5 | 360 | 16.1 | 22.5 | 0.03 | 0.33 | 0.33 | 93 | 1019.1 |
| 20260506182016 | 5 | 360 | 16.1 | 24.1 | 0.03 | 0.33 | 0.33 | 93 | 1019.1 |
| 20260506181918 | 5 | 360 | 16.1 | 24.1 | 0.03 | 0.33 | 0.33 | 93 | 1019.1 |
| 20260506181819 | 5 | 360 | 14.5 | 24.1 | 0.05 | 0.33 | 0.33 | 93 | 1019.2 |
| 20260506181742 | 5 | 360 | 12.9 | 24.1 | 0.05 | 0.33 | 0.33 | 94 | 1019.2 |
| 20260506181619 | 5 | 360 | 12.9 | 24.1 | 0.05 | 0.33 | 0.33 | 94 | 1019.2 |
| 20260506181517 | 5 | 360 | 12.9 | 25.7 | 0.05 | 0.33 | 0.33 | 93 | 1019.2 |
| 20260506181434 | 5 | 360 | 14.5 | 25.7 | 0.05 | 0.33 | 0.33 | 93 | 1019.2 |
| 20260506181334 | 4 | 360 | 16.1 | 25.7 | 0.05 | 0.33 | 0.33 | 93 | 1019.3 |
| 20260506181253 | 4 | 360 | 17.7 | 25.7 | 0.05 | 0.33 | 0.33 | 93 | 1019.3 |
| 20260506181134 | 4 | 360 | 19.3 | 25.7 | 0.05 | 0.33 | 0.33 | 93 | 1019.3 |
| 20260506181030 | 4 | 360 | 19.3 | 25.7 | 0.05 | 0.33 | 0.33 | 93 | 1019.3 |
| 20260506180928 | 4 | 360 | 19.3 | 25.7 | 0.05 | 0.33 | 0.33 | 93 | 1019.3 |
| 20260506180827 | 5 | 360 | 19.3 | 25.7 | 0.08 | 0.33 | 0.33 | 93 | 1019.3 |
| 20260506180724 | 5 | 360 | 19.3 | 25.7 | 0.08 | 0.33 | 0.33 | 94 | 1019.3 |
| 20260506180626 | 5 | 360 | 17.7 | 25.7 | 0.08 | 0.33 | 0.33 | 94 | 1019.3 |
| 20260506180519 | 5 | 360 | 14.5 | 22.5 | 0.08 | 0.33 | 0.33 | 94 | 1019.3 |
| 20260506180419 | 5 | 360 | 16.1 | 22.5 | 0.08 | 0.33 | 0.33 | 94 | 1019.3 |
| 20260506180317 | 4 | 360 | 14.5 | 22.5 | 0.08 | 0.33 | 0.33 | 94 | 1019.3 |
| 20260506180216 | 4 | 360 | 12.9 | 22.5 | 0.08 | 0.33 | 0.33 | 94 | 1019.3 |
| 20260506180133 | 4 | 360 | 14.5 | 22.5 | 0.08 | 0.33 | 0.33 | 93 | 1019.2 |
| 20260506180030 | 4 | 360 | 17.7 | 22.5 | 0.08 | 0.33 | 0.33 | 93 | 1019.2 |
| 20260506175931 | 4 | 360 | 17.7 | 22.5 | 0.08 | 0.33 | 0.33 | 93 | 1019.3 |
| 20260506175829 | 4 | 360 | 17.7 | 22.5 | 0.08 | 0.33 | 0.33 | 93 | 1019.2 |
| 20260506175728 | 4 | 360 | 16.1 | 22.5 | 0.08 | 0.33 | 0.33 | 93 | 1019.2 |
| 20260506175625 | 4 | 360 | 16.1 | 24.1 | 0.08 | 0.33 | 0.33 | 93 | 1019.2 |
| 20260506175522 | 4 | 360 | 17.7 | 24.1 | 0.08 | 0.33 | 0.33 | 93 | 1019.2 |
| 20260506175439 | 4 | 360 | 17.7 | 24.1 | 0.08 | 0.33 | 0.33 | 93 | 1019.2 |
| 20260506175336 | 4 | 360 | 16.1 | 24.1 | 0.08 | 0.33 | 0.33 | 93 | 1019.2 |
| 20260506175236 | 4 | 360 | 14.5 | 24.1 | 0.10 | 0.33 | 0.33 | 93 | 1019.2 |
| 20260506175132 | 4 | 360 | 16.1 | 24.1 | 0.10 | 0.33 | 0.33 | 93 | 1019.2 |
| 20260506175029 | 4 | 360 | 17.7 | 24.1 | 0.10 | 0.33 | 0.33 | 93 | 1019.2 |
| 20260506174926 | 4 | 360 | 17.7 | 24.1 | 0.10 | 0.33 | 0.33 | 94 | 1019.2 |
| 20260506174824 | 4 | 360 | 17.7 | 24.1 | 0.10 | 0.33 | 0.33 | 94 | 1019.2 |
| 20260506174721 | 4 | 360 | 16.1 | 24.1 | 0.10 | 0.33 | 0.33 | 94 | 1019.2 |
| 20260506174618 | 4 | 360 | 12.9 | 24.1 | 0.10 | 0.33 | 0.33 | 94 | 1019.2 |
| 20260506174518 | 4 | 360 | 11.3 | 24.1 | 0.10 | 0.33 | 0.33 | 94 | 1019.1 |
| 20260506174438 | 4 | 360 | 11.3 | 24.1 | 0.10 | 0.33 | 0.33 | 94 | 1019.1 |
| 20260506174335 | 4 | 360 | 12.9 | 24.1 | 0.10 | 0.33 | 0.33 | 94 | 1019.1 |
| 20260506174234 | 4 | 360 | 12.9 | 24.1 | 0.10 | 0.33 | 0.33 | 94 | 1019.2 |
| 20260506174130 | 4 | 360 | 14.5 | 24.1 | 0.10 | 0.33 | 0.33 | 94 | 1019.2 |
| 20260506174024 | 4 | 360 | 16.1 | 24.1 | 0.10 | 0.33 | 0.33 | 94 | 1019.2 |
| 20260506173921 | 4 | 360 | 16.1 | 24.1 | 0.10 | 0.33 | 0.33 | 94 | 1019.2 |
| 20260506173843 | 4 | 360 | 16.1 | 24.1 | 0.10 | 0.33 | 0.33 | 94 | 1019.1 |
| 20260506173719 | 4 | 360 | 14.5 | 24.1 | 0.10 | 0.33 | 0.33 | 94 | 1019.2 |
| 20260506173636 | 4 | 360 | 14.5 | 24.1 | 0.13 | 0.33 | 0.33 | 94 | 1019.1 |
| 20260506173533 | 4 | 360 | 16.1 | 24.1 | 0.13 | 0.33 | 0.33 | 94 | 1019.2 |
| 20260506173430 | 4 | 360 | 16.1 | 24.1 | 0.13 | 0.33 | 0.33 | 94 | 1019.2 |
| 20260506173354 | 4 | 360 | 16.1 | 24.1 | 0.13 | 0.33 | 0.33 | 94 | 1019.2 |
| 20260506173229 | 4 | 360 | 16.1 | 24.1 | 0.13 | 0.33 | 0.33 | 94 | 1019.2 |
| 20260506173125 | 4 | 360 | 17.7 | 24.1 | 0.10 | 0.30 | 0.30 | 94 | 1019.2 |
| 20260506173022 | 4 | 360 | 17.7 | 24.1 | 0.10 | 0.30 | 0.30 | 94 | 1019.2 |
| 20260506172922 | 4 | 360 | 17.7 | 24.1 | 0.10 | 0.30 | 0.30 | 94 | 1019.2 |
| 20260506172825 | 4 | 360 | 17.7 | 24.1 | 0.10 | 0.30 | 0.30 | 94 | 1019.1 |
| 20260506172723 | 4 | 360 | 16.1 | 24.1 | 0.10 | 0.30 | 0.30 | 94 | 1019.2 |
| 20260506172623 | 4 | 360 | 12.9 | 22.5 | 0.10 | 0.30 | 0.30 | 94 | 1019.2 |
| 20260506172521 | 4 | 360 | 14.5 | 22.5 | 0.10 | 0.30 | 0.30 | 94 | 1019.1 |
| 20260506172421 | 4 | 360 | 14.5 | 22.5 | 0.10 | 0.30 | 0.30 | 94 | 1019.1 |
| 20260506172324 | 4 | 360 | 12.9 | 22.5 | 0.10 | 0.30 | 0.30 | 94 | 1019.1 |
| 20260506172242 | 4 | 360 | 11.3 | 20.9 | 0.10 | 0.30 | 0.30 | 94 | 1019.2 |
| 20260506172139 | 4 | 360 | 11.3 | 20.9 | 0.10 | 0.30 | 0.30 | 94 | 1019.2 |
| 20260506172035 | 4 | 360 | 12.9 | 20.9 | 0.13 | 0.30 | 0.30 | 94 | 1019.2 |
| 20260506171956 | 4 | 360 | 11.3 | 20.9 | 0.10 | 0.28 | 0.28 | 94 | 1019.2 |
| 20260506171853 | 4 | 360 | 9.7 | 20.9 | 0.10 | 0.28 | 0.28 | 94 | 1019.2 |
| 20260506171728 | 4 | 360 | 11.3 | 20.9 | 0.10 | 0.28 | 0.28 | 94 | 1019.2 |
| 20260506171631 | 4 | 360 | 12.9 | 20.9 | 0.10 | 0.28 | 0.28 | 94 | 1019.2 |
| 20260506171550 | 4 | 360 | 14.5 | 20.9 | 0.10 | 0.28 | 0.28 | 94 | 1019.2 |
| 20260506171426 | 4 | 360 | 12.9 | 20.9 | 0.10 | 0.28 | 0.28 | 94 | 1019.2 |
| 20260506171324 | 4 | 360 | 11.3 | 19.3 | 0.10 | 0.28 | 0.28 | 94 | 1019.2 |
| 20260506171220 | 4 | 360 | 9.7 | 19.3 | 0.10 | 0.28 | 0.28 | 94 | 1019.1 |
| 20260506171138 | 4 | 360 | 11.3 | 19.3 | 0.10 | 0.28 | 0.28 | 94 | 1019.1 |
| 20260506171034 | 4 | 360 | 11.3 | 19.3 | 0.10 | 0.28 | 0.28 | 94 | 1019.1 |
| 20260506170951 | 4 | 360 | 12.9 | 19.3 | 0.10 | 0.28 | 0.28 | 94 | 1019.1 |
| 20260506170833 | 4 | 360 | 11.3 | 22.5 | 0.08 | 0.25 | 0.25 | 94 | 1019.0 |
| 20260506170729 | 4 | 360 | 9.7 | 22.5 | 0.08 | 0.25 | 0.25 | 94 | 1019.0 |
| 20260506170627 | 4 | 360 | 11.3 | 22.5 | 0.08 | 0.25 | 0.25 | 94 | 1019.0 |
| 20260506170542 | 4 | 360 | 9.7 | 22.5 | 0.08 | 0.25 | 0.25 | 94 | 1019.0 |
| 20260506170459 | 4 | 360 | 9.7 | 22.5 | 0.08 | 0.25 | 0.25 | 94 | 1018.9 |
| 20260506170335 | 4 | 360 | 11.3 | 22.5 | 0.08 | 0.25 | 0.25 | 94 | 1018.9 |
| 20260506170230 | 4 | 360 | 12.9 | 22.5 | 0.08 | 0.25 | 0.25 | 94 | 1018.9 |
| 20260506170126 | 3 | 360 | 14.5 | 22.5 | 0.10 | 0.25 | 0.25 | 94 | 1018.9 |
| 20260506170023 | 4 | 360 | 16.1 | 22.5 | 0.10 | 0.25 | 0.25 | 94 | 1018.9 |
| 20260506165924 | 4 | 360 | 14.5 | 22.5 | 0.10 | 0.25 | 0.25 | 94 | 1018.9 |
| 20260506165822 | 4 | 360 | 11.3 | 20.9 | 0.10 | 0.25 | 0.25 | 94 | 1018.9 |
| 20260506165718 | 4 | 360 | 11.3 | 20.9 | 0.10 | 0.25 | 0.25 | 94 | 1018.9 |
| 20260506165635 | 4 | 360 | 12.9 | 20.9 | 0.10 | 0.25 | 0.25 | 94 | 1018.9 |
| 20260506165549 | 4 | 360 | 12.9 | 20.9 | 0.10 | 0.25 | 0.25 | 94 | 1018.9 |
| 20260506165426 | 4 | 360 | 12.9 | 20.9 | 0.10 | 0.25 | 0.25 | 94 | 1018.9 |
| 20260506165326 | 4 | 360 | 12.9 | 20.9 | 0.08 | 0.23 | 0.23 | 94 | 1018.9 |
| 20260506165243 | 4 | 360 | 12.9 | 20.9 | 0.08 | 0.23 | 0.23 | 94 | 1018.9 |
| 20260506165119 | 4 | 360 | 14.5 | 20.9 | 0.08 | 0.23 | 0.23 | 94 | 1018.9 |
| 20260506165016 | 4 | 360 | 14.5 | 20.9 | 0.08 | 0.23 | 0.23 | 94 | 1018.8 |
| 20260506164934 | 4 | 360 | 14.5 | 20.9 | 0.08 | 0.23 | 0.23 | 94 | 1018.9 |
| 20260506164836 | 4 | 360 | 11.3 | 20.9 | 0.08 | 0.23 | 0.23 | 94 | 1018.8 |
| 20260506164731 | 4 | 360 | 12.9 | 22.5 | 0.08 | 0.23 | 0.23 | 94 | 1018.9 |
| 20260506164628 | 4 | 360 | 14.5 | 24.1 | 0.08 | 0.23 | 0.23 | 94 | 1018.8 |
| 20260506164524 | 4 | 360 | 14.5 | 24.1 | 0.08 | 0.23 | 0.23 | 94 | 1018.9 |
| 20260506164422 | 3 | 360 | 14.5 | 24.1 | 0.08 | 0.23 | 0.23 | 94 | 1018.8 |
| 20260506164323 | 3 | 360 | 14.5 | 24.1 | 0.08 | 0.23 | 0.23 | 94 | 1018.8 |
| 20260506164222 | 3 | 360 | 14.5 | 24.1 | 0.08 | 0.23 | 0.23 | 94 | 1018.8 |
| 20260506164119 | 3 | 360 | 16.1 | 24.1 | 0.08 | 0.23 | 0.23 | 94 | 1018.8 |
| 20260506164015 | 3 | 360 | 17.7 | 24.1 | 0.08 | 0.23 | 0.23 | 94 | 1018.9 |
| 20260506163933 | 3 | 360 | 17.7 | 24.1 | 0.08 | 0.23 | 0.23 | 94 | 1018.9 |
| 20260506163831 | 3 | 360 | 17.7 | 24.1 | 0.08 | 0.23 | 0.23 | 94 | 1018.9 |
| 20260506163726 | 3 | 360 | 17.7 | 24.1 | 0.05 | 0.20 | 0.20 | 94 | 1018.9 |
| 20260506163624 | 3 | 360 | 17.7 | 22.5 | 0.05 | 0.20 | 0.20 | 94 | 1018.9 |
| 20260506163525 | 3 | 360 | 16.1 | 22.5 | 0.05 | 0.20 | 0.20 | 94 | 1018.9 |
| 20260506163421 | 3 | 360 | 14.5 | 22.5 | 0.05 | 0.20 | 0.20 | 94 | 1018.9 |
| 20260506163319 | 3 | 360 | 14.5 | 24.1 | 0.08 | 0.20 | 0.20 | 94 | 1018.8 |
| 20260506163216 | 3 | 360 | 14.5 | 24.1 | 0.08 | 0.20 | 0.20 | 94 | 1018.7 |
| 20260506163134 | 3 | 360 | 16.1 | 24.1 | 0.08 | 0.20 | 0.20 | 93 | 1018.7 |
| 20260506163026 | 3 | 360 | 14.5 | 24.1 | 0.08 | 0.20 | 0.20 | 94 | 1018.8 |
| 20260506162943 | 3 | 360 | 12.9 | 24.1 | 0.08 | 0.20 | 0.20 | 94 | 1018.7 |
| 20260506162822 | 3 | 360 | 12.9 | 24.1 | 0.08 | 0.20 | 0.20 | 94 | 1018.7 |
| 20260506162726 | 3 | 360 | 14.5 | 24.1 | 0.08 | 0.20 | 0.20 | 93 | 1018.7 |
| 20260506162622 | 3 | 360 | 14.5 | 24.1 | 0.08 | 0.20 | 0.20 | 93 | 1018.7 |
| 20260506162536 | 3 | 360 | 16.1 | 24.1 | 0.08 | 0.20 | 0.20 | 94 | 1018.7 |
| 20260506162432 | 3 | 360 | 14.5 | 24.1 | 0.08 | 0.20 | 0.20 | 94 | 1018.8 |
| 20260506162330 | 3 | 360 | 12.9 | 20.9 | 0.08 | 0.20 | 0.20 | 94 | 1018.7 |
| 20260506162225 | 3 | 360 | 11.3 | 20.9 | 0.08 | 0.20 | 0.20 | 94 | 1018.7 |
| 20260506162122 | 3 | 360 | 12.9 | 20.9 | 0.05 | 0.18 | 0.18 | 94 | 1018.7 |
| 20260506162035 | 3 | 360 | 12.9 | 20.9 | 0.05 | 0.18 | 0.18 | 94 | 1018.7 |
| 20260506161931 | 3 | 360 | 11.3 | 17.7 | 0.05 | 0.18 | 0.18 | 94 | 1018.7 |
| 20260506161839 | 3 | 360 | 11.3 | 17.7 | 0.05 | 0.18 | 0.18 | 94 | 1018.7 |
| 20260506161715 | 3 | 360 | 11.3 | 17.7 | 0.05 | 0.18 | 0.18 | 94 | 1018.7 |
| 20260506161633 | 3 | 360 | 11.3 | 17.7 | 0.05 | 0.18 | 0.18 | 94 | 1018.7 |
| 20260506161525 | 3 | 360 | 11.3 | 17.7 | 0.05 | 0.18 | 0.18 | 94 | 1018.7 |
| 20260506161445 | 3 | 360 | 9.7 | 17.7 | 0.05 | 0.18 | 0.18 | 94 | 1018.7 |
| 20260506161321 | 3 | 360 | 11.3 | 17.7 | 0.05 | 0.18 | 0.18 | 94 | 1018.7 |
| 20260506161218 | 3 | 360 | 11.3 | 17.7 | 0.05 | 0.18 | 0.18 | 94 | 1018.7 |
| 20260506161135 | 3 | 360 | 11.3 | 17.7 | 0.05 | 0.18 | 0.18 | 94 | 1018.7 |
| 20260506161049 | 3 | 360 | 11.3 | 20.9 | 0.05 | 0.18 | 0.18 | 94 | 1018.6 |
| 20260506160926 | 3 | 360 | 11.3 | 20.9 | 0.05 | 0.18 | 0.18 | 94 | 1018.7 |
| 20260506160828 | 3 | 360 | 11.3 | 20.9 | 0.05 | 0.18 | 0.18 | 93 | 1018.7 |
| 20260506160726 | 3 | 360 | 9.7 | 20.9 | 0.05 | 0.18 | 0.18 | 93 | 1018.6 |
| 20260506160626 | 3 | 360 | 9.7 | 20.9 | 0.05 | 0.18 | 0.18 | 93 | 1018.6 |
| 20260506160520 | 3 | 360 | 11.3 | 20.9 | 0.05 | 0.18 | 0.18 | 93 | 1018.6 |
| 20260506160423 | 3 | 360 | 11.3 | 20.9 | 0.05 | 0.18 | 0.18 | 93 | 1018.6 |
| 20260506160322 | 3 | 360 | 12.9 | 20.9 | 0.05 | 0.18 | 0.18 | 93 | 1018.6 |
| 20260506160238 | 3 | 360 | 12.9 | 20.9 | 0.03 | 0.15 | 0.15 | 93 | 1018.6 |
| 20260506160134 | 3 | 360 | 12.9 | 20.9 | 0.03 | 0.15 | 0.15 | 93 | 1018.5 |
| 20260506160034 | 3 | 360 | 12.9 | 20.9 | 0.03 | 0.15 | 0.15 | 93 | 1018.5 |
| 20260506155931 | 3 | 360 | 14.5 | 20.9 | 0.03 | 0.15 | 0.15 | 94 | 1018.6 |
| 20260506155831 | 3 | 360 | 14.5 | 20.9 | 0.03 | 0.15 | 0.15 | 94 | 1018.5 |
| 20260506155727 | 3 | 360 | 14.5 | 20.9 | 0.03 | 0.15 | 0.15 | 94 | 1018.6 |
| 20260506155627 | 3 | 360 | 14.5 | 20.9 | 0.03 | 0.15 | 0.15 | 94 | 1018.6 |
| 20260506155521 | 3 | 360 | 12.9 | 20.9 | 0.03 | 0.15 | 0.15 | 94 | 1018.5 |
| 20260506155442 | 3 | 360 | 11.3 | 20.9 | 0.03 | 0.15 | 0.15 | 94 | 1018.5 |
| 20260506155342 | 3 | 360 | 9.7 | 17.7 | 0.03 | 0.15 | 0.15 | 94 | 1018.4 |
| 20260506155241 | 3 | 360 | 11.3 | 17.7 | 0.03 | 0.15 | 0.15 | 94 | 1018.4 |
| 20260506155159 | 3 | 360 | 11.3 | 17.7 | 0.03 | 0.15 | 0.15 | 94 | 1018.4 |
| 20260506155033 | 3 | 360 | 11.3 | 17.7 | 0.03 | 0.15 | 0.15 | 94 | 1018.4 |
| 20260506154933 | 3 | 360 | 12.9 | 19.3 | 0.03 | 0.15 | 0.15 | 94 | 1018.4 |
| 20260506154832 | 3 | 360 | 11.3 | 19.3 | 0.03 | 0.15 | 0.15 | 94 | 1018.3 |
| 20260506154729 | 3 | 360 | 9.7 | 19.3 | 0.03 | 0.15 | 0.15 | 93 | 1018.3 |
| 20260506154626 | 3 | 360 | 9.7 | 20.9 | 0.03 | 0.15 | 0.15 | 93 | 1018.3 |
| 20260506154521 | 3 | 360 | 11.3 | 20.9 | 0.03 | 0.15 | 0.15 | 93 | 1018.4 |
| 20260506154424 | 3 | 360 | 11.3 | 22.5 | 0.03 | 0.15 | 0.15 | 93 | 1018.3 |
| 20260506154322 | 3 | 360 | 11.3 | 22.5 | 0.03 | 0.15 | 0.15 | 93 | 1018.3 |
| 20260506154241 | 3 | 360 | 11.3 | 22.5 | 0.03 | 0.15 | 0.15 | 93 | 1018.4 |
| 20260506154142 | 3 | 360 | 14.5 | 22.5 | 0.03 | 0.15 | 0.15 | 93 | 1018.3 |
| 20260506154036 | 3 | 360 | 14.5 | 22.5 | 0.03 | 0.15 | 0.15 | 93 | 1018.3 |
| 20260506153954 | 3 | 360 | 14.5 | 22.5 | 0.03 | 0.15 | 0.15 | 93 | 1018.3 |
| 20260506153831 | 3 | 360 | 16.1 | 22.5 | 0.03 | 0.15 | 0.15 | 93 | 1018.2 |
| 20260506153729 | 3 | 360 | 16.1 | 22.5 | 0.05 | 0.15 | 0.15 | 93 | 1018.2 |
| 20260506153626 | 3 | 360 | 16.1 | 22.5 | 0.05 | 0.15 | 0.15 | 93 | 1018.2 |
| 20260506153540 | 3 | 360 | 12.9 | 22.5 | 0.05 | 0.15 | 0.15 | 93 | 1018.2 |
| 20260506153423 | 3 | 360 | 11.3 | 20.9 | 0.03 | 0.13 | 0.13 | 93 | 1018.2 |
| 20260506153322 | 3 | 360 | 12.9 | 22.5 | 0.03 | 0.13 | 0.13 | 93 | 1018.2 |
| 20260506153219 | 3 | 360 | 11.3 | 24.1 | 0.03 | 0.13 | 0.13 | 93 | 1018.2 |
| 20260506153118 | 3 | 360 | 11.3 | 24.1 | 0.03 | 0.13 | 0.13 | 93 | 1018.2 |
| 20260506153031 | 3 | 360 | 12.9 | 24.1 | 0.03 | 0.13 | 0.13 | 93 | 1018.2 |
| 20260506152950 | 3 | 360 | 12.9 | 24.1 | 0.03 | 0.13 | 0.13 | 93 | 1018.2 |
| 20260506152849 | 3 | 360 | 12.9 | 24.1 | 0.03 | 0.13 | 0.13 | 93 | 1018.2 |
| 20260506152727 | 3 | 360 | 12.9 | 24.1 | 0.03 | 0.13 | 0.13 | 93 | 1018.2 |
| 20260506152650 | 3 | 360 | 16.1 | 24.1 | 0.03 | 0.13 | 0.13 | 93 | 1018.2 |
| 20260506152526 | 3 | 360 | 16.1 | 24.1 | 0.03 | 0.13 | 0.13 | 93 | 1018.2 |
| 20260506152446 | 3 | 360 | 16.1 | 24.1 | 0.03 | 0.13 | 0.13 | 93 | 1018.2 |
| 20260506152323 | 3 | 360 | 16.1 | 24.1 | 0.03 | 0.13 | 0.13 | 93 | 1018.2 |
| 20260506152222 | 3 | 360 | 12.9 | 22.5 | 0.03 | 0.13 | 0.13 | 93 | 1018.3 |
| 20260506152120 | 3 | 360 | 12.9 | 22.5 | 0.03 | 0.13 | 0.13 | 93 | 1018.2 |
| 20260506152016 | 3 | 360 | 11.3 | 22.5 | 0.03 | 0.13 | 0.13 | 93 | 1018.3 |
| 20260506151917 | 3 | 360 | 12.9 | 22.5 | 0.03 | 0.13 | 0.13 | 93 | 1018.2 |
| 20260506151819 | 3 | 360 | 12.9 | 22.5 | 0.03 | 0.13 | 0.13 | 93 | 1018.2 |
| 20260506151715 | 3 | 360 | 14.5 | 22.5 | 0.03 | 0.13 | 0.13 | 93 | 1018.2 |
| 20260506151617 | 3 | 360 | 14.5 | 22.5 | 0.03 | 0.13 | 0.13 | 93 | 1018.2 |
| 20260506151531 | 3 | 360 | 12.9 | 22.5 | 0.03 | 0.13 | 0.13 | 93 | 1018.2 |
| 20260506151429 | 3 | 360 | 12.9 | 22.5 | 0.03 | 0.13 | 0.13 | 93 | 1018.2 |
| 20260506151329 | 3 | 360 | 12.9 | 22.5 | 0.03 | 0.13 | 0.13 | 93 | 1018.2 |
| 20260506151228 | 3 | 360 | 12.9 | 22.5 | 0.03 | 0.13 | 0.13 | 93 | 1018.2 |
| 20260506151146 | 3 | 360 | 14.5 | 22.5 | 0.03 | 0.13 | 0.13 | 93 | 1018.2 |
| 20260506150918 | 3 | 360 | 12.9 | 22.5 | 0.03 | 0.13 | 0.13 | 93 | 1018.2 |
| 20260506150817 | 3 | 360 | 12.9 | 22.5 | 0.03 | 0.13 | 0.13 | 93 | 1018.1 |
| 20260506150713 | 3 | 360 | 12.9 | 20.9 | 0.03 | 0.13 | 0.13 | 93 | 1018.1 |
| 20260506150636 | 3 | 360 | 12.9 | 20.9 | 0.03 | 0.13 | 0.13 | 93 | 1018.1 |
| 20260506150528 | 3 | 360 | 11.3 | 20.9 | 0.03 | 0.13 | 0.13 | 93 | 1018.1 |
| 20260506150445 | 3 | 360 | 11.3 | 22.5 | 0.03 | 0.13 | 0.13 | 93 | 1018.0 |
| 20260506150321 | 3 | 360 | 12.9 | 22.5 | 0.03 | 0.13 | 0.13 | 93 | 1018.0 |
| 20260506150220 | 3 | 360 | 12.9 | 24.1 | 0.03 | 0.13 | 0.13 | 93 | 1018.1 |
| 20260506150139 | 3 | 360 | 14.5 | 24.1 | 0.03 | 0.13 | 0.13 | 93 | 1018.0 |
| 20260506150057 | 3 | 360 | 14.5 | 24.1 | 0.03 | 0.13 | 0.13 | 93 | 1018.0 |
| 20260506145932 | 3 | 360 | 12.9 | 25.7 | 0.03 | 0.13 | 0.13 | 93 | 1018.0 |
| 20260506145834 | 3 | 360 | 12.9 | 25.7 | 0.03 | 0.13 | 0.13 | 93 | 1018.0 |
| 20260506145733 | 3 | 360 | 12.9 | 25.7 | 0.03 | 0.13 | 0.13 | 93 | 1018.0 |
| 20260506145630 | 3 | 360 | 14.5 | 25.7 | 0.03 | 0.13 | 0.13 | 93 | 1018.0 |
| 20260506145527 | 3 | 360 | 14.5 | 25.7 | 0.03 | 0.13 | 0.13 | 93 | 1018.0 |
| 20260506145424 | 3 | 360 | 16.1 | 25.7 | 0.03 | 0.13 | 0.13 | 93 | 1017.9 |
| 20260506145330 | 3 | 360 | 14.5 | 25.7 | 0.03 | 0.13 | 0.13 | 93 | 1017.9 |
| 20260506145226 | 3 | 360 | 14.5 | 25.7 | 0.03 | 0.13 | 0.13 | 93 | 1017.9 |
| 20260506145124 | 3 | 360 | 16.1 | 25.7 | 0.03 | 0.13 | 0.13 | 93 | 1017.9 |
| 20260506145021 | 3 | 360 | 16.1 | 25.7 | 0.03 | 0.13 | 0.13 | 93 | 1017.9 |
| 20260506144917 | 3 | 360 | 14.5 | 25.7 | 0.03 | 0.13 | 0.13 | 93 | 1017.9 |
| 20260506144835 | 3 | 360 | 12.9 | 24.1 | 0.03 | 0.13 | 0.13 | 93 | 1018.0 |
| 20260506144731 | 3 | 360 | 14.5 | 24.1 | 0.03 | 0.13 | 0.13 | 93 | 1018.0 |